[[{"header":{"parameterUnit":"m.s-1","parameterCategory":1,"la1":30.6,"la2":28.766,"lo1":-90.7593,"lo2":-88.6598,"dy":0.0162,"dx":0.0183,"nx":116,"ny":114,"refTime":"2023-04-14T12:00:00:Z","depth":0,"parameterNumber":2,"parameterNumberName":"U-component_of_WINDS"},"data":[0.0,0.0,0.0,0.0,0.0,0.0,0.0,0.0,0.0,0.0,0.0,0.0,0.0,0.0,0.0,0.0,0.0,0.0,0.0,0.0,0.0,0.0,0.0,0.0,0.0,0.0,0.0,0.0,0.0,0.0,0.0,0.0,0.0,0.0,0.0,0.0,0.0,0.0,0.0,0.0,0.0,0.0,0.0,0.0,0.0,0.0,0.0,0.0,0.0,0.0,0.0,0.0,0.0,0.0,0.0,0.0,0.0,0.0,0.0,0.0,0.0,0.0,0.0,0.0,0.0,0.0,0.0,0.0,0.0,0.0,0.0,0.0,0.0,0.0,0.0,0.0,0.0,0.0,0.0,0.0,0.0,0.0,0.0,0.0,0.0,0.0,0.0,0.0,0.0,0.0,0.0,0.0,0.0,0.0,0.0,0.0,0.0,0.0,0.0,0.0,0.0,0.0,0.0,0.0,0.0,0.0,0.0,0.0,0.0,0.0,0.0,0.0,0.0,0.0,0.0,0.0,0.0,0.0,0.0,0.0,0.0,0.0,0.0,0.0,0.0,0.0,0.0,0.0,0.0,0.0,0.0,0.0,0.0,0.0,0.0,0.0,0.0,0.0,0.0,0.0,0.0,0.0,0.0,0.0,0.0,0.0,0.0,0.0,0.0,0.0,0.0,0.0,0.0,0.0,0.0,0.0,0.0,0.0,0.0,0.0,0.0,0.0,0.0,0.0,0.0,0.0,0.0,0.0,0.0,0.0,0.0,0.0,0.0,0.0,0.0,0.0,0.0,0.0,0.0,0.0,0.0,0.0,0.0,0.0,0.0,0.0,0.0,0.0,0.0,0.0,0.0,0.0,0.0,0.0,0.0,0.0,0.0,0.0,0.0,0.0,0.0,0.0,0.0,0.0,0.0,0.0,0.0,0.0,0.0,0.0,0.0,0.0,0.0,0.0,0.0,0.0,0.0,0.0,0.0,0.0,0.0,0.0,0.0,0.0,0.0,0.0,0.0,0.0,0.0,0.0,0.0,0.0,0.0,0.0,0.0,0.0,0.0,0.0,0.0,0.0,0.0,0.0,0.0,0.0,0.0,0.0,0.0,0.0,0.0,0.0,0.0,0.0,0.0,0.0,0.0,0.0,0.0,0.0,0.0,0.0,0.0,0.0,0.0,0.0,0.0,0.0,0.0,0.0,0.0,0.0,0.0,0.0,0.0,0.0,0.0,0.0,0.0,0.0,0.0,0.0,0.0,0.0,0.0,0.0,0.0,0.0,0.0,0.0,0.0,0.0,0.0,0.0,0.0,0.0,0.0,0.0,0.0,0.0,0.0,0.0,0.0,0.0,0.0,0.0,0.0,0.0,0.0,0.0,0.0,0.0,0.0,0.0,0.0,0.0,0.0,0.0,0.0,0.0,0.0,0.0,0.0,0.0,0.0,0.0,0.0,0.0,0.0,0.0,0.0,0.0,0.0,0.0,0.0,0.0,0.0,0.0,0.0,0.0,0.0,0.0,0.0,0.0,0.0,0.0,0.0,0.0,0.0,0.0,0.0,0.0,0.0,0.0,0.0,0.0,0.0,0.0,0.0,0.0,0.0,0.0,0.0,0.0,0.0,0.0,0.0,0.0,0.0,0.0,0.0,0.0,0.0,0.0,0.0,0.0,0.0,0.0,0.0,0.0,0.0,0.0,0.0,0.0,0.0,0.0,0.0,0.0,0.0,0.0,0.0,0.0,0.0,0.0,0.0,0.0,0.0,0.0,0.0,0.0,0.0,0.0,0.0,0.0,0.0,0.0,0.0,0.0,0.0,0.0,0.0,0.0,0.0,0.0,0.0,0.0,0.0,0.0,0.0,0.0,0.0,0.0,0.0,0.0,0.0,0.0,0.0,0.0,0.0,0.0,0.0,0.0,0.0,0.0,0.0,0.0,0.0,0.0,0.0,0.0,0.0,0.0,0.0,0.0,0.0,0.0,0.0,0.0,0.0,0.0,0.0,0.0,0.0,0.0,0.0,0.0,0.0,0.0,0.0,0.0,0.0,0.0,0.0,0.0,0.0,0.0,0.0,0.0,0.0,0.0,0.0,0.0,0.0,0.0,0.0,0.0,0.0,0.0,0.0,0.0,0.0,0.0,0.0,0.0,0.0,0.0,0.0,0.0,0.0,0.0,0.0,0.0,0.0,0.0,0.0,0.0,0.0,0.0,0.0,0.0,0.0,0.0,0.0,0.0,0.0,0.0,0.0,0.0,0.0,0.0,0.0,0.0,0.0,0.0,0.0,0.0,0.0,0.0,0.0,0.0,0.0,0.0,0.0,0.0,0.0,0.0,0.0,0.0,0.0,0.0,0.0,0.0,0.0,0.0,0.0,0.0,0.0,0.0,0.0,0.0,0.0,0.0,0.0,0.0,0.0,0.0,0.0,0.0,0.0,0.0,0.0,0.0,0.0,0.0,0.0,0.0,0.0,0.0,0.0,0.0,0.0,0.0,0.0,0.0,0.0,0.0,0.0,0.0,0.0,0.0,0.0,0.0,0.0,0.0,0.0,0.0,0.0,0.0,0.0,0.0,0.0,0.0,0.0,0.0,0.0,0.0,0.0,0.0,0.0,0.0,0.0,0.0,0.0,0.0,0.0,0.0,0.0,0.0,0.0,0.0,0.0,0.0,0.0,0.0,0.0,0.0,0.0,0.0,0.0,0.0,0.0,0.0,0.0,0.0,0.0,0.0,0.0,0.0,0.0,0.0,0.0,0.0,0.0,0.0,0.0,0.0,0.0,0.0,0.0,0.0,0.0,0.0,0.0,0.0,0.0,0.0,0.0,0.0,0.0,0.0,0.0,0.0,0.0,0.0,0.0,0.0,0.0,0.0,0.0,0.0,0.0,0.0,0.0,0.0,0.0,0.0,0.0,0.0,0.0,0.0,0.0,0.0,0.0,0.0,0.0,0.0,0.0,0.0,0.0,0.0,0.0,0.0,0.0,0.0,0.0,0.0,0.0,0.0,0.0,0.0,0.0,0.0,0.0,0.0,0.0,0.0,0.0,0.0,0.0,0.0,0.0,0.0,0.0,0.0,0.0,0.0,0.0,0.0,0.0,0.0,0.0,0.0,0.0,0.0,0.0,0.0,0.0,0.0,0.0,0.0,0.0,0.0,0.0,0.0,0.0,0.0,0.0,0.0,0.0,0.0,0.0,0.0,0.0,0.0,0.0,0.0,0.0,0.0,0.0,0.0,0.0,0.0,0.0,0.0,0.0,0.0,0.0,0.0,0.0,0.0,0.0,0.0,0.0,0.0,0.0,0.0,0.0,0.0,0.0,0.0,0.0,0.0,0.0,0.0,0.0,0.0,0.0,0.0,0.0,0.0,0.0,0.0,0.0,0.0,0.0,0.0,0.0,0.0,0.0,0.0,0.0,0.0,0.0,0.0,0.0,0.0,0.0,0.0,0.0,0.0,0.0,0.0,0.0,0.0,0.0,0.0,0.0,0.0,0.0,0.0,0.0,0.0,0.0,0.0,0.0,0.0,0.0,0.0,0.0,0.0,0.0,0.0,0.0,0.0,0.0,0.0,0.0,0.0,0.0,0.0,0.0,0.0,0.0,0.0,0.0,0.0,0.0,0.0,0.0,0.0,0.0,0.0,0.0,0.0,0.0,0.0,0.0,0.0,0.0,0.0,0.0,0.0,0.0,0.0,0.0,0.0,0.0,0.0,0.0,0.0,0.0,0.0,0.0,0.0,0.0,0.0,0.0,0.0,0.0,0.0,0.0,0.0,0.0,0.0,0.0,0.0,0.0,0.0,0.0,0.0,0.0,0.0,0.0,0.0,0.0,0.0,0.0,0.0,0.0,0.0,0.0,0.0,0.0,0.0,0.0,0.0,0.0,0.0,0.0,0.0,0.0,0.0,0.0,0.0,0.0,0.0,0.0,0.0,0.0,0.0,0.0,0.0,0.0,0.0,0.0,0.0,0.0,0.0,0.0,0.0,0.0,0.0,0.0,0.0,0.0,0.0,0.0,0.0,0.0,0.0,0.0,0.0,0.0,0.0,0.0,0.0,0.0,0.0,0.0,0.0,0.0,0.0,0.0,0.0,0.0,0.0,0.0,0.0,0.0,0.0,0.0,0.0,0.0,0.0,0.0,0.0,0.0,0.0,0.0,0.0,0.0,0.0,0.0,0.0,0.0,0.0,0.0,0.0,0.0,0.0,0.0,0.0,0.0,0.0,0.0,0.0,0.0,0.0,0.0,0.0,0.0,0.0,0.0,0.0,0.0,0.0,0.0,0.0,0.0,0.0,0.0,0.0,0.0,0.0,0.0,0.0,0.0,0.0,0.0,0.0,0.0,0.0,0.0,0.0,0.0,0.0,0.0,0.0,0.0,0.0,0.0,0.0,0.0,0.0,0.0,0.0,0.0,0.0,0.0,0.0,0.0,0.0,0.0,0.0,0.0,0.0,0.0,0.0,0.0,0.0,0.0,0.0,0.0,0.0,0.0,0.0,0.0,0.0,0.0,0.0,0.0,0.0,0.0,0.0,0.0,0.0,0.0,0.0,0.0,0.0,0.0,0.0,0.0,0.0,0.0,0.0,0.0,0.0,0.0,0.0,0.0,0.0,0.0,0.0,0.0,0.0,0.0,0.0,0.0,0.0,0.0,0.0,0.0,0.0,0.0,0.0,0.0,0.0,0.0,0.0,0.0,0.0,0.0,0.0,0.0,0.0,0.0,0.0,0.0,0.0,0.0,0.0,0.0,0.0,0.0,0.0,0.0,0.0,0.0,0.0,0.0,0.0,0.0,0.0,0.0,0.0,0.0,0.0,0.0,0.0,0.0,0.0,0.0,0.0,0.0,0.0,0.0,0.0,0.0,0.0,0.0,0.0,0.0,0.0,0.0,0.0,0.0,0.0,0.0,0.0,0.0,0.0,0.0,0.0,0.0,0.0,0.0,0.0,0.0,0.0,0.0,0.0,0.0,0.0,0.0,0.0,0.0,0.0,0.0,0.0,0.0,0.0,0.0,0.0,0.0,0.0,0.0,0.0,0.0,0.0,0.0,0.0,0.0,0.0,0.0,0.0,0.0,0.0,0.0,0.0,0.0,0.0,0.0,0.0,0.0,0.0,0.0,0.0,0.0,0.0,0.0,0.0,0.0,0.0,0.0,0.0,0.0,0.0,0.0,0.0,0.0,0.0,0.0,0.0,0.0,0.0,0.0,0.0,0.0,0.0,0.0,0.0,0.0,0.0,0.0,0.0,0.0,0.0,0.0,0.0,0.0,0.0,0.0,0.0,0.0,0.0,0.0,0.0,0.0,0.0,0.0,0.0,0.0,0.0,0.0,0.0,0.0,0.0,0.0,0.0,0.0,0.0,0.0,0.0,0.0,0.0,0.0,0.0,0.0,0.0,0.0,0.0,0.0,0.0,0.0,0.0,0.0,0.0,0.0,0.0,0.0,0.0,0.0,0.0,0.0,0.0,0.0,0.0,0.0,0.0,0.0,0.0,0.0,0.0,0.0,0.0,0.0,0.0,0.0,0.0,0.0,0.0,0.0,0.0,0.0,0.0,0.0,0.0,0.0,0.0,0.0,0.0,0.0,0.0,0.0,0.0,0.0,0.0,0.0,0.0,0.0,0.0,0.0,0.0,0.0,0.0,0.0,0.0,0.0,0.0,0.0,0.0,0.0,0.0,0.0,0.0,0.0,0.0,0.0,0.0,0.0,0.0,0.0,0.0,0.0,0.0,0.0,0.0,0.0,0.0,0.0,0.0,0.0,0.0,0.0,0.0,0.0,0.0,0.0,0.0,0.0,0.0,0.0,0.0,0.0,0.0,0.0,0.0,0.0,0.0,0.0,0.0,0.0,0.0,0.0,0.0,0.0,0.0,0.0,0.0,0.0,0.0,0.0,0.0,0.0,0.0,0.0,0.0,0.0,0.0,0.0,0.0,0.0,0.0,0.0,0.0,0.0,0.0,0.0,0.0,0.0,0.0,0.0,0.0,0.0,0.0,0.0,0.0,0.0,0.0,0.0,0.0,0.0,0.0,0.0,0.0,0.0,0.0,0.0,0.0,0.0,0.0,0.0,0.0,0.0,0.0,0.0,0.0,0.0,0.0,0.0,0.0,-2.5626,0.0,0.0,0.0,0.0,0.0,0.0,0.0,0.0,0.0,0.0,0.0,0.0,0.0,0.0,0.0,0.0,0.0,0.0,0.0,0.0,0.0,0.0,0.0,0.0,0.0,0.0,0.0,0.0,0.0,0.0,0.0,0.0,0.0,0.0,0.0,0.0,0.0,0.0,2.0223,1.9901,2.0134,2.0803,2.0581,2.0458,2.0573,0.0,0.0,0.0,0.0,0.0,0.0,0.0,0.0,0.0,0.0,0.0,0.0,0.0,0.0,0.0,0.0,0.0,0.0,0.0,0.0,0.0,0.0,0.0,0.0,0.0,0.0,0.0,0.0,0.0,0.0,0.0,0.0,0.0,0.0,0.0,0.0,0.0,0.0,0.0,0.0,0.0,0.0,0.0,0.0,0.0,0.0,0.0,0.0,0.0,0.0,0.0,0.0,0.0,0.0,0.0,0.0,0.0,0.0,0.0,0.0,0.0,0.0,0.0,0.0,0.0,0.0,0.0,0.0,0.0,0.0,0.0,-2.7301,0.0,0.0,0.0,0.0,0.0,0.0,0.0,0.0,0.0,0.0,0.0,0.0,0.0,0.0,0.0,0.0,0.0,0.0,0.0,0.0,0.0,0.0,0.0,2.1671,2.1518,2.0536,2.0884,2.0999,0.0,0.0,0.0,0.0,0.0,0.0,0.0,2.1434,2.1273,2.0832,2.0626,2.1073,2.2196,2.322,2.3477,2.302,2.3859,0.0,0.0,0.0,0.0,0.0,0.0,0.0,0.0,0.0,0.0,0.0,0.0,0.0,0.0,0.0,0.0,0.0,0.0,0.0,0.0,0.0,0.0,0.0,0.0,0.0,0.0,0.0,0.0,0.0,0.0,0.0,0.0,0.0,0.0,0.0,0.0,0.0,0.0,0.0,0.0,0.0,0.0,0.0,0.0,0.0,0.0,0.0,0.0,0.0,0.0,0.0,0.0,0.0,0.0,0.0,0.0,0.0,0.0,0.0,0.0,0.0,0.0,0.0,-2.7133,-2.9319,-3.0579,-3.2848,-3.326,-3.2148,-3.0931,-2.8733,-2.6161,-2.8402,0.0,0.0,0.0,0.0,0.0,0.0,0.0,0.0,0.0,0.0,0.0,0.0,0.0,0.0,0.0,0.0,0.0,0.0,0.0,0.0,0.0,2.303,2.4029,2.3377,2.3598,2.3164,2.164,0.0,0.0,0.0,0.0,0.0,2.2323,2.2577,2.2305,2.1486,2.1744,2.2343,2.3194,2.4728,2.5648,2.5824,2.5507,2.5383,2.5164,0.0,0.0,0.0,0.0,0.0,0.0,0.0,0.0,0.0,0.0,0.0,0.0,0.0,0.0,0.0,0.0,0.0,0.0,0.0,0.0,0.0,0.0,0.0,0.0,0.0,0.0,0.0,0.0,0.0,0.0,0.0,0.0,0.0,0.0,0.0,0.0,0.0,0.0,0.0,0.0,0.0,-0.6423,-0.7204,0.0,0.0,0.0,0.0,0.0,0.0,0.0,0.0,0.0,0.0,0.0,0.0,0.0,-1.8115,-2.26,-2.2844,-2.4124,-2.655,-2.9105,-3.0761,-3.1559,-3.3999,-3.4743,-3.4126,-3.3896,0.0,-2.9001,-2.7812,0.0,0.0,0.0,0.0,0.0,0.0,0.0,0.0,0.0,0.0,0.0,0.0,0.0,0.0,0.0,0.0,0.0,0.0,0.0,0.0,0.0,2.444,2.5457,2.6022,2.5198,2.4067,2.265,2.1948,0.0,0.0,0.0,2.2641,2.2466,2.2831,2.2679,2.1888,2.2394,2.3171,2.4269,2.5011,2.6185,2.7767,2.7178,2.6672,2.5788,2.2567,0.0,0.0,0.0,0.0,0.0,0.0,0.0,0.0,0.0,0.0,0.0,0.0,0.0,0.0,0.0,0.0,0.0,0.0,0.0,0.0,0.0,0.0,0.0,0.0,0.0,0.0,0.0,0.0,0.0,0.0,0.0,0.0,0.0,0.0,0.0,0.0,0.0,0.0,0.0,-0.3582,-0.4378,-0.6198,-0.6641,-0.7442,0.0,0.0,0.0,0.0,0.0,0.0,0.0,0.0,0.0,-1.8536,-1.991,-2.1976,-2.4843,-2.582,-2.6927,-2.8295,-3.0521,-3.2043,-3.3124,-3.4966,-3.6067,-3.6344,-3.5437,-3.422,-3.2596,-3.0544,-2.9947,-3.0394,0.0,0.0,0.0,0.0,-3.1744,-3.1291,0.0,0.0,0.0,0.0,0.0,0.0,0.0,0.0,0.0,0.0,0.0,0.0,2.4233,2.5226,2.6201,2.7116,2.5878,2.4378,2.2814,2.1383,2.0768,2.1277,2.1372,2.1713,2.2162,2.2839,2.3099,2.2911,2.3296,2.4109,2.5235,2.5516,2.671,2.8774,2.8607,2.8063,2.7043,2.3687,2.1626,2.0539,0.0,0.0,0.0,0.0,0.0,0.0,0.0,0.0,0.0,0.0,0.0,0.0,0.0,0.0,0.0,0.0,0.0,0.0,0.0,0.0,0.0,0.0,0.0,0.0,0.0,0.0,0.0,0.0,0.0,0.0,0.0,0.0,0.0,0.0,0.0,0.0,0.0,-0.2107,-0.3364,-0.6048,-0.6768,-0.7807,0.0,0.0,0.0,0.0,0.0,0.0,-1.5944,-1.7422,-1.9391,-2.2231,-2.3758,-2.5566,-2.7844,-2.8985,-2.9963,-3.1077,-3.2787,-3.4146,-3.5331,-3.6575,-3.7444,-3.7867,-3.6776,-3.6034,-3.5263,-3.2943,-3.1436,-3.0701,-3.1622,-3.173,-3.1397,-3.1602,-3.1524,-3.1259,0.0,0.0,0.0,0.0,0.0,0.0,0.0,0.0,0.0,0.0,0.0,2.2192,2.2963,2.5277,2.6402,2.5432,2.5258,2.4185,2.1714,2.0935,2.0647,2.0633,2.0395,2.0699,2.1715,2.2826,2.4009,2.4887,2.4599,2.4933,2.5993,2.7116,2.7989,2.8614,2.9235,2.9806,2.991,2.536,2.2984,2.1502,1.6212,0.0,0.0,0.0,0.0,0.0,0.0,0.0,0.0,0.0,0.0,0.0,0.0,0.0,0.0,0.0,0.0,0.0,0.0,0.0,0.0,0.0,0.0,0.0,0.0,0.0,0.0,0.0,0.0,0.0,0.0,0.0,0.0,0.0,0.0,0.0,0.0,0.0,0.0,-0.6959,-0.8675,0.0,0.0,0.0,0.0,-1.4692,-1.601,-1.7592,-1.9258,-1.9876,-2.2012,-2.5862,-2.5878,-2.8062,-3.2649,-3.2154,-3.3298,-3.5916,-3.6601,-3.7541,-3.8551,-3.9253,-3.8963,-3.8058,-3.8237,-3.7517,-3.5868,-3.3318,-3.2782,-3.3643,-3.3398,-3.2982,-3.2496,-3.1938,-3.1424,-3.0767,0.0,0.0,0.0,0.0,0.0,0.0,0.0,0.0,1.9423,1.8383,2.0028,2.1851,2.3644,2.5147,2.6426,2.7416,2.6845,2.5324,2.2521,2.1119,2.0085,1.9217,1.9849,2.1263,2.3469,2.4024,2.4254,2.4379,2.4405,2.4317,2.3942,2.4531,2.5411,2.6594,2.6847,2.7162,2.7537,2.458,2.2277,2.0332,1.7484,1.4789,0.0,0.0,0.0,0.0,0.0,0.0,0.0,0.0,0.0,0.0,0.0,0.0,0.0,0.0,0.0,0.0,0.0,0.0,0.0,0.0,0.0,0.0,0.0,0.0,0.0,0.0,0.0,0.0,0.0,0.0,0.0,0.0,0.0,0.0,0.0,0.0,0.0,-0.887,-1.1263,0.0,-1.353,-1.5012,-1.6147,-1.6513,-1.8632,-2.053,-2.1624,-2.3666,-2.6057,-2.9031,-3.0373,-3.235,-3.5268,-3.56,-3.6226,-3.733,-3.7455,-3.8013,-3.8722,-3.8971,-3.902,-3.9043,-3.8998,-3.8564,-3.778,-3.6628,-3.5625,-3.464,-3.3529,-3.3048,-3.2768,-3.2203,-3.2063,-3.2179,0.0,0.0,0.0,0.0,0.0,0.0,0.0,0.0,2.1197,1.997,2.1048,2.248,2.397,2.5377,2.6883,2.8727,2.7904,2.6294,2.4237,2.2038,2.0396,1.9287,2.048,2.229,2.4759,2.5327,2.5479,2.5047,2.5168,2.4424,2.2846,2.3132,2.3117,2.2968,2.2933,2.2306,2.122,1.9472,1.9246,1.9699,1.5542,1.1909,0.8535,0.0,0.0,0.0,0.0,0.0,0.0,0.0,0.0,0.0,0.0,0.0,0.0,0.0,0.0,0.0,0.0,0.0,0.0,0.0,0.0,0.0,0.0,0.0,0.0,0.0,0.0,0.0,0.0,0.0,0.0,0.0,0.0,0.0,0.0,0.0,-1.056,-1.2191,-1.4526,-1.6172,-1.657,-1.8007,-1.9179,-1.9794,-2.1876,-2.3771,-2.5198,-2.7364,-2.968,-3.2235,-3.3959,-3.5654,-3.752,-3.8175,-3.8718,-3.9108,-3.8942,-3.9165,-3.969,-3.9213,-3.9253,-3.9695,-3.9661,-3.9619,-3.9463,-3.9208,-3.8014,-3.6309,-3.4703,-3.3669,-3.2915,-3.2464,-3.2508,-3.2685,0.0,0.0,0.0,0.0,0.0,0.0,0.0,2.317,2.3497,2.2445,2.3482,2.4242,2.3843,2.608,2.8091,2.9055,2.8254,2.7505,2.6706,2.3582,2.1506,2.0953,2.2301,2.3794,2.547,2.7026,2.7677,2.7357,2.6967,2.5478,2.2917,2.2905,2.1202,1.8011,1.7653,1.5199,1.126,1.004,1.35,1.9115,1.0137,0.4439,0.0966,0.0,0.0,0.0,0.0,0.0,0.0,0.0,0.0,0.0,0.0,0.0,0.0,0.0,0.0,0.0,0.0,0.0,0.0,0.0,0.0,0.0,0.0,0.0,0.0,0.0,0.0,0.0,0.0,0.0,0.0,0.0,0.0,0.0,-1.0681,-1.2417,-1.4632,-1.6942,-1.8542,-1.9378,-1.9206,-2.1656,-2.3551,-2.4564,-2.5823,-2.7518,-2.9923,-3.081,-3.2615,-3.5402,-3.6258,-3.7565,-3.9657,-3.9916,-4.0599,-4.1668,-4.1146,-4.1171,-4.1668,-4.0317,-3.9744,-4.005,-4.0403,-4.073,-4.0873,-4.0646,-3.9841,-3.8683,-3.6908,-3.4947,-3.2942,-3.2942,-3.2508,-3.2064,0.0,0.0,0.0,0.0,0.0,0.0,0.0,2.4416,2.4825,2.3853,2.5093,2.6251,2.7217,2.9101,3.0897,3.2565,3.1757,3.0528,2.8883,2.5646,2.37,2.3365,2.5577,2.7543,2.8901,2.9165,2.7916,2.5133,2.3794,2.0968,1.6853,1.619,1.3804,1.04,0.9249,0.7193,0.4252,0.2842,0.2001,0.1459,0.2778,0.0908,-0.3179,0.0,0.0,0.0,0.0,0.0,0.0,0.0,0.0,0.0,0.0,0.0,0.0,0.0,0.0,0.0,0.0,0.0,0.0,0.0,0.0,0.0,0.0,0.0,0.0,0.0,0.0,0.0,0.0,0.0,0.0,0.0,0.0,-1.7308,-1.5623,-1.8955,-2.2037,-2.3399,-2.5235,-2.6312,-2.5961,-2.6777,-2.7506,-2.7802,-2.8991,-3.0406,-3.2407,-3.3309,-3.5185,-3.8078,-3.8335,-3.9175,-4.0739,-4.1506,-4.1692,-4.1274,-4.1805,-4.1805,-4.1274,-4.0925,-4.0967,-4.1144,-4.1114,-4.1274,-4.142,-4.0796,-3.9841,-3.8647,-3.6955,-3.5364,-3.3965,-3.3098,-3.3183,-3.3849,0.0,0.0,0.0,0.0,0.0,0.0,0.0,2.5759,2.6337,2.5148,2.6839,2.839,2.9002,3.1058,3.3211,3.496,3.4065,3.2875,3.1407,2.8074,2.6234,2.6372,2.8782,3.0606,3.185,3.0623,2.7923,2.4078,2.1689,1.7548,1.1928,1.0487,0.7621,0.3533,0.1909,-0.0945,-0.4686,-0.5237,-0.8131,-1.1963,-0.8568,-0.8806,-1.1446,-1.4025,-1.5297,-1.5857,-1.6235,-1.6135,-1.5688,-1.543,0.0,0.0,0.0,0.0,0.0,0.0,0.0,0.0,0.0,0.0,0.0,0.0,0.0,0.0,0.0,0.0,0.0,0.0,0.0,0.0,0.0,0.0,0.0,0.0,-2.0401,-2.3591,-2.3904,-2.5692,-2.7294,-2.814,-2.9257,-2.995,-2.9664,-3.0118,-3.0554,-3.0554,-3.1606,-3.2952,-3.4565,-3.5562,-3.7166,-3.9451,-4.0036,-4.0755,-4.1948,-4.2625,-4.2824,-4.2287,-4.2824,-4.2625,-4.1745,-4.1516,-4.1516,0.0,-4.1742,-4.1954,-4.2213,-4.1447,-4.0508,0.0,0.0,0.0,0.0,0.0,-3.458,-3.5223,0.0,0.0,0.0,0.0,0.0,0.0,0.0,2.7201,2.7826,2.6356,2.8783,3.0509,2.9947,3.2673,3.517,3.6788,3.5718,3.4362,3.3292,3.0547,2.9268,2.983,3.1795,3.3206,3.3964,3.1479,2.8047,2.371,1.9639,1.4287,0.7638,0.5403,0.1836,-0.2795,-0.4757,-0.8612,-1.3807,-1.3346,-1.6392,-2.1345,-2.0796,-2.0707,-2.1018,-2.0028,-1.9292,-1.8865,-2.0743,-1.9398,-1.6726,-1.7118,0.0,0.0,0.0,0.0,0.0,0.0,0.0,0.0,0.0,0.0,0.0,0.0,0.0,0.0,0.0,0.0,0.0,0.0,0.0,0.0,0.0,0.0,0.0,0.0,-2.5196,-2.987,-3.3066,-3.2302,-3.1549,-3.1876,-3.1911,-3.1755,-3.1755,-3.2512,-3.31,-3.3215,-3.4042,-3.5315,-3.7,0.0,0.0,0.0,0.0,-4.211,-4.2712,-4.3492,-4.3713,-4.3492,-4.3687,-4.327,-4.2312,-4.1834,-4.172,-4.211,-4.2425,-4.2625,-4.2936,-4.2384,-4.1533,-4.0289,-3.8491,-3.712,-3.6185,-3.6185,-3.6294,-3.6294,0.0,0.0,0.0,0.0,0.0,0.0,0.0,2.8003,2.8261,2.7741,3.0472,3.2511,3.2802,3.5325,3.7788,3.9849,3.7054,3.3991,3.1309,3.1973,3.2575,3.3049,3.4984,3.5584,3.451,3.0919,2.7554,2.428,1.591,0.8844,0.3138,-0.1387,-0.5143,-0.8597,-1.1121,-1.4541,-1.8142,-1.7891,-2.0179,-2.3835,-2.3604,-2.3931,-2.4495,-2.2941,-2.2978,-2.3748,-2.1432,-2.0523,-2.0021,-1.7806,-1.7032,-1.6701,-1.512,-1.4126,0.0,0.0,0.0,0.0,0.0,0.0,0.0,0.0,0.0,0.0,0.0,0.0,0.0,0.0,0.0,0.0,0.0,0.0,0.0,-2.6189,-3.0245,-3.3591,-3.6166,-3.6739,-3.677,-3.6253,-3.5908,-3.5697,-3.5697,-3.547,-3.5992,-3.7269,-3.7253,-3.8231,-4.0449,-4.082,-4.1259,-4.1655,-4.2274,-4.2414,-4.1834,-4.3381,-4.3381,-4.172,0.0,0.0,-4.1402,-4.1492,-4.172,-4.211,-4.2425,-4.2625,-4.2936,-4.2384,-4.1773,-4.0839,-3.8185,-3.6772,-3.6185,-3.6185,-3.6619,-3.7287,0.0,0.0,0.0,0.0,0.0,0.0,0.0,2.8612,2.8633,2.8207,3.0663,3.2706,3.3112,3.584,3.8026,3.8909,3.61,3.3526,3.1727,3.2977,3.4492,3.5952,3.7351,3.6764,3.418,3.0055,2.5139,1.9293,1.3203,0.6709,-0.0532,-0.422,-0.7818,-1.1306,-1.3789,-1.6676,-1.9582,-2.0165,-2.236,-2.5165,-2.567,-2.6061,-2.6414,-2.5296,-2.5073,-2.5085,-2.2123,-2.016,-1.8726,-1.6306,-1.5489,-1.5286,-1.4272,-1.37,-1.3317,0.0,0.0,0.0,0.0,0.0,0.0,0.0,0.0,0.0,0.0,0.0,0.0,0.0,0.0,-1.6346,-1.8998,0.0,-2.7041,-3.0437,-3.3647,-3.6124,-3.7773,-3.8301,-3.8418,-3.7988,-3.7363,-3.6894,-3.6699,-3.6094,-3.639,-3.7796,-3.7485,-3.8494,-4.1304,-4.1519,-4.2014,-4.296,-4.3367,-4.3836,-4.4418,-4.4668,-4.4316,-4.3675,-4.3979,-4.3262,-4.1402,-4.2281,-4.2634,-4.2528,-4.3233,-4.3676,-4.3765,-4.3212,-4.2484,-4.1597,-4.0488,-3.9634,-3.9087,-3.8526,-3.8951,-3.9674,0.0,0.0,0.0,0.0,0.0,0.0,0.0,2.9223,2.9246,2.8582,3.0665,3.2367,3.2814,3.5445,3.6873,3.6279,3.4567,3.3347,3.2758,3.3587,3.5271,3.7913,3.7994,3.6467,3.297,2.8469,2.215,1.4082,1.1009,0.4974,-0.3547,-0.5802,-0.8865,-1.2538,-1.4652,-1.7173,-1.9735,-2.1007,-2.2793,-2.5041,-2.544,-2.5949,-2.6239,-2.5711,-2.5232,-2.4596,-2.2496,-1.9107,-1.5457,-1.4156,-1.2994,-1.2234,-1.2247,-1.189,-1.1703,-1.2208,-1.088,0.0,0.0,0.0,0.0,0.0,0.0,0.0,0.0,-1.4634,-1.4631,-1.5785,-1.9305,-2.2673,-2.4128,-2.8432,-3.215,-3.3768,-3.5883,-3.7611,-3.8359,-3.8457,-3.8398,-3.8223,-3.7676,-3.7129,-3.6719,-3.5898,-3.6082,-3.7615,-3.7359,-3.8508,-4.1897,-4.211,-4.2744,-4.3966,-4.4386,-4.5309,-4.6619,-4.5757,-4.5411,-4.5578,-4.4967,-4.3796,-4.2062,-4.3198,-4.3487,-4.3094,-4.4095,-4.4452,-4.4418,-4.3991,-4.3325,-4.2721,-4.2946,-4.2969,-4.2778,-4.131,-4.1354,-4.1901,0.0,0.0,0.0,0.0,0.0,0.0,0.0,0.0,3.0262,2.9664,3.124,3.2629,3.3054,3.4703,3.4963,3.305,3.4039,3.4319,3.2778,3.3719,3.5349,3.757,3.5713,3.3253,3.0451,2.5506,2.0019,1.4055,0.8424,0.174,-0.6007,-0.8281,-1.0779,-1.3271,-1.4899,-1.685,-1.8779,-1.942,-2.0716,-2.2178,-2.0642,-2.1082,-2.2263,-2.1243,-2.1907,-2.3247,-2.1779,-1.739,-1.2292,-1.2677,-1.09,-0.8783,-0.9424,-0.8519,-0.7406,-0.8896,-0.7619,-0.5985,-0.7558,-0.8955,-1.0131,-1.123,-1.2937,-1.5002,0.0,-1.8986,-1.9978,-2.2751,-2.4435,-2.6324,-2.9367,-3.1296,-3.326,-3.5933,-3.7278,-3.7904,-3.8047,-3.7988,-3.7715,-3.6973,-3.7129,-3.7129,-3.6719,-3.5898,-3.6476,-3.925,-3.941,-4.0716,-4.4028,-4.4761,-4.4928,-4.4543,-4.5573,-4.5529,-4.4527,-4.5563,-4.5396,-4.3912,-4.4709,-4.4427,-4.3487,-4.3634,-4.3684,-4.3634,-4.4036,-4.4136,-4.389,-4.3815,-4.4087,-4.4323,-4.3424,-4.4177,-4.5559,-4.296,-4.1954,-4.1748,0.0,0.0,0.0,0.0,0.0,0.0,0.0,0.0,0.0,3.0009,3.1295,3.2156,3.1879,3.2558,3.2229,3.043,3.0887,3.1374,3.1761,3.2289,3.3631,3.5884,3.4481,3.1507,2.68,2.3879,1.8506,1.0904,0.7501,0.277,-0.3101,-0.6353,-0.8556,-1.0058,-1.2173,-1.3638,-1.447,-1.5679,-1.6605,-1.7412,-1.877,-1.7439,-1.4423,-1.4033,-1.2127,-1.0252,-1.3948,-1.1818,0.0,-0.6336,-0.5114,-0.3957,-0.4687,-0.4177,-0.3748,-0.505,-0.4976,-0.4693,-0.6279,-0.6664,-0.7364,-1.0837,-1.3048,-1.5499,-2.0179,-2.2017,-2.3765,-2.7403,-2.9224,-3.0821,-3.3218,-3.439,-3.5447,-3.6815,-3.7402,-3.7711,-3.7662,-3.7144,-3.6601,-3.5996,-3.5625,-3.5449,-3.5508,-3.498,-3.5916,-3.9031,-3.9276,-4.0847,-4.4361,-4.5472,-4.5849,-4.5623,-4.6677,-4.7248,-4.7487,-4.7358,-4.6882,-4.6229,-4.6018,-4.5335,-4.3943,-4.4611,-4.4734,-4.4438,-4.4878,-4.507,-4.5155,-4.5602,-4.6186,-4.6732,-4.6301,-4.6625,-4.7151,-4.4273,-4.3264,-4.3318,0.0,0.0,0.0,0.0,0.0,0.0,0.0,0.0,0.0,0.0,3.127,3.1589,3.0697,3.0354,2.9579,2.8147,2.7788,2.8329,2.9828,2.9949,3.0952,3.3482,3.2201,2.9152,2.3867,2.2256,1.7203,0.8415,0.76,0.4287,-0.0859,-0.3569,-0.5617,-0.7056,-0.8946,-0.9928,-1.0187,-1.154,-1.1794,-1.1611,-1.3247,-1.1021,-0.6513,-0.5246,-0.2466,0.0149,-0.6239,-0.559,-0.134,0.0913,0.1407,0.1012,0.0386,0.0254,0.0123,-0.1419,-0.2278,-0.2985,-0.4104,-0.4415,-0.5395,-0.9929,-1.3358,-1.7035,-2.2493,-2.5731,-2.8381,-3.1929,-3.3003,-3.3767,-3.5406,-3.5686,-3.6018,-3.6915,-3.7086,-3.7105,-3.7016,-3.6249,-3.541,-3.4746,-3.3906,-3.3496,-3.3789,-3.3867,-3.5224,-3.8497,-3.9129,-4.0847,-4.4703,-4.5924,-4.6602,-4.6874,-4.778,-4.868,-4.9629,-4.8804,-4.837,-4.8236,-4.7496,-4.6409,-4.5017,-4.5519,-4.5619,-4.5246,-4.598,-4.6289,-4.6404,-4.7389,-4.8127,-4.8786,-4.8706,-4.8921,-4.8913,-4.6447,-4.5356,-4.4974,0.0,0.0,0.0,0.0,0.0,0.0,0.0,0.0,0.0,0.0,0.0,0.0,0.0,2.8517,2.7217,2.5792,2.586,2.6231,2.6877,2.6516,2.7704,3.0543,2.8002,2.51,2.218,2.0547,1.5996,0.8494,0.8307,0.5195,-0.0672,-0.0831,-0.2505,-0.5439,-0.5544,-0.6053,-0.6782,-0.7368,-0.6483,-0.4641,-0.1321,0.0163,0.0794,0.4978,0.5314,0.3176,-0.0827,0.0529,0.4847,0.8125,0.8026,0.6147,0.5245,0.5061,0.4691,0.177,0.0454,-0.0221,-0.0811,-0.279,-0.5231,-0.7631,-1.3941,-2.0816,-2.5534,-3.0421,-3.4613,-3.6783,-3.5541,-3.4351,-3.5887,-3.4394,-3.3546,-3.5905,-3.619,-3.6169,-3.6054,-3.5312,-3.4277,-3.3027,-3.2109,-3.1601,0.0,-3.2715,-3.4777,-3.8007,-3.9241,-4.1481,-4.5304,-4.6502,-4.7478,-4.8379,-4.8962,-4.9138,-4.8974,-4.9486,-4.9336,-4.8528,-4.8429,-4.8002,-4.7029,-4.6163,-4.5817,-4.5793,-4.7036,-4.738,-4.7319,-4.8561,-4.9336,-4.9848,-4.982,-5.0549,-5.1396,-5.0181,-4.8277,-4.6238,0.0,0.0,0.0,0.0,0.0,0.0,0.0,0.0,0.0,0.0,0.0,0.0,0.0,0.0,0.0,0.0,2.23,2.2611,2.3477,2.3667,2.4301,2.5198,2.5167,2.3402,1.9499,1.9048,1.5373,0.8219,0.809,0.5718,0.1463,-0.0,-0.0333,0.0336,-0.1172,-0.1008,0.0508,0.1501,0.2329,0.3338,0.6598,0.9012,1.1113,1.3937,1.46,1.3488,0.0,0.8373,0.807,0.9051,0.8742,0.779,0.7387,0.7269,0.6821,0.4939,0.4115,0.336,0.1649,0.0127,-0.2605,-0.9092,-1.6044,-2.3154,-2.9701,-3.4443,-3.7759,-3.8354,-3.5906,-3.3332,-3.3062,-3.2076,-3.1762,-3.3237,-3.449,-3.5333,-3.5606,-3.4887,-3.3711,-3.2129,-3.1699,0.0,0.0,0.0,0.0,-3.8134,-4.0352,-4.2807,-4.5855,-4.7677,-4.8685,-4.9013,-4.9798,-5.0103,-5.005,-5.0229,-5.0024,-4.9362,-4.835,-4.7471,-4.6577,-4.6806,-4.6831,-4.6499,-4.8116,-4.8959,-4.9447,-5.1033,-5.2186,-5.3085,-5.3231,-5.2923,-5.2405,-5.1242,-4.9681,-4.8056,0.0,0.0,0.0,0.0,0.0,0.0,0.0,0.0,0.0,0.0,0.0,0.0,0.0,0.0,0.0,0.0,0.0,2.0516,2.1334,2.1325,2.1584,2.2129,2.243,2.0971,1.7641,1.735,1.4486,0.8871,0.831,0.6601,0.3869,0.204,0.24,0.4418,0.2602,0.3278,0.6155,0.7936,0.9302,1.0566,1.3679,1.584,1.7215,1.8893,1.8778,0.0,1.4866,1.2323,1.0176,1.0236,0.9308,0.8269,0.8574,0.8255,0.7551,0.6562,0.5746,0.4742,0.2727,0.0134,-0.3771,-1.1115,-1.8862,-2.6471,-3.2835,-3.6645,-3.8883,-3.8885,-3.4852,-3.1371,-3.096,-2.9369,-2.8631,-3.031,-3.1851,-3.3236,-3.4107,-3.3676,-3.2871,-3.2191,-3.1801,-3.1544,0.0,0.0,0.0,-3.8371,-4.1466,-4.4305,-4.6673,-4.8658,-4.9824,-4.995,-5.0535,-5.0842,-5.0968,-5.0968,-5.0913,-5.0897,-4.9689,-4.8911,-4.8551,-4.8811,-4.8594,-4.8065,-4.9599,-5.0437,-5.1005,-5.302,-5.4244,-5.4815,-5.5631,-5.4934,-5.3535,-5.2891,-5.1832,-5.0323,0.0,0.0,0.0,0.0,0.0,0.0,0.0,0.0,0.0,0.0,0.0,0.0,0.0,0.0,0.0,0.0,0.0,0.0,2.0325,1.9418,1.9657,2.1177,1.962,1.8059,1.6702,1.5668,1.3486,1.0098,0.8905,0.7507,0.6062,0.4774,0.5197,0.698,0.5526,0.6833,1.0193,1.1874,1.4091,1.6673,1.9757,2.0349,1.9369,2.0089,1.8282,1.5376,1.4344,1.2746,1.1287,1.1785,1.001,0.7839,0.8939,0.8254,0.7102,0.6818,0.5681,0.4119,0.2543,-0.229,-0.8337,-1.372,-2.2213,-3.0404,-3.4714,-3.7172,-3.828,-3.8088,-3.2765,-2.8467,-2.9349,-2.6415,-2.4648,-2.7503,-2.8818,-3.0167,-3.1911,-3.197,-3.2113,-3.3228,-3.2376,-3.2056,-3.3115,-3.6317,0.0,-3.9117,0.0,-4.6044,-4.7694,-4.9643,-5.0792,-5.1172,-5.1172,-5.1272,-5.1596,-5.1596,-5.2068,-5.2971,-5.2111,-5.1971,-5.248,-5.1759,-5.0983,-5.0462,-5.1456,-5.1892,-5.2056,-5.4684,-5.5351,-5.5048,-5.6984,-5.6434,-5.4726,-5.526,-5.4654,-5.2924,0.0,0.0,0.0,0.0,0.0,0.0,0.0,0.0,0.0,0.0,0.0,0.0,0.0,0.0,0.0,0.0,0.0,0.0,1.8153,1.8835,1.9258,1.9252,1.8897,1.7966,1.6464,1.5062,1.2658,0.9398,0.7667,0.5881,0.4324,0.3214,0.4085,0.6477,0.6103,0.7956,1.1518,1.4196,1.6067,1.7347,2.0473,2.1958,2.2097,2.0952,1.9881,1.8557,1.6706,1.433,1.1863,1.1091,1.0004,0.9034,0.9469,0.918,0.8484,0.7522,0.6584,0.4991,0.1121,-0.312,-0.8448,-1.6621,-2.4528,-3.1442,-3.5504,-3.7391,-3.7624,-3.4652,-2.9617,-2.5303,-2.4211,-2.3213,-2.3294,-2.5375,-2.8534,-3.1138,-3.2625,-3.3973,-3.4487,-3.3466,-3.4167,-3.4584,-3.4161,-3.8211,0.0,0.0,-4.5256,-4.7879,-4.9796,-5.1434,-5.2052,-5.1767,-5.2022,-5.194,-5.1596,-5.1596,-5.1857,-5.2352,-5.1615,-5.1801,-5.2623,-5.2349,-5.2258,-5.2459,-5.3722,-5.4171,-5.4038,-5.5971,-5.6659,-5.6603,-5.7492,-5.6889,-5.55,-5.546,-5.4654,-5.3145,0.0,0.0,0.0,0.0,0.0,0.0,0.0,0.0,0.0,0.0,0.0,0.0,0.0,0.0,0.0,0.0,0.0,0.0,0.0,1.905,1.8738,1.7814,1.7387,1.652,1.5176,1.3372,1.1661,0.992,0.7503,0.5985,0.5148,0.3537,0.41,0.645,0.6248,0.8103,1.1539,1.4958,1.673,0.0,0.0,2.1124,2.0572,1.9433,1.8195,1.6755,1.5356,1.3314,1.1141,1.0425,0.9991,0.9754,0.9892,0.93,0.8463,0.749,0.5212,0.2222,-0.2212,-0.7723,-1.3771,-2.092,-2.7478,-3.2646,-3.4288,-3.4922,-3.4166,-3.0277,-2.628,-2.3051,-2.1426,-2.0825,-2.1341,-2.3816,-2.7038,-3.0043,-3.2596,-3.4502,-3.5511,-3.5221,-3.6053,-3.6869,-3.7315,-4.0884,-4.3808,0.0,-4.7757,-4.9742,-5.1176,-5.2362,-5.2828,-5.2256,-5.2358,-5.2197,-5.1596,-5.2456,-5.3132,-5.359,-5.3791,-5.4261,-5.5017,-5.4793,-5.436,-5.4157,0.0,-5.5083,-5.4815,-5.6715,-5.7267,-5.7019,-5.8028,-5.7205,-5.5728,-5.6085,-5.5361,-5.4142,0.0,0.0,0.0,0.0,0.0,0.0,0.0,0.0,0.0,0.0,0.0,0.0,0.0,0.0,0.0,0.0,0.0,0.0,0.0,0.0,1.8407,1.7191,1.6015,1.4878,1.3689,1.1752,1.0933,1.1142,0.8202,0.6947,0.7374,0.5072,0.4856,0.6345,0.6116,0.7622,1.0554,1.4116,1.5951,1.68,1.8947,1.8798,1.7141,0.0,1.5184,1.3017,1.2339,1.1194,1.0018,1.0036,1.0085,1.0077,0.9946,0.896,0.7556,0.6109,0.2352,-0.2461,-0.6803,-1.3899,-2.1173,-2.5166,-3.008,-3.3617,-3.1986,-3.1213,-2.9637,-2.5666,-2.3117,-2.1262,-2.0027,-1.9089,-1.9613,-2.2783,-2.5508,-2.84,-3.2078,-3.423,-3.5909,-3.7258,-3.7831,-3.9038,-4.0933,-4.3575,-4.6139,-4.8592,-5.015,-5.1306,-5.2284,-5.3166,-5.3218,-5.2618,-5.2384,-5.2171,-5.1826,-5.3493,-5.4754,-5.5848,-5.6762,-5.7694,-5.8324,-5.7702,-5.6669,-5.5515,-5.5827,0.0,-5.5149,-5.7218,-5.7611,-5.6954,-5.8151,-5.7483,-5.5789,-5.6792,-5.6433,-5.5541,0.0,0.0,0.0,0.0,0.0,0.0,0.0,0.0,0.0,0.0,2.2329,2.2287,0.0,0.0,0.0,0.0,0.0,0.0,0.0,0.0,0.0,1.8182,1.6653,1.5514,1.4744,1.2757,1.1796,1.2057,0.9217,0.7759,0.7857,0.5625,0.5252,0.6442,0.6339,0.7498,0.9499,1.1024,1.2374,1.3556,1.4849,1.5421,1.5491,1.5439,0.0,0.0,1.1287,1.0815,1.0879,1.049,1.0402,1.0126,0.8848,0.7847,0.6215,0.2111,-0.2171,-0.6418,-1.1491,-1.7631,-2.3548,-2.6864,-3.0211,-3.234,-3.0864,-2.9543,-2.7447,-2.2723,-2.0916,-1.959,-1.7838,-1.8724,-2.0426,-2.2783,-2.6189,-2.9305,-3.1579,-3.4336,-3.6132,-3.619,-3.908,-4.1185,-4.1776,-4.5434,0.0,0.0,0.0,-5.2741,-5.3766,-5.4181,-5.3967,-5.3002,-5.1614,-5.1658,-5.3031,-5.3128,-5.4825,-5.7879,-5.7724,-5.8309,-5.9379,-5.8491,-5.7444,-5.6312,-5.6819,0.0,-5.67,-5.762,-5.7872,-5.7684,-5.7525,-5.7177,-5.6858,-5.7475,-5.7494,-5.7266,0.0,0.0,0.0,0.0,0.0,0.0,0.0,2.1714,2.2613,2.4381,2.5518,2.5643,2.3971,2.519,2.5738,0.0,0.0,0.0,0.0,0.0,0.0,0.0,1.6096,1.4974,1.4015,1.2688,1.1868,1.1532,0.0,0.8139,0.7123,0.6059,0.557,0.5627,0.6137,0.683,0.7621,0.919,1.0476,1.1365,1.2425,1.3307,1.3908,1.3908,0.0,0.0,1.0502,1.0177,1.0449,0.9823,0.9266,0.8921,0.8193,0.5882,0.2647,-0.0289,-0.5903,-1.1965,-1.6199,-2.1862,-2.7198,-3.0019,-3.1429,-3.1629,-2.9489,-2.7492,-2.496,-2.0749,-1.9571,-1.8846,-1.7335,-1.8348,-2.0316,-2.279,-2.5504,-2.8446,-3.1673,-3.4033,-3.5992,-3.7874,-4.0464,-4.2635,-4.4184,-4.6792,-4.9096,-5.0986,0.0,-5.3011,-5.4097,-5.3679,-5.313,-5.2715,-5.2232,-5.2391,-5.2988,-5.443,-5.6103,-5.8018,-5.8483,-5.9031,-5.9686,-5.9073,-5.8166,-5.692,-5.732,0.0,-5.6892,-5.7495,-5.759,-5.7495,-5.718,-5.7019,-5.6954,-5.7228,-5.7469,-5.7777,0.0,0.0,0.0,0.0,0.0,0.0,0.0,2.2815,2.4157,2.6685,2.881,2.9083,2.6452,2.7617,2.8218,0.0,0.0,0.0,0.0,0.0,0.0,0.0,0.0,0.0,0.0,0.0,0.0,1.0934,0.9888,0.0,0.0,0.0,0.0,0.0,0.7018,0.7322,0.7217,0.8947,0.9937,0.0,0.0,1.2119,0.0,0.0,0.0,0.0,0.0,0.9648,0.9112,0.8315,0.723,0.6017,0.5728,0.2682,-0.1123,-0.3459,-1.0035,-1.7365,-2.0814,-2.5959,-3.0854,-3.2672,-3.2606,-3.1514,-2.8688,-2.6039,-2.3226,-1.9762,-1.892,-1.8584,-1.7507,-1.8334,-2.0134,-2.2697,-2.4616,-2.7276,-3.1261,-3.3411,-3.5869,-3.9367,-4.1662,-4.4027,-4.6514,-4.7931,0.0,-5.1463,0.0,0.0,-5.3631,-5.2873,-5.2438,-5.2305,-5.2997,-5.3316,-5.3144,-5.5737,-5.7368,-5.8267,-5.9152,-5.9735,-5.9804,-5.9501,-5.8662,-5.7303,-5.7586,0.0,0.0,-5.7275,-5.7275,-5.7084,-5.7019,-5.7016,-5.7008,-5.7131,-5.7623,-5.8208,0.0,0.0,0.0,0.0,0.0,0.0,0.0,2.4674,2.5893,2.8556,3.0119,3.0855,3.014,3.1073,2.9916,0.0,0.0,0.0,0.0,0.0,0.0,0.0,0.0,0.0,0.0,0.0,0.0,1.1142,1.0049,0.0,0.0,0.0,0.0,0.0,0.0,1.0779,1.069,1.097,0.0,0.0,0.0,0.0,0.0,0.0,0.0,0.0,0.0,0.9436,0.7095,0.6215,0.3737,0.0548,-0.1268,-0.2409,-0.4144,-0.968,-1.5962,-2.1788,-2.5117,-3.0009,-3.4227,-3.3607,-3.3124,-3.2197,-2.951,-2.6387,-2.3312,-2.0476,-1.9488,-1.8816,-1.8088,-1.9029,-2.0567,-2.2496,-2.4545,-2.6839,-2.9486,-3.288,-3.5862,-3.8014,-4.2335,-4.5776,-4.7413,-4.8837,-5.0091,0.0,0.0,0.0,-5.2641,-5.2751,-5.2644,-5.2305,-5.3076,-5.3957,-5.5056,-5.5749,-5.744,-6.0298,-6.0095,-6.0079,-6.0233,-5.9944,-5.8806,-5.7112,-5.7567,0.0,0.0,-5.718,-5.7084,-5.7084,-5.6954,-5.7228,-5.7746,-5.8362,-5.9008,-5.9593,0.0,0.0,0.0,0.0,0.0,0.0,2.2788,2.4395,2.6258,2.8672,3.1153,3.2308,3.1384,3.1675,3.0594,2.7033,0.0,0.0,0.0,0.0,0.0,0.0,0.0,0.0,0.0,0.0,1.0803,1.019,1.0485,0.0,0.0,0.0,0.0,0.0,0.0,1.2186,1.2418,1.3084,0.0,0.0,0.0,0.0,0.0,0.0,0.0,0.0,0.0,0.0,0.5138,0.2086,-0.0307,-0.2424,-0.5399,-0.7733,-0.989,-1.2282,-1.7662,-2.3419,-2.5524,-2.9628,-3.3314,-3.3175,-3.288,-3.1856,-2.8827,-2.6224,-2.3593,-2.0431,-1.9639,-1.9314,-1.8903,-1.9865,-2.1145,-2.2534,-2.3887,-2.5676,-2.8404,-3.066,-3.3683,-3.8354,-4.1637,-4.4714,0.0,0.0,-4.9619,0.0,0.0,0.0,-5.2001,-5.2384,-5.2563,-5.2414,-5.3085,-5.3861,-5.4856,-5.6221,-5.8107,-6.015,-6.0527,-6.0553,-6.0105,-6.0009,-5.9186,-5.7897,-5.7483,0.0,0.0,-5.7205,-5.6923,-5.6985,-5.729,-5.7531,-5.7839,-5.8516,-5.9193,-5.9778,0.0,0.0,0.0,0.0,0.0,2.1137,2.2063,2.4068,2.6317,2.8612,3.1069,3.2244,3.118,3.0971,2.9806,2.6689,2.5501,0.0,0.0,0.0,0.0,0.0,0.0,0.0,0.0,0.0,0.9903,0.9114,0.9903,0.9805,0.0,0.0,1.1258,1.1551,0.0,0.0,0.0,0.0,0.0,0.0,0.0,0.0,0.0,0.0,0.0,0.0,0.0,0.0,0.0,0.0,0.0,-0.6078,-0.8844,-1.2023,-1.4847,-1.4813,-1.947,-2.5077,-2.6494,-3.0215,-3.3684,-3.4088,-3.3476,-3.2049,-2.9332,-2.6618,-2.3992,-2.1173,-2.0264,-2.0026,-1.9894,-2.066,-2.1575,-2.2594,-2.3391,-2.4906,-2.7661,-2.9397,-3.2494,-3.7788,0.0,-4.3136,0.0,-4.8348,0.0,0.0,0.0,0.0,0.0,-5.249,-5.2543,-5.1951,-5.3658,-5.4713,-5.4926,-5.7129,-5.8901,-6.0316,-6.065,-6.0477,-5.9944,-5.9944,-5.9277,-5.8366,-5.7707,0.0,0.0,-5.7038,-5.6787,-5.7002,-5.7494,-5.7924,-5.8324,-5.8885,-5.9378,-5.9778,0.0,0.0,0.0,0.0,0.0,0.0,2.2402,2.4067,2.6069,2.8567,2.9692,3.0079,2.9715,2.9173,2.7097,2.2847,2.2409,0.0,0.0,0.0,0.0,0.0,0.0,0.0,0.0,0.0,0.8038,0.8038,0.8038,0.9114,1.117,1.117,1.2813,1.571,0.0,0.0,0.0,0.0,0.0,0.0,0.0,0.0,1.583,0.0,0.0,0.0,0.0,0.0,0.0,0.0,0.0,0.0,0.0,-1.4851,-1.7979,-1.774,-2.1976,-2.702,-2.8835,-3.2746,-3.6295,-3.7042,-3.5402,-3.3249,-3.1902,-2.8132,-2.4443,-2.2864,-2.168,-2.0876,-2.0876,-2.1469,-2.199,-2.2452,-2.349,-2.503,-2.7303,-3.0092,-3.2922,0.0,0.0,-4.1496,-4.5303,-4.8635,0.0,0.0,0.0,0.0,0.0,-5.3592,-5.2715,-5.0937,-5.5024,-5.6872,-5.5843,-5.8248,-6.0106,-6.1144,-6.0157,-5.9811,-5.9944,-5.9652,-5.8954,0.0,0.0,0.0,0.0,-5.6745,-5.677,-5.735,-5.7381,-5.8176,-5.9471,-5.9676,-5.9778,-5.9778,0.0,0.0,0.0,0.0,0.0,0.0,0.0,2.2377,2.4405,2.625,2.7894,2.8451,2.7289,2.5482,2.2945,1.9313,2.0399,0.0,0.0,0.0,0.0,0.0,0.0,0.0,0.0,0.0,0.8528,0.9122,0.9122,0.9805,1.1268,1.2608,1.3753,1.4816,1.7008,1.8453,0.0,0.0,0.0,0.0,0.0,1.6434,1.447,0.0,0.0,0.0,0.0,0.0,0.0,0.0,0.0,0.0,0.0,0.0,0.0,-1.8297,-2.1343,-2.4951,-2.6614,-2.9141,-3.1444,-3.1666,-3.1711,-3.1072,-2.8656,-2.6888,-2.497,-2.2213,-2.1492,-2.1339,-2.1339,-2.1859,-2.2732,-2.4158,-2.4934,-2.6009,-2.7977,-3.0678,0.0,-3.6522,-4.1719,-4.5972,0.0,0.0,0.0,0.0,0.0,0.0,0.0,-5.4157,-5.454,-5.3917,-5.5331,-5.6451,-5.7342,-5.8782,-5.9758,-6.0628,-6.0361,-6.026,-6.0173,-5.9576,-5.8938,0.0,0.0,0.0,0.0,-5.645,-5.6442,-5.7081,-5.7568,-5.8502,-5.9368,-5.9471,-5.9676,-5.9716,0.0,0.0,0.0,0.0,0.0,0.0,0.0,2.0762,2.2354,2.3319,2.4546,2.4806,2.3305,2.1316,1.892,1.5926,1.6195,0.0,0.0,0.0,0.0,0.0,0.0,0.0,0.7156,0.8096,0.8916,0.9608,1.0378,1.1346,1.2318,1.4136,1.5369,1.6035,1.8191,1.9636,0.0,0.0,0.0,0.0,1.781,1.5632,1.3278,0.0,0.0,0.0,0.0,0.0,0.0,0.0,0.0,0.0,0.0,0.0,0.0,0.0,-2.1262,-2.3411,-2.5173,-2.7132,-2.8754,-2.9456,-2.958,-2.9015,-2.7227,-2.6029,-2.4565,-2.2324,-2.1873,-2.1797,-2.1721,-2.2324,-2.3208,-2.4344,-2.5126,-2.6277,-2.7971,0.0,0.0,-3.8018,0.0,0.0,0.0,0.0,0.0,0.0,0.0,0.0,0.0,-5.3681,-5.4797,-5.5848,-5.6394,-5.7183,-5.8267,-5.9501,-6.0316,-6.0732,-6.0843,-6.0508,-5.9811,-5.9425,-5.8785,0.0,0.0,0.0,0.0,-5.6425,-5.6486,-5.694,-5.788,-5.862,-5.9295,-5.9674,-5.9635,-5.9347,0.0,0.0,0.0,0.0,0.0,0.0,0.0,1.912,1.9903,1.9766,2.0073,1.9652,1.8089,1.6847,1.5084,1.2472,0.0,0.0,0.0,0.0,0.0,0.0,0.0,0.0,0.7046,0.8238,0.9205,0.9706,1.1823,1.3358,1.4327,1.5853,1.737,1.8812,1.959,2.0309,2.0687,1.9808,1.9431,1.9213,1.5626,1.3568,0.0,0.0,0.0,0.0,0.0,0.0,0.0,0.0,0.0,0.0,0.0,0.0,0.0,0.0,0.0,0.0,0.0,-2.6269,-2.7965,-2.962,-2.8488,-2.6997,-2.7126,-2.5408,0.0,-2.3045,-2.2563,-2.2285,-2.2176,-2.2785,-2.3452,-2.3629,-2.4555,-2.5868,-2.7495,-3.0113,0.0,0.0,-4.298,0.0,0.0,0.0,0.0,0.0,0.0,0.0,0.0,-5.2738,-5.3992,-5.668,-5.8107,-5.8894,-5.8684,-6.0321,-6.1308,-6.1481,-6.1215,-6.0431,-5.9185,-5.9205,-5.8543,0.0,0.0,0.0,0.0,-5.6587,-5.6515,-5.6696,-5.7962,-5.8684,-5.9058,-5.9845,-5.9574,-5.8701,0.0,0.0,0.0,0.0,0.0,0.0,0.0,0.0,0.0,0.0,1.6463,1.5963,1.3823,1.262,1.0961,0.0,0.0,0.0,0.0,0.0,0.0,0.0,0.0,0.0,0.7483,0.8992,1.0092,1.0779,1.2887,1.4423,1.5507,1.7618,1.8738,1.8812,2.0118,2.0379,1.973,1.9525,1.8148,1.6208,1.5035,1.2455,0.0,0.0,0.0,0.0,-0.4642,-0.7589,0.0,0.0,0.0,0.0,0.0,0.0,0.0,0.0,-2.1614,-2.2676,-2.2571,0.0,-2.4577,-2.5648,-2.5486,-2.5084,0.0,-2.3939,-2.3023,-2.1956,-2.1797,-2.1977,-2.2264,-2.2785,-2.3615,-2.4914,-2.5455,-2.6389,-2.8146,0.0,0.0,-4.1264,-4.5155,0.0,0.0,0.0,0.0,0.0,0.0,0.0,0.0,-5.3754,-5.4991,-5.6994,-5.7898,-5.8919,-6.0206,-6.0701,-6.0897,-6.0969,-5.9849,-5.9347,-5.9328,-5.8338,-5.7455,0.0,0.0,0.0,-5.5621,-5.552,-5.582,-5.6299,-5.6835,-5.7565,-5.8267,-5.8105,-5.807,-5.803,0.0,0.0,0.0,0.0,0.0,0.0,0.0,0.0,0.0,0.0,0.0,1.1243,0.8857,0.7795,0.0,0.0,0.0,0.0,0.0,0.0,0.0,0.0,0.0,0.8713,0.8513,1.0181,1.1161,1.1365,1.4232,1.6035,1.6866,1.9209,2.0223,2.0041,2.0185,1.9523,1.841,1.7436,1.6263,1.4712,1.2459,0.0,0.0,0.0,0.0,0.0,-0.5376,-0.7986,0.0,-1.2808,-1.4534,-1.5992,0.0,0.0,0.0,0.0,-2.0856,-2.1298,-2.0933,-2.2006,-2.3346,-2.3807,-2.3694,-2.3559,-2.3302,-2.2798,-2.2381,-2.2134,-2.2188,-2.2488,-2.2822,-2.3253,-2.3977,-2.5225,-2.5685,0.0,0.0,0.0,-3.8038,-4.2349,-4.5198,0.0,0.0,0.0,0.0,0.0,0.0,0.0,0.0,-5.4066,-5.5333,-5.7368,-5.7727,-5.8684,-6.0407,-6.0071,-6.0071,-6.0377,-5.9032,-5.8573,-5.8674,-5.7537,-5.6698,0.0,0.0,0.0,-5.5209,-5.5508,-5.5658,-5.5777,-5.6684,-5.7263,-5.7598,-5.7739,-5.7825,-5.7881,0.0,0.0,0.0,0.0,0.0,0.0,0.0,0.0,0.0,0.0,0.0,0.0,0.0,0.0,0.0,0.0,0.0,0.0,0.0,0.0,0.0,0.0,1.0431,1.0351,0.9976,1.1638,1.2231,1.1853,1.552,1.764,1.806,2.0344,2.136,2.11,1.9971,1.8456,1.672,1.4994,1.4063,1.3456,0.9525,0.0,0.0,0.0,0.0,0.0,0.0,0.0,0.0,-1.2715,-1.437,-1.5759,-1.8164,0.0,0.0,0.0,0.0,0.0,-1.9916,-2.1491,-2.3084,-2.2818,-2.2611,-2.2484,-2.2418,-2.2226,-2.2137,-2.2541,-2.2942,-2.3253,-2.3398,-2.4015,-2.4737,-2.5409,0.0,0.0,-3.3127,-3.5339,-3.8167,-4.2716,0.0,0.0,0.0,0.0,0.0,0.0,0.0,0.0,0.0,-5.4053,-5.5381,-5.7727,-5.7722,-5.8326,-5.9758,-5.9257,-5.9257,-5.9834,-5.8468,-5.783,-5.78,-5.6828,-5.6124,-5.5481,0.0,0.0,-5.5239,-5.5777,-5.5628,-5.5149,-5.6684,-5.699,-5.6686,-5.7656,-5.7931,-5.7797,0.0,0.0,0.0,0.0,0.0,0.0,0.0,0.0,0.0,0.0,0.0,0.0,0.0,0.0,0.0,0.0,0.0,0.0,0.0,0.0,0.0,1.3488,1.2328,1.1745,1.1843,1.263,1.292,1.2823,1.6224,1.7978,1.8385,2.0818,2.1226,2.0103,1.9574,1.7669,1.4613,1.4327,1.2716,1.0224,0.8612,0.0,0.0,0.0,0.0,0.0,0.0,0.0,0.0,-1.1569,-1.3601,-1.5535,-1.6934,0.0,0.0,0.0,0.0,0.0,-2.0392,-2.1632,-2.2678,-2.1271,-2.1551,-2.2171,-2.2143,-2.2555,-2.273,-2.1988,-2.2724,-2.3457,-2.3444,-2.4859,-2.6195,-2.6865,0.0,-3.2268,0.0,0.0,-3.8898,0.0,0.0,0.0,0.0,0.0,0.0,0.0,0.0,0.0,0.0,-5.3741,-5.5011,-5.7915,-5.7507,-5.7651,-5.8398,-5.8805,-5.9014,-5.9105,-5.777,-5.7031,-5.6798,-5.6033,-5.5571,-5.528,0.0,-5.5179,-5.5209,-5.5299,-5.497,-5.4431,-5.578,-5.5523,-5.4618,-5.5739,-5.621,-5.656,0.0,0.0,0.0,0.0,0.0,0.0,0.0,0.0,0.0,0.0,0.0,0.0,0.0,0.0,0.0,0.0,0.0,0.0,0.0,0.0,1.1636,1.3318,1.3318,1.3221,1.3414,1.3908,1.3908,1.3318,1.5809,1.7554,1.8725,2.0788,2.0744,1.9033,1.7681,1.5693,1.3284,1.2211,1.0565,0.8605,0.0,0.0,0.0,0.0,0.0,0.0,0.0,0.0,0.0,0.0,-1.3193,-1.528,-1.6045,0.0,0.0,0.0,0.0,0.0,-2.0622,-2.1189,-2.1802,-2.1686,-2.2369,-2.3203,-2.336,-2.343,-2.3524,-2.3409,-2.3888,-2.4363,-2.488,-2.6109,-2.7586,-2.9615,0.0,-3.4512,-3.6518,-3.7252,0.0,0.0,0.0,0.0,0.0,0.0,0.0,0.0,0.0,0.0,0.0,0.0,-5.595,-5.8496,-5.7989,-5.7843,-5.8141,-5.7737,-5.7661,-5.7962,-5.6666,-5.6113,-5.6342,-5.5681,-5.528,-5.5179,0.0,-5.5179,-5.5179,-5.5179,-5.4999,-5.483,-5.5236,-5.5038,-5.4587,-5.5191,-5.5938,-5.6892,0.0,0.0,0.0,0.0,0.0,0.0,0.0,0.0,0.0,0.0,0.0,0.0,0.0,0.0,0.0,0.0,0.0,0.0,0.0,0.9833,1.1009,1.2231,1.3221,1.3908,1.4292,1.4796,1.4725,1.4087,1.5622,1.7343,1.9167,2.0493,1.9907,1.7541,1.5934,1.3845,1.1551,0.9887,0.8506,0.7111,0.0,0.0,0.0,0.0,0.0,0.0,0.0,0.0,0.0,0.0,0.0,0.0,0.0,0.0,0.0,-1.9268,-1.9778,-2.0377,-2.1131,-2.1379,-2.1776,-2.3103,-2.3803,-2.4276,-2.4787,-2.4949,-2.5157,-2.5654,-2.5934,-2.6194,-2.667,-2.7736,0.0,-3.2293,-3.4554,-3.6394,0.0,0.0,0.0,0.0,0.0,0.0,0.0,0.0,0.0,0.0,0.0,0.0,0.0,0.0,-5.6222,-5.8543,-5.8141,-5.7812,-5.7663,-5.6675,-5.6406,-5.6855,-5.5568,-5.5209,-5.5688,-5.5179,-5.497,-5.497,-5.5119,-5.5179,-5.5179,-5.5179,-5.5089,-5.491,-5.5016,-5.4977,-5.4835,-5.5008,-5.5928,-5.7013,0.0,0.0,0.0,0.0,0.0,0.0,0.0,0.0,0.0,0.0,0.0,0.0,0.0,0.0,0.0,0.0,0.0,0.0,0.0,0.8931,0.9805,1.0877,1.1755,1.2834,1.4292,1.4796,1.5294,1.5745,1.6626,1.7966,1.9598,1.9851,1.8324,1.5431,1.523,1.2615,0.8301,0.8202,0.6913,0.4822,0.2917,0.0,0.0,0.0,0.0,0.0,0.0,0.0,0.0,0.0,0.0,0.0,0.0,0.0,-1.9001,-2.0307,-2.0907,-2.1462,-2.261,-2.3252,-2.387,-2.5462,-2.4999,-2.4506,-2.5851,-2.7392,-2.8522,-2.8305,-2.8948,-2.9239,-2.8121,-2.9859,-3.2201,-3.4371,-3.6558,0.0,0.0,0.0,0.0,0.0,0.0,0.0,0.0,0.0,0.0,0.0,0.0,0.0,0.0,0.0,0.0,-5.7139,-5.7184,-5.6885,-5.6316,-5.6226,-5.6196,-5.6226,-5.491,-5.4311,-5.4341,-5.4311,-5.4281,-5.4311,-5.491,-5.5179,-5.5179,-5.5179,-5.482,-5.4341,-5.518,-5.5031,-5.4385,-5.4916,-5.5332,-5.5793,0.0,0.0,0.0,0.0,0.0,0.0,0.0,0.0,0.0,0.0,0.0,0.0,0.0,0.0,0.0,0.0,0.0,0.0,0.0,0.8851,0.9585,1.0671,1.1567,1.2692,1.3811,1.5057,1.5599,1.5126,1.6547,1.7585,1.81,1.7765,1.6588,1.4787,1.2153,0.9369,0.6674,0.5291,0.3399,0.1302,0.0502,-0.1201,0.0,0.0,0.0,0.0,0.0,0.0,0.0,0.0,-1.3505,-1.5777,-1.6832,-1.8666,-2.0638,-2.1588,-2.2715,-2.3892,-2.4766,-2.5786,-2.6683,-2.7394,-2.7428,-2.7729,-2.9393,-3.0302,-3.1003,-3.1996,-3.2747,-3.3217,-3.2902,-3.4193,-3.6005,-3.8127,-3.9187,0.0,0.0,0.0,0.0,0.0,0.0,0.0,0.0,0.0,0.0,0.0,0.0,0.0,0.0,0.0,0.0,-5.6779,-5.6497,-5.6169,-5.6166,-5.5359,-5.497,-5.494,-5.4431,-5.3982,-5.3563,-5.3563,-5.3803,-5.4221,-5.4461,-5.482,-5.5179,-5.5179,-5.5029,-5.489,-5.5567,-5.584,-5.5843,-5.5778,-5.6477,-5.7429,0.0,0.0,0.0,0.0,0.0,0.0,0.0,0.0,0.0,0.0,0.0,0.0,0.0,0.0,0.0,0.0,0.0,0.0,0.9048,0.9274,0.9884,1.0988,1.1993,1.2709,1.3333,1.5358,1.5989,1.5045,1.638,1.6808,1.6394,1.5398,1.416,1.2631,0.9105,0.6284,0.398,0.2294,0.01,-0.21,-0.23,-0.3801,0.0,0.0,0.0,0.0,0.0,0.0,0.0,0.0,-1.5137,-1.7382,-1.8688,-2.0616,-2.2617,-2.3466,-2.4471,-2.5502,-2.6332,-2.7163,-2.7947,-2.8664,-2.9504,-3.094,-3.3667,-3.3761,-3.3839,-3.6234,-3.6545,-3.656,-3.6659,-3.7278,-3.8343,0.0,0.0,0.0,0.0,0.0,0.0,0.0,0.0,0.0,0.0,0.0,0.0,0.0,0.0,0.0,0.0,0.0,0.0,0.0,-5.4894,-5.4789,-5.4864,-5.4231,-5.3773,-5.3563,-5.3563,-5.3324,-5.2875,-5.2889,-5.3247,-5.3823,-5.4112,-5.4559,-5.5078,-5.5078,-5.5078,-5.522,-5.605,-5.6404,-5.6555,-5.6422,-5.7232,-5.819,0.0,0.0,0.0,0.0,0.0,0.0,0.0,0.0,0.0,0.0,0.0,0.0,0.0,0.0,0.0,0.0,0.0,0.0,1.0694,1.0391,1.0795,1.2003,1.2694,1.3082,1.3071,1.5619,1.6587,1.591,1.6156,1.5741,1.4734,1.3016,1.0897,0.8316,0.6353,0.3445,-0.01,-0.0898,-0.2593,-0.4893,-0.5698,-0.6796,-0.828,0.0,0.0,0.0,0.0,0.0,0.0,0.0,-1.7687,-1.9066,-2.1051,-2.2901,-2.4639,-2.5775,-2.5904,-2.6,-2.7257,-2.7196,-2.7203,-2.9197,-3.1065,-3.3589,-3.8496,-3.7642,-3.6899,-4.0707,-4.017,-3.8983,-3.8689,-3.857,-3.8919,-3.9933,0.0,0.0,0.0,0.0,0.0,0.0,0.0,0.0,0.0,0.0,0.0,0.0,0.0,0.0,0.0,0.0,0.0,0.0,-5.2381,-5.2582,-5.2012,-5.2752,-5.2845,-5.2187,-5.2187,-5.2187,-5.2217,-5.229,-5.2487,-5.2872,-5.3816,-5.4509,-5.4803,-5.4803,-5.4976,-5.5381,-5.6572,-5.6619,-5.6093,-5.6846,-5.7279,-5.7404,0.0,0.0,0.0,0.0,0.0,0.0,0.0,0.0,0.0,0.0,0.0,0.0,0.0,0.0,0.0,0.0,0.0,0.0,1.057,1.1093,1.1802,1.2934,1.2978,1.3314,1.3916,1.4436,1.5466,1.6905,1.5615,1.4179,1.2658,1.0022,0.7274,0.4595,0.2004,-0.0899,-0.3676,-0.4686,-0.6095,-0.7707,-0.8682,-0.9763,-1.084,0.0,0.0,0.0,0.0,0.0,0.0,0.0,0.0,0.0,-2.368,-2.5209,-2.664,-2.7498,-2.8107,-2.859,-2.8941,-2.9705,-3.0522,-3.1577,-3.3357,-3.5892,-3.9822,-3.957,-3.9565,-4.3482,-4.3599,-4.3137,-4.34,-4.2846,0.0,-4.3713,0.0,0.0,0.0,0.0,0.0,0.0,0.0,0.0,0.0,0.0,0.0,0.0,0.0,0.0,0.0,0.0,0.0,0.0,-5.1845,-5.2147,-5.1321,-5.2073,-5.2157,-5.1498,-5.1309,-5.1214,-5.1214,-5.1232,-5.1491,-5.1866,-5.225,-5.293,-5.3816,-5.4493,-5.535,-5.6219,-5.684,-5.7412,-5.7978,-5.7855,-5.8316,-5.9031,0.0,0.0,0.0,0.0,0.0,0.0,0.0,0.0,0.0,0.0,-0.1163,0.0878,0.0,0.0,0.0,0.0,0.0,0.0,0.0,1.1349,1.2294,1.3346,1.3308,1.3368,1.3709,1.3583,1.3997,1.495,1.3706,1.2106,1.0153,0.6765,0.3836,0.1288,-0.2298,-0.4997,-0.7045,-0.8777,-1.0501,-1.2031,-1.2888,-1.3734,-1.4617,0.0,0.0,0.0,0.0,0.0,0.0,0.0,0.0,0.0,-2.5753,-2.707,-2.833,-2.8397,-2.895,-2.9637,-2.9943,-3.0771,-3.2098,-3.3711,-3.5732,-3.8255,-4.1245,-4.261,-4.3782,-4.6282,-4.5922,-4.5425,-4.6013,-4.4991,0.0,0.0,0.0,0.0,0.0,0.0,0.0,0.0,0.0,0.0,0.0,0.0,0.0,0.0,0.0,0.0,0.0,0.0,0.0,0.0,-5.0212,-5.0394,-4.991,-5.0626,-5.084,-5.0451,-5.0236,-5.0143,-5.008,-5.0662,-5.1061,-5.1473,-5.1611,-5.217,-5.3036,-5.3752,-5.4737,-5.5902,-5.6367,-5.7253,-5.819,-5.8091,-5.8508,-5.9007,0.0,0.0,0.0,0.0,0.0,0.0,0.0,0.0,0.0,0.0,0.1673,0.3083,0.0,0.0,0.0,0.0,0.0,0.0,0.0,1.1353,1.2307,1.3243,1.3303,1.3088,1.2679,1.276,1.2115,1.0776,1.0783,0.9518,0.7041,0.3352,0.0303,-0.2196,-0.6475,-0.9091,-1.0369,-1.3147,-1.5419,-1.7284,-1.7945,-1.852,-1.9177,-2.0735,0.0,0.0,0.0,0.0,0.0,0.0,0.0,0.0,-2.7522,-2.8664,-2.968,-2.9076,-2.9184,-2.9673,-3.046,-3.1169,-3.2466,-3.5564,-3.8215,-4.0677,-4.2885,-4.5794,-4.8166,-4.825,-4.7052,-4.6188,-4.6577,-4.5582,-4.4794,0.0,0.0,0.0,0.0,0.0,0.0,0.0,0.0,0.0,0.0,0.0,0.0,0.0,0.0,0.0,0.0,0.0,0.0,-4.8026,-4.7885,-4.7863,-4.7932,-4.8854,-4.9224,0.0,-4.9224,-4.9134,-4.8892,-5.0316,-5.1072,-5.1258,-5.1736,-5.203,-5.2328,-5.2684,-5.3465,-5.4761,-5.561,-5.6463,-5.7339,-5.7827,-5.8053,-5.8063,0.0,0.0,0.0,0.0,0.0,0.0,0.0,0.0,0.0,0.0,0.0,0.0,0.0,0.0,0.0,0.0,0.0,0.0,0.0,1.1413,1.1944,1.2103,1.2084,1.1875,1.152,1.0493,0.924,0.7706,0.8486,0.7078,0.3465,0.0101,-0.3714,-0.7892,-1.0618,-1.3106,-1.5381,-1.7858,-1.9349,-2.0297,-2.228,-2.2852,-2.276,-2.4545,-2.5108,0.0,0.0,0.0,0.0,0.0,0.0,0.0,-2.9139,-2.9807,-3.0469,-3.1502,-3.111,-3.0744,-3.2417,-3.3007,-3.3872,-3.7004,-4.034,-4.3221,-4.4508,-4.5034,-4.5178,-4.552,-4.5809,-4.6086,-4.6188,-4.5304,0.0,0.0,0.0,0.0,0.0,0.0,0.0,0.0,0.0,0.0,0.0,0.0,0.0,0.0,0.0,0.0,0.0,0.0,0.0,-4.6532,-4.7701,-4.7898,-4.7081,-4.8525,-4.9015,0.0,-4.9015,-4.8985,-4.8447,-4.9634,-5.0206,-5.0417,-5.0796,-5.1257,-5.1709,-5.2309,-5.3338,-5.4669,-5.5108,-5.5761,-5.6626,-5.6942,-5.7432,-5.8086,0.0,0.0,0.0,0.0,0.0,0.0,0.0,0.0,0.0,0.0,0.0,0.0,0.0,0.0,0.0,0.0,0.0,0.0,0.0,0.0,1.0286,0.9784,0.9622,0.9327,0.9122,0.7674,0.5814,0.3613,0.2988,0.1648,-0.0503,-0.4024,-0.7859,-1.1855,-1.4825,-1.7246,-1.9202,-2.218,-2.3762,-2.445,-2.5939,-2.6548,-2.6585,-2.7543,-2.7964,-2.7959,-2.8218,0.0,0.0,0.0,0.0,0.0,0.0,0.0,-3.1093,-3.1891,-3.1873,-3.193,-3.2989,-3.4229,-3.6037,-3.9853,-4.2116,-4.3588,-4.4425,-4.3889,-4.3127,-4.3092,-4.3827,-4.4611,-4.4611,0.0,0.0,0.0,0.0,0.0,0.0,0.0,0.0,0.0,0.0,0.0,0.0,0.0,0.0,0.0,0.0,0.0,0.0,-4.6967,-4.6919,-4.6633,-4.6598,-4.6466,-4.621,-4.7081,-4.7405,-4.7165,-4.7821,-4.8208,-4.8327,-4.9072,-4.9503,-4.9647,-4.9805,-5.032,-5.0808,-5.1258,-5.2567,-5.4224,-5.4411,-5.5365,-5.6512,-5.6657,-5.6989,-5.7476,0.0,0.0,0.0,0.0,0.0,0.0,0.0,0.0,0.0,0.0,0.0,0.0,0.0,0.0,0.0,0.0,0.0,0.0,0.0,0.0,0.0,0.7514,0.7077,0.6714,0.6226,0.4681,0.233,-0.0693,-0.3213,-0.4822,-0.5748,-0.877,-1.1954,-1.5253,-1.8889,-2.1218,-2.2641,-2.5853,-2.7672,-2.8488,-2.9161,-2.9751,-3.0193,-3.0285,-3.0477,-3.0721,-3.0721,-3.1345,-3.2064,-3.0954,0.0,0.0,0.0,0.0,-3.1629,-3.1928,-3.233,-3.2872,-3.3446,-3.5503,-3.8399,-4.2216,-4.3036,-4.3026,-4.3362,-4.2558,-4.1621,-4.1165,-4.1932,-4.2685,0.0,0.0,0.0,0.0,0.0,0.0,0.0,0.0,0.0,0.0,0.0,0.0,0.0,0.0,0.0,0.0,0.0,0.0,-4.759,-4.6718,-4.6432,-4.6807,-4.547,-4.4957,-4.5344,-4.543,-4.5661,-4.6122,-4.695,-4.7722,-4.8468,-4.8922,-4.9133,-4.9134,-4.9251,-4.9604,-5.0103,-5.0346,-5.1635,-5.3427,-5.3805,-5.4985,-5.6525,-5.6603,-5.668,-5.6757,0.0,0.0,0.0,0.0,0.0,0.0,0.0,0.0,0.0,0.0,0.9575,0.9862,0.0,0.0,0.0,0.0,0.0,0.0,0.0,0.0,0.0,0.6821,0.5982,0.5018,0.4021,0.1807,-0.08,-0.3778,-0.7223,-1.0794,-1.4256,-1.4122,-1.6112,-1.9813,-2.2013,-2.4256,-2.6472,-2.8429,-2.9942,-3.0997,-3.2122,-3.2641,-3.2723,-3.3308,-3.329,-3.288,-3.3019,-3.3209,-3.3268,-3.2592,-3.228,0.0,0.0,0.0,-3.229,-3.3573,-3.3243,-3.2857,-3.5235,-3.8144,-4.0567,-4.0831,-4.1404,-4.195,-4.1591,-4.0771,-4.0029,0.0,-4.0802,0.0,0.0,0.0,0.0,0.0,0.0,0.0,0.0,0.0,0.0,0.0,0.0,0.0,0.0,0.0,0.0,0.0,0.0,0.0,-4.6993,-4.6904,-4.6344,-4.5258,-4.523,-4.4996,-4.4526,-4.4696,-4.5387,-4.6515,-4.8152,-4.8934,-4.9109,-4.9497,-4.9581,-4.9434,-4.9974,-5.0212,-5.0084,-5.0425,-5.1263,-5.2455,-5.3545,-5.4653,-5.5555,-5.6414,-5.668,-5.6757,0.0,0.0,0.0,0.0,0.0,0.0,0.0,0.0,0.0,0.0,0.0,0.7694,0.0,0.0,0.0,0.0,0.0,0.0,0.0,0.0,0.0,0.4282,0.2723,0.14,0.0499,-0.1891,-0.4946,-0.8728,-1.1753,-1.5274,-1.9333,-2.0612,-2.1857,-2.307,-2.5285,-2.7246,-2.9168,-3.1359,-3.2494,-3.3024,-3.3518,-3.3545,-3.324,-3.3751,-3.3513,-3.2931,-3.3488,-3.3674,-3.3597,-3.3164,-3.304,-3.3171,-3.362,0.0,0.0,0.0,-3.386,-3.3322,-3.4685,-3.6654,-3.8532,-3.9081,-3.9419,-3.9712,-3.9803,-3.9094,-3.8363,-3.8363,0.0,0.0,0.0,0.0,0.0,0.0,0.0,0.0,0.0,0.0,0.0,0.0,0.0,0.0,0.0,0.0,0.0,0.0,0.0,-4.6403,-4.6814,-4.7249,-4.7006,-4.6092,-4.5819,-4.5311,-4.4654,-4.4736,-4.5311,-4.6386,-4.8537,-4.909,-4.8345,-4.9836,-5.0214,-4.9677,-4.9516,-4.9644,-4.9935,-4.9793,-5.0624,-5.2093,-5.3253,-5.4369,-5.5393,-5.6336,-5.668,-5.6757,0.0,0.0,0.0,0.0,0.0,0.0,0.0,0.0,0.0,0.0,0.0,0.0,0.0,0.0,0.0,0.0,0.0,0.0,0.0,0.0,0.0,0.1406,-0.0702,-0.2392,-0.3558,-0.5935,-0.9139,-1.3119,-1.5563,-1.8769,-2.2685,-2.5172,-2.632,-2.6247,-2.8147,-2.976,-3.1032,-3.2897,-3.3806,-3.382,-3.3495,-3.328,-3.3267,-3.3242,-3.3071,-3.3065,-3.3772,-3.4063,-3.3985,-3.3819,-3.3883,-3.402,-3.4194,-3.4257,0.0,0.0,0.0,-3.4187,-3.3935,-3.5087,-3.6491,-3.701,-3.7415,-3.7741,-3.8146,0.0,-3.7146,0.0,0.0,0.0,0.0,0.0,0.0,0.0,0.0,0.0,0.0,0.0,0.0,0.0,0.0,0.0,0.0,0.0,0.0,0.0,0.0,-4.7016,-4.7096,-4.7576,-4.7433,-4.6416,-4.593,-4.5354,-4.4686,-4.4996,-4.5489,-4.6199,-4.864,-4.9206,-4.8182,-5.0173,-5.0749,-5.011,-4.9281,-4.9357,-4.9945,-4.9491,-5.0366,-5.2198,-5.3098,-5.4109,-5.5227,-5.6084,-5.6415,-5.6525,0.0,0.0,0.0,0.0,0.0,0.0,0.0,0.0,0.0,0.0,0.0,0.0,0.3425,0.4228,0.4834,0.4943,0.4943,0.3729,0.0907,0.0302,-0.0401,-0.1395,-0.3486,0.0,-0.8222,-1.0412,-1.302,-1.6109,-1.8164,-2.0972,-2.4369,-2.5799,-2.7701,-2.9943,-3.0418,-3.1225,-3.2072,-3.2315,-3.2641,-3.2957,-3.1638,-3.1903,-3.3152,-3.2273,-3.2854,-3.4206,-3.4791,-3.5003,-3.5059,-3.5196,-3.5143,-3.5049,-3.5256,-3.5149,-3.5124,0.0,0.0,0.0,-3.3846,-3.4848,-3.6052,-3.4917,-3.5468,-3.6412,0.0,0.0,0.0,0.0,0.0,0.0,0.0,0.0,0.0,0.0,0.0,0.0,0.0,0.0,0.0,0.0,0.0,0.0,0.0,0.0,0.0,0.0,0.0,-4.7292,-4.7518,-4.7812,-4.7034,-4.508,-4.4989,-4.4655,-4.3988,-4.5249,-4.5897,-4.5959,-4.8409,-4.9501,-4.9425,-5.0553,-5.1059,-5.094,-4.99,-4.9828,-5.0434,-4.9987,-5.0943,-5.2797,-5.31,-5.3759,-5.4618,-5.5345,-5.5686,-5.5786,0.0,0.0,0.0,0.0,0.0,0.0,0.0,0.0,0.0,0.0,0.0,0.0,0.0,0.4028,0.4131,0.5148,0.4038,0.2217,-0.0403,-0.2509,-0.3794,-0.4062,-0.7027,-0.9672,-1.1864,-1.3636,-1.5939,-1.876,-2.0668,-2.2606,-2.4775,-2.6907,-2.8381,-2.9153,-3.104,-3.2287,-3.2946,-3.3585,-3.3991,-3.4147,-3.3579,-3.3545,-3.3668,-3.368,-3.3766,-3.3883,-3.46,-3.4993,-3.531,-3.5645,-3.576,-3.5927,-3.5927,-3.6001,-3.5892,-3.5826,-3.5447,-3.4886,-3.3485,-3.3938,-3.4549,-3.3381,-3.3683,-3.4426,-3.4512,-3.4527,0.0,0.0,0.0,0.0,0.0,0.0,0.0,0.0,0.0,0.0,0.0,0.0,0.0,0.0,0.0,0.0,0.0,0.0,0.0,0.0,0.0,0.0,-4.6762,-4.737,-4.7169,-4.5973,-4.6019,-4.5784,-4.5129,-4.6009,-4.6284,-4.5876,-4.7637,-4.8231,-4.7786,-4.8668,-4.9181,-4.9331,-4.8955,-4.9614,-5.0848,-5.0278,-5.0767,-5.1941,-5.2701,-5.3207,-5.3803,-5.5127,-5.562,-5.5719,0.0,0.0,0.0,0.0,0.0,0.0,0.0,0.0,0.0,0.2924,0.0,0.0,0.0,0.0,0.4236,0.5153,0.2318,-0.0403,-0.2513,-0.5209,-0.7063,-0.7966,-1.0545,-1.3194,-1.5738,-1.6743,-1.8364,-2.0962,-2.2203,-2.3752,-2.563,-2.7413,-2.8665,-2.9343,-3.1505,-3.2695,-3.3053,-3.4158,-3.4778,-3.4936,-3.421,-3.4136,-3.4327,-3.4152,-3.4017,-3.3996,-3.4554,-3.4946,-3.526,-3.5557,-3.5755,-3.5975,-3.6495,-3.6932,-3.7125,-3.6297,-3.5842,-3.5213,-3.3861,-3.3662,-3.3674,-3.2525,-3.2673,-3.3093,-3.317,0.0,0.0,0.0,0.0,0.0,0.0,0.0,0.0,0.0,0.0,0.0,0.0,0.0,0.0,0.0,0.0,0.0,0.0,0.0,0.0,0.0,0.0,0.0,-4.6217,-4.6811,-4.6881,-4.6265,-4.6381,-4.6266,-4.5823,-4.6234,-4.6234,-4.5823,-4.6992,-4.7277,-4.6834,-4.7712,-4.8254,-4.8593,-4.8812,-4.9641,-5.0968,-5.0469,-5.0882,-5.1837,-5.2417,-5.2758,-5.3117,-5.4369,-5.5057,-5.5355,0.0,0.0,0.0,0.0,0.0,0.0,0.0,0.0,-0.0606,0.232,0.0,0.0,0.0,0.0,0.0,0.4649,-0.0201,-0.3934,-0.5636,-0.7502,-0.9909,-1.2914,-1.4171,-1.6397,-1.9861,-1.9513,-2.0331,-2.2403,-2.2862,-2.439,-2.6904,-2.7309,-2.8597,-3.0704,-3.1873,-3.238,-3.2458,-3.3845,-3.4763,-3.5122,-3.325,-3.3623,-3.5174,-3.3553,-3.3741,-3.4917,-3.4943,-3.4943,-3.4951,-3.5103,-3.5248,-3.5492,-3.6933,-3.8065,-3.8581,-3.7147,-3.6922,-3.6788,0.0,0.0,0.0,-3.2351,0.0,0.0,-3.2649,0.0,0.0,0.0,0.0,0.0,0.0,0.0,0.0,0.0,0.0,0.0,0.0,0.0,0.0,0.0,0.0,0.0,0.0,0.0,0.0,0.0,0.0,-4.5647,-4.582,-4.6247,-4.6265,-4.5823,-4.5823,-4.5823,-4.5823,-4.5823,-4.5792,-4.5823,-4.6455,-4.6771,-4.6877,-4.784,-4.8602,-4.8965,-4.9426,-4.996,-5.0648,-5.068,-5.1394,-5.234,-5.2373,-5.2373,-5.2473,-5.3169,-5.3897,-5.4626,0.0,0.0,0.0,0.0,0.0,-0.0,-0.0908,-0.1009,-0.0403,0.0,0.0,0.0,0.5244,0.302,0.1308,0.0805,-0.2711,-0.6027,-0.8726,-1.2068,-1.4543,-1.5618,-1.7642,-1.9099,-2.015,-2.1212,-2.1854,-2.212,-2.328,-2.4742,-2.6395,-2.6985,-2.7951,-2.9438,-3.1356,-3.23,-3.2484,-3.4288,-3.5155,-3.5338,-3.5574,-3.5791,-3.5826,-3.5646,-3.5337,-3.4995,-3.5383,-3.5713,-3.6027,-3.6983,-3.7493,-3.7836,-3.8771,-3.9118,-3.9131,-3.9156,-3.8189,-3.7013,-3.6179,0.0,0.0,0.0,0.0,0.0,0.0,0.0,0.0,0.0,0.0,0.0,0.0,0.0,0.0,0.0,0.0,0.0,0.0,0.0,0.0,0.0,0.0,0.0,0.0,0.0,0.0,0.0,-4.5202,-4.5401,-4.4956,-4.5335,-4.5614,-4.5823,-4.5823,-4.5823,-4.5823,-4.6048,-4.6159,-4.6191,-4.6667,-4.6904,-4.6904,-4.7168,-4.7545,-4.7923,-4.8515,-4.9082,-4.9653,-5.0677,-5.131,-5.1645,-5.2175,-5.2373,-5.2473,-5.3169,-5.3897,-5.4626,0.0,0.0,0.0,0.0,0.0,0.0302,0.1009,-0.0605,-0.1008,0.0,0.0,0.0,0.3522,0.0803,-0.1807,-0.392,-0.662,-0.9312,-1.2098,-1.47,-1.6828,-1.8454,-1.9793,-2.0854,-2.1409,-2.2208,-2.2561,-2.2561,-2.3541,-2.4999,-2.6753,-2.7058,-2.8051,-2.9415,-3.1388,-3.2429,-3.2927,-3.4809,-3.5626,-3.5678,-3.6123,-3.6515,0.0,-3.6689,-3.6366,-3.6004,-3.6196,-3.64,-3.6691,-3.7671,-3.8773,-3.9788,-3.9739,-4.0047,-4.047,-4.0253,-3.915,-3.7776,-3.7175,-3.6105,-3.5143,-3.4633,0.0,0.0,-3.4045,-3.4073,0.0,0.0,0.0,0.0,0.0,0.0,0.0,0.0,0.0,0.0,0.0,0.0,0.0,0.0,0.0,0.0,0.0,0.0,0.0,-4.4376,-4.4847,-4.4956,-4.4397,-4.462,-4.4914,-4.5349,-4.5492,-4.5723,-4.5977,-4.6372,-4.6512,-4.6582,-4.6823,-4.6892,-4.6892,-4.6997,-4.7202,-4.7437,-4.7998,-4.843,-4.8763,-5.022,-5.1015,-5.1313,-5.1744,-5.2108,-5.244,-5.2837,-5.3632,-5.4593,0.0,0.0,-0.1917,-0.1917,-0.1211,0.0303,0.3139,-0.0101,-0.1719,0.0,0.1816,0.1308,-0.0,-0.2102,-0.5005,-0.8785,-1.0753,-1.2802,-1.5159,-1.5967,-1.7827,-2.0944,-2.1284,-2.1943,-2.3086,-2.2843,-2.2911,-2.3434,-2.3907,-2.5316,-2.7545,-2.7626,-2.8609,-3.0215,-3.1731,-3.2771,-3.3502,-3.5391,-3.621,-3.607,-3.5783,-3.6619,0.0,0.0,-3.7065,-3.7442,-3.7182,-3.7153,-3.72,-3.7966,-3.9592,-4.1167,-4.011,-4.0862,-4.1849,-4.08,-3.9749,-3.8703,-3.7957,-3.6979,-3.6058,-3.5251,-3.5006,0.0,-3.417,-3.4229,-3.4231,0.0,0.0,0.0,0.0,0.0,0.0,0.0,0.0,0.0,0.0,0.0,0.0,0.0,0.0,0.0,0.0,-4.3217,-4.3559,-4.4356,-4.4356,-4.4304,-4.405,-4.4018,-4.4266,-4.4788,-4.5138,-4.5597,-4.6372,-4.6722,-4.6961,-4.6961,-4.703,-4.703,-4.703,-4.7337,-4.7471,-4.7471,-4.7836,-4.8001,-4.81,-4.9525,-5.0518,-5.1181,-5.1347,-5.181,-5.2373,-5.2373,-5.3301,-5.4527,0.0,-0.2116,-0.3534,-0.3534,-0.2351,-0.2065,-0.3927,-0.2168,-0.1032,-0.196,-0.1724,-0.14,-0.1299,-0.6481,-1.0216,-1.1049,-1.2175,-1.368,-1.5752,-1.7579,-1.9595,-2.2013,-2.3018,-2.3474,-2.3105,-2.4145,-2.4317,-2.3714,-2.54,-2.6812,-2.7971,-2.853,-2.9419,-3.0674,-3.2019,-3.3092,-3.3883,-3.5929,0.0,-3.6516,-3.7625,0.0,-3.8527,-3.8329,-3.7782,-3.722,-3.7742,-3.7828,-3.7838,-3.9612,-4.0576,-4.1227,-4.1822,-4.1363,-4.0761,-4.0936,-4.0057,-3.9036,-3.8682,-3.806,-3.7517,-3.7528,-3.7028,0.0,-3.6747,-3.6337,-3.5754,0.0,0.0,0.0,0.0,0.0,0.0,0.0,0.0,0.0,0.0,0.0,0.0,0.0,0.0,0.0,0.0,-4.2824,-4.2824,-4.3002,-4.3117,-4.3242,-4.3545,-4.3514,-4.4047,-4.5138,-4.5277,-4.5768,-4.6791,-4.7134,-4.727,-4.727,-4.7638,-4.7803,-4.7803,-4.7869,-4.7869,-4.7869,-4.7935,-4.8001,-4.8067,-4.8961,-4.9756,-5.0551,-5.1711,-5.2241,-5.2373,-5.2373,-5.3301,-5.4527,-0.3428,-0.2622,-0.2017,-0.2019,-0.3079,-0.3011,-0.0104,-0.166,-0.3218,-0.321,-0.5284,-0.6708,-0.6679,-1.1161,-1.387,-1.3113,-1.5,-1.6876,-1.8365,-1.9971,-2.1663,-2.3349,-2.3961,-2.41,-2.382,-2.4594,-2.5084,-2.5147,-2.6152,-2.7383,-2.8767,-2.9081,-2.9806,-3.075,-3.2098,-3.3329,-3.4495,0.0,-3.7599,-3.8421,-3.8621,0.0,-3.79,-3.8254,-3.8018,-3.7482,-3.8017,-3.8299,-3.8708,-3.9798,-4.082,0.0,-4.1481,-4.1368,-4.1139,0.0,-3.9816,-3.8866,-3.8807,0.0,0.0,-3.8061,0.0,0.0,0.0,-3.6529,-3.5742,0.0,0.0,0.0,0.0,0.0,0.0,0.0,0.0,0.0,0.0,0.0,0.0,0.0,0.0,0.0,0.0,-4.2147,-4.2519,-4.2829,-4.29,-4.2958,-4.2925,-4.2893,-4.3485,-4.4733,-4.4969,-4.5724,-4.7134,-4.7143,-4.7342,-4.7704,-4.7538,-4.7636,-4.8001,-4.8001,-4.8001,-4.8001,-4.7571,-4.7404,-4.7435,-4.8134,-4.8641,-4.9062,-5.0634,-5.1182,-5.1102,-5.1102,-5.1977,-5.3207,-0.639,-0.3229,-0.0504,-0.0101,-0.35,-0.3962,0.3425,-0.2183,-0.6676,-0.5035,-0.8929,-1.1983,-1.2196,-1.4929,-1.6524,-1.5734,-1.8112,-2.0179,-2.1497,-2.2373,-2.339,-2.4525,-2.4445,-2.4461,-2.4529,-2.4871,-2.5505,-2.6565,-2.673,-2.7787,-2.9496,-2.9626,-3.0114,-3.0825,-3.2071,-3.3409,-3.4786,-3.6751,0.0,-3.9614,0.0,-3.8501,-3.7782,-3.8109,-3.8215,-3.8031,-3.8175,-3.8575,-3.923,-3.9578,-4.0618,-4.1578,-4.0803,-4.1079,0.0,0.0,0.0,0.0,0.0,0.0,0.0,0.0,0.0,-3.7183,0.0,0.0,0.0,0.0,0.0,0.0,0.0,0.0,0.0,0.0,0.0,0.0,0.0,0.0,0.0,0.0,0.0,0.0,0.0,-4.118,-4.1741,-4.2271,-4.2441,-4.2422,-4.2113,-4.2118,-4.2766,-4.4096,-4.4558,-4.5505,-4.6979,-4.6913,-4.7206,-4.7769,-4.7173,-4.7305,-4.8001,-4.8001,-4.7935,-4.7704,-4.7101,-4.6823,-4.684,-4.7437,-4.7662,-4.7774,-4.9341,-4.9873,-4.9837,-4.9963,-5.0816,-5.1922,-0.6295,-0.444,-0.2215,-0.0302,-0.3538,-0.6056,-0.4998,-0.8138,-1.0672,-1.0726,-1.316,-1.469,-1.4183,-1.6021,-1.7998,-1.9709,-2.0245,-2.1507,-2.4078,-2.3634,-2.375,-2.4791,-2.4995,-2.5051,-2.4871,-2.5041,-2.5673,-2.673,-2.7706,-2.8664,-2.9704,-3.0419,-3.0898,-3.1026,-3.1909,-3.3065,-3.4553,0.0,-3.7799,0.0,-3.9924,-4.0629,0.0,-3.9066,-3.8606,-3.8553,-3.8306,-3.8395,-3.8863,0.0,-3.986,-3.9945,0.0,-4.0815,-3.9773,-4.0201,0.0,0.0,0.0,0.0,0.0,0.0,-3.8403,0.0,0.0,0.0,-3.6929,-3.7405,0.0,0.0,0.0,0.0,0.0,0.0,0.0,0.0,0.0,0.0,0.0,0.0,0.0,0.0,0.0,0.0,-3.9466,-3.9689,-4.0134,-4.0545,-4.0798,-4.1277,-4.2077,-4.3327,-4.43,-4.5017,-4.5537,-4.6418,-4.6941,-4.7007,-4.6941,-4.7305,-4.8001,-4.8001,-4.7638,-4.6965,-4.6828,-4.6763,-4.675,-4.7403,-4.7637,-4.7688,-4.919,-4.9821,-4.9868,-5.05,-5.1227,-5.1986,-0.6369,-0.5022,-0.3789,-0.3693,-0.4986,-0.5647,-0.4862,-0.7108,-1.0416,-1.4352,-1.5596,-1.6647,-1.7901,-1.9702,-2.1275,-2.2435,-2.3091,-2.3858,-2.4922,-2.471,-2.4897,-2.5655,-2.5661,-2.5487,-2.5117,-2.5937,-2.6691,-2.736,-2.8585,-2.9626,-3.0419,-3.0823,-3.0973,-3.1026,-3.1677,-3.2618,-3.3966,0.0,-3.8128,0.0,0.0,0.0,0.0,-3.9349,-3.8398,-3.8002,-3.786,-3.7756,-3.7756,0.0,-3.8648,0.0,0.0,0.0,0.0,-3.9017,0.0,0.0,0.0,0.0,0.0,0.0,0.0,0.0,-3.8196,0.0,-3.6985,0.0,0.0,0.0,0.0,0.0,0.0,0.0,-3.9134,0.0,0.0,0.0,0.0,0.0,0.0,0.0,0.0,0.0,0.0,0.0,0.0,-3.9971,-4.0446,-4.0767,-4.147,-4.259,-4.3427,-4.4269,-4.5017,-4.5667,-4.6222,-4.665,-4.6843,-4.7305,-4.8001,-4.8001,-4.7571,-4.6759,-4.634,-4.5855,-4.5428,-4.5649,-4.5879,-4.6169,-4.7167,-4.779,-4.8218,-4.8718,-4.9474,-5.0232,-0.7382,-0.5994,-0.5248,-0.6757,-0.6741,-0.6395,-0.6159,-0.8187,-1.1676,-1.6826,-1.7838,-1.8957,-2.1408,-2.2868,-2.4212,-2.529,-2.5799,-2.6059,0.0,-2.6104,-2.5993,-2.5952,-2.6032,-2.5813,-2.5321,-2.6476,-2.7463,-2.8056,-2.9131,-3.0114,-3.0973,-3.0973,-3.1078,-3.1235,-3.1653,-3.2488,-3.3674,0.0,-3.7853,-3.8878,-4.0383,-4.0938,-4.0737,-3.9268,-3.8083,-3.7298,-3.7453,-3.7217,-3.6852,-3.6896,-3.7619,0.0,-3.7364,0.0,0.0,0.0,0.0,0.0,-3.8362,0.0,0.0,0.0,0.0,0.0,0.0,0.0,0.0,0.0,0.0,0.0,0.0,0.0,-3.8751,-3.9103,0.0,-3.961,0.0,0.0,0.0,0.0,0.0,0.0,0.0,0.0,0.0,-3.951,-3.9361,-3.9365,-3.9891,-4.029,-4.0928,-4.1757,-4.2717,-4.3457,-4.4009,-4.4756,-4.5505,-4.6094,-4.6518,-4.7207,-4.8001,-4.8001,-4.7571,-4.6759,-4.6056,-4.5352,-4.4772,-4.4349,-4.4661,-4.5327,-4.5809,-4.646,-4.7022,-4.7582,-4.8413,-4.9248,-0.9784,-0.7788,-0.6469,-0.8385,-0.8713,-0.9619,-1.2486,-1.4546,-1.6386,-1.8043,-1.9931,0.0,0.0,0.0,0.0,-2.8785,0.0,-2.786,-2.8615,-2.7749,-2.6641,-2.5337,-2.6082,-2.6305,-2.5585,-2.6411,-2.7476,-2.8763,-2.9169,-2.996,-3.0973,-3.0973,-3.1287,-3.181,-3.1759,-3.2568,-3.3964,-3.5402,-3.6534,-3.7349,-3.8824,-3.9195,-3.8953,0.0,-3.8123,-3.6755,-3.7298,0.0,0.0,-3.7021,-3.7253,0.0,0.0,0.0,0.0,0.0,0.0,0.0,0.0,0.0,0.0,-4.05,0.0,0.0,0.0,0.0,-4.1597,0.0,0.0,0.0,0.0,-4.0149,-3.9773,-3.9511,-3.9787,0.0,0.0,0.0,0.0,0.0,0.0,0.0,0.0,0.0,0.0,-3.7666,-3.8065,-3.838,-3.8552,-3.9706,-4.0472,-4.0673,-4.2331,-4.2845,-4.2173,-4.3945,-4.4984,-4.5341,-4.5996,-4.6914,-4.8001,-4.8001,-4.7571,-4.6759,-4.6056,-4.5634,-4.5418,-4.4368,-4.4793,-4.5954,-4.6109,-4.6605,-4.7248,-4.8168,-4.9094,-4.9931,-1.1671,-1.1189,-1.0913,-1.1913,-1.1795,-1.2356,-1.4631,-1.6389,-1.8213,0.0,-2.2983,0.0,0.0,-2.8483,-2.914,0.0,0.0,-2.886,-2.8654,-2.8033,-2.7489,-2.7034,-2.7649,-2.7721,-2.7187,-2.882,-2.9748,-2.9891,-3.0453,-3.1189,-3.1967,-3.1654,-3.1939,-3.262,-3.262,-3.3013,0.0,0.0,0.0,0.0,0.0,-3.8935,-3.8666,0.0,0.0,-3.6625,-3.6264,-3.5698,0.0,-3.5072,-3.5502,-3.5982,-3.5429,-3.6185,-3.7148,-3.7016,-3.7779,0.0,0.0,0.0,-4.0555,-4.1234,0.0,0.0,0.0,0.0,0.0,0.0,0.0,0.0,0.0,-3.9993,-3.9802,-3.9409,-4.0155,-4.0493,0.0,0.0,0.0,0.0,0.0,0.0,0.0,0.0,0.0,-3.8033,-3.7886,-3.7924,-3.8322,-3.885,-3.934,-3.985,-4.0927,-4.1595,-4.1785,-4.3069,-4.4039,-4.4655,-4.5832,-4.6815,-4.7638,-4.7869,-4.7571,-4.6759,-4.6056,-4.5383,-4.4772,-4.3708,-4.4027,-4.5102,-4.5405,-4.6398,-4.7736,-4.8536,-4.9198,-4.9774,-1.4445,-1.4676,-1.4655,-1.3701,0.0,-1.4447,-1.5602,-1.8007,0.0,0.0,-2.5256,0.0,-2.9948,0.0,-3.0741,0.0,-3.0724,-2.9969,-2.8938,-2.8731,0.0,-2.7469,-2.825,-2.8413,-2.8003,-2.9753,-3.0628,-3.0348,-3.1276,-3.1861,-3.2096,-3.1863,-3.2096,-3.2697,-3.312,-3.3542,-3.399,-3.5843,-3.668,0.0,0.0,-3.8622,0.0,0.0,-3.7272,-3.6996,0.0,-3.5878,-3.5208,-3.4587,-3.5032,-3.5697,-3.4889,-3.5903,-3.7353,-3.7229,-3.8086,-3.9276,-4.0147,-4.067,0.0,-4.2365,-4.2832,0.0,-4.2882,0.0,0.0,0.0,0.0,0.0,0.0,-4.0456,-4.0201,-3.9798,-4.0439,-4.0769,0.0,-3.9881,0.0,0.0,0.0,0.0,0.0,0.0,-3.8642,-3.8205,-3.7828,-3.7743,0.0,0.0,-3.893,-3.9471,-4.023,-4.0925,-4.1588,-4.2805,-4.3738,-4.4522,-4.5893,-4.6912,-4.7638,-4.7869,-4.7704,-4.7169,-4.641,-4.5769,-4.5036,-4.4295,-4.4338,-4.4892,-4.5756,-4.6839,-4.8056,-4.8858,-4.9427,-5.0135,0.0,-1.8013,0.0,0.0,-1.4824,0.0,0.0,0.0,-2.2955,0.0,-2.6691,-2.9152,-3.0329,-3.0802,-3.1187,-3.1595,-3.1861,-3.1319,-2.9559,-2.9933,0.0,-2.6921,-2.8129,-2.8571,-2.8091,-2.9433,-3.0277,-3.0445,-3.1599,-3.1909,-3.1603,-3.1759,-3.1992,-3.2354,-3.3542,0.0,-3.4446,-3.6404,-3.7187,-3.7241,-3.8397,-3.8354,-3.7616,-3.7574,-3.7596,-3.7651,-3.7836,-3.7318,-3.6331,-3.5495,-3.5774,-3.6385,-3.5632,-3.6302,-3.7396,-3.7368,-3.8296,-3.963,-4.0323,-4.14,-4.2572,-4.37,0.0,0.0,0.0,0.0,-4.5667,0.0,0.0,0.0,0.0,0.0,-4.0974,-4.0624,-4.0677,-4.0702,-4.0444,-4.0737,-4.0641,0.0,0.0,0.0,0.0,-3.9658,-3.9055,-3.7982,-3.7943,-3.7801,0.0,0.0,-3.9109,-3.9471,-4.0166,-4.0893,-4.1686,-4.2979,-4.4086,-4.4886,-4.618,-4.727,-4.8001,-4.8001,-4.8001,-4.7935,-4.7101,-4.662,-4.6326,-4.5903,-4.5611,-4.543,-4.7197,-4.8056,-4.8424,-4.901,-4.9881,-5.0768,-1.9521,-1.8581,-1.7592,0.0,-1.6952,-1.7581,0.0,0.0,0.0,0.0,-2.8862,-3.1211,-3.1978,-3.2313,-3.2448,-3.2246,-3.2268,0.0,0.0,0.0,0.0,-3.0313,-3.1426,-3.1783,-3.1243,-3.1918,-3.2301,-3.2361,-3.2143,-3.2418,-3.3142,-3.2855,-3.3542,-3.5059,-3.5517,-3.6058,-3.671,-3.7169,-3.7115,-3.6623,-3.7631,-3.7679,0.0,0.0,-3.8167,-3.8125,-3.6989,-3.6251,-3.5764,-3.5602,-3.6007,-3.6551,-3.6302,-3.7346,-3.8686,-3.8847,-3.9749,-4.0766,-4.1445,-4.2123,-4.2652,-4.3168,-4.4187,-4.5111,0.0,0.0,0.0,0.0,0.0,0.0,0.0,0.0,0.0,-4.1361,-4.1155,-4.1091,-4.1204,-4.0483,0.0,-4.0293,0.0,0.0,0.0,-3.9317,-3.9082,-3.8327,-3.8262,-3.8205,-3.818,0.0,0.0,-3.9875,-4.0036,-4.1023,-4.2746,-4.3129,-4.4099,-4.5532,-4.5921,-4.6645,-4.7538,-4.7538,-4.7704,-4.7935,-4.686,-4.666,-4.6925,-4.5894,-4.5677,-4.6172,-4.7551,-4.8953,-5.0159,-5.0307,-5.0441,-5.0635,-2.0786,0.0,0.0,-1.8028,0.0,0.0,-2.0117,0.0,0.0,-2.7176,-2.9702,0.0,-3.217,-3.2474,-3.2415,-3.1976,-3.2044,0.0,-3.1844,0.0,0.0,-3.224,-3.3098,-3.3188,-3.2418,-3.255,-3.2777,-3.2887,-3.2899,-3.3276,-3.4037,-3.4252,-3.4846,-3.5758,-3.6824,-3.7511,-3.7868,-3.8809,-3.8977,-3.87,-3.8651,0.0,0.0,-3.8002,-3.8143,-3.8057,-3.7046,-3.6697,-3.6716,-3.665,-3.7063,-3.7802,-3.7924,-3.8999,-4.0176,-4.0416,-4.0999,-4.1727,-4.2289,-4.2637,-4.2924,-4.335,-4.4122,-4.481,-4.4877,-4.4959,-4.5212,0.0,0.0,0.0,0.0,0.0,0.0,-4.178,-4.1417,-4.1288,-4.1456,0.0,0.0,0.0,-3.9684,0.0,0.0,-3.9295,-3.9178,-3.8609,-3.8544,-3.8488,0.0,0.0,0.0,-4.0148,-4.0823,-4.1914,-4.3395,-4.4361,-4.5271,-4.6092,-4.6318,-4.6878,-4.7638,-4.7638,-4.7704,-4.7737,-4.7424,-4.7291,-4.7349,-4.6872,-4.6689,-4.6833,-4.8027,-4.9429,-5.0822,-5.1105,-5.0873,-5.0638,0.0,0.0,0.0,0.0,0.0,0.0,0.0,-2.4307,0.0,-2.8379,0.0,-3.1197,-3.1604,-3.1852,-3.18,-3.148,0.0,-3.2128,-3.251,-3.3312,-3.3564,-3.3353,-3.3932,-3.3784,-3.2653,-3.2463,-3.2533,-3.2944,-3.3695,-3.4397,-3.4857,-3.5808,-3.6168,-3.609,-3.7923,0.0,0.0,-4.0757,-4.1645,-4.1555,-4.0547,-3.9381,-3.8233,-3.8255,-3.8117,-3.7896,-3.7728,-3.7886,-3.8185,-3.7926,-3.8474,-3.9237,-3.9666,-4.0526,-4.128,-4.1607,-4.1952,-4.2342,-4.2743,-4.2986,-4.3229,-4.3745,-4.4164,-4.4439,-4.4287,-4.4766,-4.5035,-4.4556,-4.4619,-4.4357,0.0,0.0,0.0,-4.2147,0.0,0.0,0.0,0.0,0.0,0.0,0.0,0.0,0.0,0.0,-3.9251,-3.8909,-3.8876,-3.8766,0.0,0.0,0.0,-4.0507,-4.1869,0.0,-4.4074,0.0,-4.6808,-4.675,-4.7175,-4.7571,-4.7935,-4.7803,-4.7704,-4.7533,-4.7981,-4.7955,-4.7467,-4.798,-4.7893,-4.7524,-4.8416,-4.9637,-5.0862,-5.1359,-5.1121,-5.0577,0.0,0.0,0.0,0.0,0.0,-2.407,-2.7283,-2.8238,-2.9087,-3.0256,-3.1543,-3.2191,-3.1584,-3.1544,-3.18,-3.2383,-3.2685,0.0,0.0,0.0,0.0,-3.5412,-3.5746,-3.5425,-3.4329,-3.3557,-3.3717,-3.4835,-3.4495,-3.5277,-3.7288,-3.7345,-3.8193,-3.9527,0.0,0.0,-4.1377,-4.2378,0.0,-4.0867,-4.0998,-4.0379,-3.9397,-3.941,-3.9235,-3.8984,-3.8643,-3.8413,-3.8144,-3.7709,-3.8318,-3.9334,-3.9873,-4.0184,-4.0538,-4.141,-4.1715,-4.1833,-4.1866,-4.2757,-4.3482,-4.2952,-4.3344,-4.3927,-4.4197,-4.4407,-4.4698,-4.5311,-4.5193,-4.4898,-4.4891,0.0,0.0,0.0,0.0,0.0,0.0,0.0,0.0,0.0,0.0,-3.9674,0.0,0.0,0.0,0.0,0.0,-3.9202,0.0,0.0,0.0,0.0,-4.1651,0.0,0.0,0.0,-4.7176,-4.8563,-4.7531,-4.7167,-4.7471,-4.686,-4.7044,-4.7767,-4.7075,-4.7012,-4.746,-4.7219,-4.7654,-4.8373,-4.8385,-4.9344,-5.0667,-5.1212,-5.0964,-5.0384,0.0,0.0,0.0,0.0,0.0,0.0,0.0,-2.9756,0.0,-3.184,-3.1596,-3.1427,-3.1351,-3.2009,-3.2484,-3.2727,-3.3346,-3.4115,-3.5084,-3.5802,-3.6152,-3.6102,-3.6479,-3.6038,-3.4751,-3.4464,-3.4597,-3.5148,-3.5562,-3.6685,-3.8361,-3.9283,-4.0342,-4.1394,0.0,-4.3175,0.0,0.0,0.0,-4.3031,-4.1924,-4.1179,-4.0707,-3.9715,-3.9348,-3.9304,-3.9015,-3.9033,-3.8969,-3.8647,-3.9127,-3.9867,-4.0002,-4.0321,-4.0691,-4.1087,-4.145,-4.1735,-4.2136,-4.2844,-4.3427,-4.3175,-4.3596,-4.4028,-4.3998,-4.4509,-4.498,-4.486,-4.4959,-4.5353,-4.5988,-4.5551,0.0,0.0,0.0,0.0,0.0,0.0,-4.1897,0.0,0.0,0.0,0.0,0.0,0.0,0.0,0.0,0.0,0.0,0.0,0.0,0.0,0.0,0.0,0.0,0.0,0.0,-4.8531,-4.7601,-4.7202,-4.7404,-4.686,-4.6775,-4.7059,-4.6582,-4.651,-4.6656,-4.6722,-4.7382,-4.8473,-4.8833,-4.9733,-5.088,-5.1297,-5.1172,-5.0778,0.0,-2.2782,0.0,0.0,-2.5775,0.0,-2.9259,-3.0567,-3.1716,-3.2522,-3.1369,-3.0655,-3.0984,-3.2333,-3.3173,-3.3048,-3.4026,-3.4997,-3.5686,-3.5771,-3.6026,-3.6358,-3.6601,-3.5998,-3.4685,-3.4805,-3.4944,-3.5003,-3.6471,-3.7857,-3.9169,-4.0944,-4.2051,0.0,0.0,0.0,0.0,0.0,-4.4708,-4.4996,-4.2742,-4.1922,-4.1865,-4.0003,-3.9421,-3.9555,-3.9431,-3.958,-3.9904,-3.9871,-4.0099,-4.0354,-4.0197,-4.0379,-4.0662,-4.0636,-4.1008,-4.1588,-4.2239,-4.2797,-4.318,-4.3566,-4.3698,-4.3678,-4.3476,-4.4357,-4.4921,-4.4248,-4.4986,-4.6083,-4.6855,-4.6797,0.0,0.0,0.0,0.0,0.0,0.0,0.0,0.0,0.0,0.0,-4.042,0.0,0.0,0.0,0.0,-3.94,-3.9202,-3.9787,0.0,0.0,0.0,-4.514,-4.5697,0.0,-4.8231,-4.8034,-4.7435,-4.7202,-4.7134,-4.6652,-4.6532,-4.6638,-4.626,-4.6051,-4.5948,-4.629,-4.7066,-4.8117,-4.898,-4.9791,-5.0634,-5.1076,-5.1133,-5.0896,0.0,0.0,0.0,0.0,0.0,0.0,-3.195,-3.1556,-3.1152,-3.1525,-3.1486,-3.123,-3.0917,-3.1998,-3.3182,-3.4112,-3.4907,-3.5816,-3.6972,-3.6392,-3.6111,-3.6432,-3.6158,-3.5556,-3.4413,-3.4312,-3.4535,0.0,-3.6471,-3.8226,0.0,-4.1764,-4.268,0.0,0.0,0.0,0.0,-4.5008,-4.5008,-4.4868,-4.3223,-4.2634,-4.2466,-4.083,-4.0278,-4.0308,-4.0263,-4.0263,-4.0412,-4.0812,-4.0742,-4.0461,-4.0197,-3.977,-3.9441,-3.9765,-4.0359,-4.1015,-4.1398,-4.1953,-4.2581,-4.318,-4.2647,-4.2032,-4.262,-4.2938,-4.338,-4.4098,-4.6019,-4.758,-4.758,-4.7822,-4.7837,0.0,0.0,0.0,0.0,0.0,-4.3521,-4.1637,0.0,0.0,0.0,-3.9913,0.0,0.0,-3.9048,-3.9542,-3.8909,-3.9194,-3.9703,-4.0475,0.0,-4.3033,-4.5323,-4.5548,-4.6426,-4.8004,-4.6904,-4.6442,-4.6372,-4.5405,-4.5978,-4.7612,-4.5859,-4.5505,-4.6167,-4.6043,-4.6539,-4.7399,-4.7976,-4.8743,-4.9494,-4.9781,-4.9866,-4.9866,0.0,0.0,0.0,0.0,0.0,0.0,0.0,-3.1386,-3.1171,-3.2145,-3.2281,-3.22,-3.2038,-3.3685,-3.5002,-3.5466,-3.6348,-3.6848,-3.6747,-3.6416,-3.6109,-3.5673,-3.5743,-3.5466,-3.4885,-3.5002,-3.5327,0.0,0.0,0.0,0.0,0.0,0.0,0.0,0.0,-4.5597,-4.483,-4.464,-4.4429,-4.4134,-4.265,-4.2349,-4.25,-4.0678,-4.0111,-4.0457,-4.0846,-4.0995,-4.1145,-4.196,-4.1814,-4.1057,-4.0032,-3.978,-3.9828,-3.9341,-4.0022,-4.0914,-4.083,-4.164,-4.2466,-4.2346,-4.2078,-4.197,-4.2318,-4.3062,-4.3884,-4.4389,-4.6579,-4.8482,-4.8491,-4.9046,-4.9321,0.0,0.0,0.0,0.0,0.0,0.0,-4.1627,0.0,-4.0075,0.0,0.0,0.0,0.0,0.0,-3.9178,-3.8576,-3.9237,-3.9766,-4.0116,0.0,-4.3405,-4.4605,-4.5437,-4.6384,-4.7313,-4.6641,-4.6301,-4.6301,-4.6066,-4.6372,-4.681,-4.5263,-4.5119,-4.6048,-4.607,-4.6681,-4.777,-4.842,-4.898,-4.9597,-4.9766,-4.9766,-4.9704,-2.7299,0.0,-2.7766,0.0,-3.0882,-3.1504,-3.168,-3.1348,-3.1483,-3.2592,-3.3006,-3.3233,-3.3233,-3.5024,-3.6231,-3.6231,-3.7051,-3.71,-3.6255,-3.592,-3.5517,-3.4969,-3.4969,0.0,-3.5276,-3.5294,-3.5647,-3.634,-3.7246,0.0,0.0,0.0,0.0,0.0,-4.4796,-4.5122,-4.4559,-4.4188,-4.3858,-4.3476,-4.2152,-4.1912,-4.2122,-4.0317,-3.9974,-4.0487,-4.1145,-4.1384,-4.1594,-4.2723,-4.2604,-4.1853,-4.0323,-4.0158,-4.0323,-3.918,-3.9965,-4.1037,-4.0502,-4.1355,-4.2258,-4.2001,-4.1724,-4.1614,-4.2375,-4.3082,-4.3789,-4.475,-4.7052,-4.894,-4.896,-4.9526,-4.9858,-4.9326,0.0,0.0,0.0,-4.4186,0.0,-4.155,-4.0307,-3.9781,-4.017,-3.9792,0.0,0.0,0.0,0.0,-3.8882,-3.9301,0.0,0.0,0.0,0.0,0.0,-4.5221,-4.5968,-4.6545,-4.6333,-4.6159,-4.6223,-4.6856,-4.6934,-4.6609,-4.5849,-4.5943,-4.6646,-4.6506,-4.7117,-4.8025,-4.8566,-4.9005,-4.9374,-4.9542,-4.9542,-4.948,-2.673,-2.825,-2.9867,-3.0696,-3.1865,-3.2637,-3.2226,-3.1797,-3.182,-3.2633,-3.3685,-3.4336,-3.4336,-3.5466,-3.6231,-3.6231,-3.6284,-3.6207,-3.5695,-3.4628,-3.4139,0.0,0.0,-3.4171,-3.5504,-3.5021,-3.5383,-3.6479,0.0,0.0,-3.9086,0.0,-4.2763,-4.1994,-4.3908,-4.4589,-4.4257,-4.3629,-4.3329,-4.321,-4.1893,-4.1384,-4.1265,-3.9918,-3.9828,-4.0487,-4.1145,-4.1384,-4.1564,-4.288,-4.317,-4.2743,-4.1233,-4.0772,-4.0583,-3.9432,-4.004,-4.1037,-4.0502,-4.1055,-4.1866,-4.2509,-4.1524,-4.0839,-4.2872,-4.2404,-4.2386,-4.5142,-4.7448,-4.8995,-4.8895,-4.8952,-4.9068,-4.916,0.0,0.0,0.0,0.0,0.0,-4.1038,-4.1295,-4.1032,-3.9677,-4.0245,0.0,0.0,0.0,0.0,0.0,0.0,0.0,-4.1428,-4.1014,0.0,-4.4184,-4.4216,-4.4736,-4.5823,-4.5823,-4.5823,-4.5855,-4.7245,-4.7731,-4.7608,-4.8266,-4.8377,-4.8179,-4.7764,-4.7794,-4.8049,-4.8218,-4.8469,-4.8635,-4.8635,-4.88,-4.9027,-2.9532,-2.9952,-3.0641,-3.2333,-3.2487,-3.2324,-3.2187,-3.1562,-3.1503,-3.2592,-3.3685,-3.467,-3.5576,-3.6665,-3.7441,0.0,-3.714,-3.6589,0.0,-3.4933,-3.4152,-3.3157,-3.3408,-3.3791,-3.429,-3.3884,-3.4654,-3.6467,0.0,0.0,0.0,-4.0586,-4.1278,-4.0798,-4.3177,-4.3997,-4.3629,-4.3419,-4.306,-4.2611,-4.159,-4.1308,-4.1324,-4.0785,-4.0755,-4.1145,-4.1803,-4.1773,-4.1594,-4.3067,-4.3139,-4.2503,-4.2192,-4.159,-4.0914,-4.0575,-4.0531,-4.0711,-4.0995,-4.1728,-4.2417,-4.2107,-4.2228,-4.2579,-4.3193,-4.4313,-4.5539,-4.6939,-4.8526,-4.936,-4.8413,-4.863,-4.8686,-4.7692,-4.6275,0.0,0.0,0.0,-4.1945,-4.0632,-4.0255,-4.0132,0.0,-3.9985,0.0,0.0,0.0,0.0,0.0,0.0,0.0,0.0,-4.1657,0.0,-4.4216,-4.4684,-4.5206,-4.5823,-4.5823,-4.6297,-4.7245,-4.7549,-4.7872,-4.8235,-4.7824,-4.7729,-4.7734,-4.7141,-4.7455,-4.8157,-4.7782,-4.8039,-4.8604,-4.88,-4.8914,-4.9078,-3.1283,-3.1342,-3.1702,-3.3301,-3.2988,-3.2474,-3.2299,-3.1696,-3.1761,-3.2839,-3.3791,-3.4891,-3.6013,-3.7334,0.0,-3.7974,-3.7324,-3.6542,-3.5695,-3.4707,-3.3638,-3.2512,-3.2572,-3.2935,-3.3599,0.0,0.0,-3.7034,-3.7137,-3.7651,-3.8612,-4.0151,-4.0796,-4.0661,-4.2743,-4.3477,-4.314,-4.2981,-4.2731,-4.2312,-4.1501,-4.1458,-4.1713,-4.1322,-4.1458,-4.1803,-4.2222,-4.2102,-4.2,-4.3157,-4.3452,-4.332,-4.332,-4.2985,-4.245,-4.1791,-4.1802,-4.2077,-4.223,-4.2953,-4.3482,-4.3037,-4.3352,-4.378,-4.4137,-4.5796,-4.7339,-4.7704,-4.8563,-4.8921,-4.7928,-4.7774,-4.7564,-4.6828,-4.5651,-4.4607,-4.3846,0.0,-4.1628,0.0,0.0,0.0,0.0,-4.0139,-4.0096,0.0,0.0,0.0,0.0,0.0,0.0,-4.2009,-4.2612,0.0,-4.4768,-4.5133,-4.5499,-4.5823,-4.6076,-4.6771,-4.7909,-4.8022,-4.8561,-4.9519,-4.8568,-4.8337,-4.8543,-4.762,-4.766,-4.821,-4.7426,-4.7804,-4.8769,-4.8929,-4.9153,-4.9582,-3.1914,-3.2492,0.0,0.0,-3.3379,0.0,-3.2373,-3.2196,-3.2474,-3.3059,-3.387,-3.4825,-3.5904,-3.7203,-3.7974,-3.7974,0.0,0.0,0.0,-3.4124,-3.2994,-3.2466,-3.1502,-3.178,-3.3392,-3.2882,-3.4195,-3.7646,-3.8978,-3.9619,-3.9568,-4.0518,-4.1057,-4.131,-4.2496,-4.2981,-4.2951,-4.2503,-4.2312,-4.2312,-4.1654,-4.1773,-4.2282,-4.1743,-4.1893,-4.2432,-4.2432,-4.2479,-4.2617,-4.3199,-4.4051,-4.475,-4.4662,-4.4757,-4.4706,-4.3127,-4.3591,-4.4535,-4.3902,-4.4426,-4.5053,-4.5081,-4.4787,-4.4715,-4.5462,-4.6782,-4.7835,-4.7638,-4.7688,-4.7713,-4.734,-4.638,-4.5848,-4.6245,-4.5351,-4.4298,-4.3777,0.0,-4.1949,0.0,0.0,0.0,0.0,-4.0708,-4.0777,0.0,0.0,0.0,0.0,0.0,-4.1055,-4.3573,-4.3697,-4.4382,-4.5792,-4.5573,-4.5677,-4.5823,-4.656,-4.7257,-4.7985,-4.8726,-4.9777,-5.1027,-5.0197,-4.9962,-4.9977,-4.8592,-4.8078,-4.811,-4.7194,-4.7694,-4.9004,-4.8844,-4.9423,-5.0384,0.0,0.0,-3.3658,-3.3386,-3.355,-3.3282,-3.244,-3.2196,-3.2133,-3.192,-3.3707,-3.4862,-3.4825,-3.6881,-3.8315,-3.8315,-3.7115,-3.6207,-3.5671,-3.4504,-3.325,-3.1961,-3.2086,-3.2113,-3.2153,-3.214,-3.3376,-3.5872,-3.795,-3.8893,-3.8978,-4.0182,-4.0802,-4.1057,-4.2117,-4.2688,-4.2921,-4.187,-4.1769,-4.2312,-4.1501,-4.162,-4.2402,-4.2574,-4.2812,-4.312,-4.312,-4.315,-4.3394,-4.4143,-4.4545,-4.4858,-4.5466,-4.6,-4.6062,-4.452,-4.4047,-4.3997,-4.4275,-4.5016,-4.5591,-4.5532,-4.6126,-4.6739,-4.6872,-4.745,-4.7833,-4.7521,-4.7105,-4.6615,-4.5865,-4.5496,-4.5244,-4.4899,-4.4064,-4.3449,-4.3432,-4.2334,0.0,0.0,-4.094,-4.0812,-4.0182,-4.0609,-4.0812,0.0,0.0,0.0,0.0,-4.1601,-4.2359,-4.3643,-4.4197,-4.4921,-4.5792,-4.575,-4.5864,-4.6191,-4.6893,-4.7773,-4.8771,-4.9848,-5.038,-5.0615,-5.0145,-4.9432,-4.8592,-4.7184,-4.6811,-4.7132,-4.6377,-4.7294,-4.8891,-4.8428,-4.9393,-5.0887,-3.19,-3.3031,-3.3916,-3.376,-3.3457,-3.3112,-3.25,-3.2148,-3.1777,-3.1543,-3.3393,-3.4619,-3.4469,-3.675,-3.8421,-3.8526,-3.7448,-3.6614,-3.6309,-3.4766,-3.3311,-3.2323,-3.1973,-3.1716,-3.1713,-3.2154,-3.3756,-3.6442,-3.8078,-3.923,-3.98,-4.0485,-4.1053,-4.1535,-4.2146,-4.2526,-4.2761,-4.1863,-4.2037,-4.2761,-4.2102,-4.2222,-4.2851,-4.321,-4.3329,-4.3329,-4.3693,-4.3915,-4.4093,-4.4911,-4.5516,-4.5827,-4.6212,-4.6896,-4.7174,-4.5986,-4.5433,-4.5273,-4.5594,-4.5732,-4.5832,-4.5734,-4.6314,-4.6886,-4.722,-4.7474,-4.7698,-4.7751,-4.7312,-4.6636,-4.5624,-4.5284,-4.4968,-4.4231,-4.3772,-4.3476,-4.3262,-4.2301,0.0,-4.1497,-4.1278,-4.1024,-4.0891,-4.1225,-4.1207,-4.0892,-4.087,0.0,-4.1523,-4.273,-4.3434,-4.3706,-4.4615,-4.534,-4.5823,-4.5823,-4.6167,-4.6781,-4.7549,-4.8473,-4.9515,-5.0449,-5.0806,-5.0658,-5.0489,-4.9618,-4.8301,-4.7299,-4.6925,-4.6795,-4.6184,-4.7,-4.858,-4.9134,-5.0118,-5.1316,-3.256,-3.3285,-3.4033,-3.4572,-3.3633,-3.2754,-3.2512,-3.1956,-3.1463,-3.1404,-3.3111,-3.4199,-3.4224,-3.6356,-3.7959,-3.838,-3.7506,-3.6995,-3.7095,-3.5042,-3.3552,-3.2954,-3.1926,-3.153,-3.1896,-3.2942,-3.4889,-3.7786,-3.8802,-3.9886,-4.096,-4.1047,-4.1453,-4.2092,-4.2228,-4.2474,-4.2659,-4.2297,-4.2701,-4.3506,-4.3075,-4.3227,-4.3566,-4.3675,-4.3596,-4.3488,-4.4282,-4.4586,-4.4887,-4.5624,-4.655,-4.7237,-4.7101,-4.7572,-4.8127,-4.7436,-4.7204,-4.7104,-4.6941,-4.6444,-4.5947,-4.5947,-4.6105,-4.6396,-4.7028,-4.7287,-4.7517,-4.7928,-4.7558,-4.6886,-4.581,-4.5363,-4.4849,-4.3997,-4.3981,-4.3864,-4.3295,0.0,-4.1944,-4.1997,-4.1403,-4.12,-4.1745,-4.1866,-4.1789,-4.1504,-4.2149,-4.2428,-4.2147,-4.3622,-4.4283,-4.3895,-4.4984,-4.5646,-4.5864,-4.5936,-4.647,-4.7573,-4.8216,-4.9143,-5.0286,-5.0904,-5.1132,-5.1074,-5.0942,-5.0091,-4.8796,-4.8199,-4.7758,-4.7352,-4.6693,-4.7405,-4.899,-5.046,-5.1327,-5.2135,-3.3035,-3.4183,-3.5076,-3.5212,-3.4211,-3.3095,-3.227,-3.1866,-3.1571,-3.1185,-3.2468,-3.3445,-3.3275,-3.4384,-3.5649,-3.6963,-3.6314,-3.6111,-3.6824,-3.5448,-3.4181,-3.3179,-3.3198,-3.3015,-3.2647,-3.4893,-3.6619,-3.7532,-3.9161,-4.006,-4.0263,-4.0815,-4.1453,-4.2092,-4.2092,-4.231,-4.271,-4.2831,-4.3532,-4.4524,-4.4037,-4.4266,-4.4737,-4.4189,-4.391,-4.3957,-4.4541,-4.5184,-4.5913,-4.662,-4.7372,-4.8033,-4.8194,-4.8356,-4.852,-4.8827,-4.8462,-4.7863,-4.7137,-4.6808,-4.6709,-4.6709,-4.6869,-4.7028,-4.6938,-4.7162,-4.7321,-4.7168,-4.6666,-4.5963,-4.5047,-4.4815,-4.4577,-4.4031,-4.3747,-4.3687,-4.378,0.0,-4.1712,-4.2134,-4.148,-4.1037,-4.1232,-4.1709,-4.2209,-4.2682,-4.2332,-4.2463,-4.3437,-4.3977,-4.4432,-4.477,-4.5453,-4.5936,-4.623,-4.6545,-4.7249,-4.8348,-4.8478,-4.9509,-5.1317,-5.1416,-5.1591,-5.1799,-5.1162,-5.0593,-5.0023,-4.8828,-4.8796,-4.9546,-4.8961,-5.0025,-5.1956,-5.1754,-5.2934,-5.466,-3.2685,-3.4515,-3.5713,-3.553,-3.4311,-3.3038,-3.1707,-3.0957,-3.0584,-3.0372,-3.1908,-3.2809,-3.2559,-3.3616,-3.4865,-3.6001,-3.5497,-3.5547,-3.6351,-3.5263,-3.4354,-3.3835,-3.331,-3.3227,-3.3935,-3.6392,-3.7863,-3.8193,-3.9126,-3.9973,-4.0641,-4.0979,-4.1666,-4.2607,-4.314,-4.3585,-4.3866,-4.4229,-4.4809,-4.5416,-4.5358,-4.5492,-4.5634,-4.5447,-4.53,-4.53,-4.5921,-4.6416,-4.6864,-4.7572,-4.8065,-4.8356,-4.8483,-4.8751,-4.9153,-4.9423,-4.9093,-4.8398,-4.7206,-4.6908,-4.6808,-4.6411,-4.6374,-4.6537,-4.6808,-4.7035,-4.7198,-4.7469,-4.727,-4.6806,-4.6013,-4.5549,-4.5246,-4.4976,-4.4218,0.0,0.0,-4.2944,-4.2077,-4.2698,-4.2014,-4.1703,-4.209,-4.2465,-4.2809,-4.3016,-4.2713,-4.2877,-4.3778,-4.4216,-4.4804,-4.5539,-4.6103,-4.6667,-4.7232,-4.7513,-4.8413,-4.9875,-4.9944,-5.0852,-5.2401,-5.2401,-5.2371,-5.2266,-5.1928,-5.136,-5.0493,-5.0085,-5.0054,-5.0359,-5.0416,-5.1259,-5.2494,-5.3241,-5.4112,-5.4895,-3.27,-3.4732,-3.5995,-3.5805,-3.3959,-3.2032,-3.0778,-2.9931,-2.9393,-2.9489,-3.0923,-3.1892,-3.1523,-3.2462,-3.363,-3.4923,-3.4653,-3.488,-3.5793,-3.5282,-3.4678,-3.4189,-3.3582,-3.402,-3.5831,-3.7962,-3.9088,-3.9357,-3.97,-4.0354,-4.1317,-4.1418,-4.2192,-4.3349,-4.4174,-4.4706,-4.5005,-4.5674,-4.6103,-4.6346,-4.6726,-4.6694,-4.6592,-4.6588,-4.6486,-4.6416,-4.7104,-4.7373,-4.7506,-4.8322,-4.8681,-4.8815,-4.8879,-4.9382,-5.002,-5.0123,-5.0059,-4.9525,-4.8001,-4.7407,-4.7077,-4.6222,-4.6024,-4.6123,-4.6518,-4.6814,-4.7209,-4.7969,-4.8034,-4.7835,-4.711,-4.648,-4.5947,-4.5491,0.0,0.0,0.0,-4.3135,-4.2441,-4.3105,-4.244,-4.2189,-4.3001,-4.325,-4.3277,-4.3411,-4.3381,-4.3652,-4.4246,-4.4795,-4.5515,-4.6378,-4.7022,-4.7521,-4.7981,-4.8584,-4.9582,-5.0982,-5.1356,-5.2098,-5.3315,-5.3382,-5.3177,-5.269,-5.2819,-5.2286,-5.1386,-5.1332,-5.1498,-5.1775,-5.2027,-5.2577,-5.3427,-5.5062,-5.5472,-5.5437,-3.3874,-3.4978,-3.5782,-3.6302,-3.2845,-2.9944,-2.9836,-2.8894,-2.8404,-2.8785,-2.9424,-2.9872,-3.0076,-2.9939,-3.0719,-3.3056,-3.3321,-3.3912,-3.5421,-3.6152,-3.5621,-3.3667,-3.4856,-3.6637,-3.8948,-3.9728,-4.0379,-4.0937,-4.1518,-4.1833,-4.1922,-4.259,-4.3381,-4.4403,-4.4479,-4.4899,-4.5602,-4.6491,-4.7139,-4.7506,-4.7737,-4.7803,-4.7671,-4.7001,-4.6759,-4.6795,-4.7372,-4.7572,-4.7704,-4.8483,-4.9241,-4.9813,-4.997,-5.0477,-5.122,-5.1731,-5.2133,-5.1918,-4.9974,-4.8879,-4.8155,-4.703,-4.6698,-4.6536,-4.6021,-4.6647,-4.7535,-4.8324,-4.8198,-4.7836,-4.7406,-4.7078,-4.6251,-4.4584,0.0,0.0,-4.3782,-4.2805,-4.2389,-4.3057,-4.2282,-4.2139,-4.319,-4.325,-4.3615,-4.4434,-4.451,-4.4781,-4.5561,-4.5992,-4.6657,-4.7737,-4.833,-4.8463,-4.7902,-4.9626,-5.066,-5.0992,-5.1731,-5.2572,-5.3651,-5.3849,-5.3635,-5.3072,-5.3418,-5.3506,-5.3272,-5.2207,-5.3159,-5.518,-5.4095,-5.4848,-5.6701,-5.708,-5.7425,-5.7747,-3.3347,-3.5085,-3.5871,-3.5718,-3.3293,-3.0673,-2.879,-2.7509,-2.7066,-2.8163,-2.8258,-2.8427,-2.9199,-2.9768,-3.0829,-3.2493,-3.3012,-3.4152,-3.6451,-3.6875,-3.6622,-3.5661,-3.6743,-3.7763,-3.8616,-4.0126,-4.1108,-4.1288,-4.1765,-4.2365,-4.3223,-4.3679,-4.4278,-4.5079,-4.6024,-4.6657,-4.6932,-4.777,-4.8194,-4.8322,-4.8513,-4.8576,-4.8513,-4.8258,-4.8161,-4.8227,-4.8888,-4.912,-4.9251,-5.0012,-5.0447,-5.0747,-5.0811,-5.1285,-5.1963,-5.2606,-5.2771,-5.2491,-5.1113,-4.9987,-4.887,-4.7804,-4.7184,-4.6864,-4.6808,-4.7074,-4.7503,-4.7765,-4.7735,-4.7504,-4.7167,-4.6615,-4.6125,-4.5895,0.0,-4.4756,-4.4917,-4.3902,-4.3169,-4.3433,-4.2982,-4.2823,-4.322,-4.3645,-4.4112,-4.4572,-4.4918,-4.5332,-4.5841,-4.7109,-4.846,-4.9919,-5.0626,-5.0659,-4.9856,-5.0589,-5.1324,-5.1993,-5.2524,-5.299,-5.3524,-5.4126,-5.4385,-5.4295,-5.4417,-5.4539,-5.4675,-5.38,-5.4303,-5.5418,-5.4629,-5.4914,-5.597,-5.6718,-5.7134,-5.7434,-3.2792,-3.4657,-3.5358,-3.4785,-3.255,-3.0146,-2.8125,-2.6975,-2.6718,-2.7748,-2.7846,-2.8163,-2.9075,-2.9876,-3.1021,-3.248,-3.2922,-3.4267,-3.6743,-3.7369,-3.7591,-3.7578,-3.8147,-3.8581,-3.8921,-4.0713,-4.172,-4.1901,-4.2533,-4.3317,-4.4205,-4.4977,-4.5516,-4.5913,-4.7362,-4.8001,-4.7968,-4.858,-4.8832,-4.8894,-4.8956,-4.9018,-4.9018,-4.9018,-4.9018,-4.9086,-4.983,-5.0101,-5.0139,-5.0882,-5.1321,-5.1524,-5.1555,-5.2063,-5.2707,-5.3112,-5.3041,-5.2694,-5.1842,-5.0667,-4.9479,-4.8192,-4.7573,-4.7162,-4.6989,-4.6997,-4.7131,-4.7359,-4.7297,-4.7199,-4.7082,-4.6565,-4.6176,-4.6366,-4.5591,-4.5107,-4.5218,-4.4441,-4.3809,-4.3727,-4.3731,-4.3849,-4.3974,-4.4465,-4.4918,-4.5363,-4.5772,-4.6398,-4.7335,-4.8791,-5.0124,-5.1248,-5.2092,-5.2326,-5.1783,-5.1987,-5.2252,-5.2448,-5.321,-5.3625,-5.3697,-5.4644,-5.5079,-5.5139,-5.5319,-5.5437,-5.5449,-5.4691,-5.4848,-5.5466,-5.4688,-5.4807,-5.5423,-5.6198,-5.6558,-5.6719,-3.2285,-3.353,-3.394,-3.3498,-3.0298,-2.7853,-2.7745,-2.7549,-2.746,-2.7441,-2.8327,-2.9183,-2.9869,-2.9932,-3.0845,-3.3001,-3.3175,-3.4085,-3.6261,-3.7841,-3.8782,-3.923,-3.8695,-3.9057,-4.0342,-4.1657,-4.2548,-4.301,-4.4205,-4.4812,-4.4843,-4.657,-4.722,-4.6994,-4.8259,-4.8729,-4.8483,-4.8707,-4.8894,-4.9018,-4.9018,-4.9018,-4.9018,-4.9018,-4.9018,-4.912,-4.983,-4.9974,-4.9947,-5.0916,-5.1628,-5.2102,-5.2267,-5.2875,-5.3416,-5.3247,-5.3041,-5.2764,-5.2131,-5.1099,-4.9757,-4.8294,-4.7909,-4.753,-4.6139,-4.6048,-4.6493,-4.7269,-4.7168,-4.7017,-4.7301,-4.7136,-4.6528,-4.5373,-4.5552,-4.5383,-4.4225,-4.4008,-4.392,-4.3741,-4.4389,-4.5005,-4.5561,-4.5697,-4.6127,-4.7066,-4.7329,-4.8291,-5.0326,-5.0924,-5.1312,-5.1507,-5.2413,-5.3078,-5.3418,-5.3954,-5.3513,-5.2252,-5.3921,-5.4539,-5.4314,-5.5296,-5.5613,-5.5461,-5.607,-5.6106,-5.5658,-5.4617,-5.482,-5.5649,-5.449,-5.4655,-5.5611,-5.5834,-5.5997,-5.6121,-3.0819,-3.2572,-3.3595,-3.3702,-3.1725,-2.9826,-2.8887,-2.8347,-2.8214,-2.8928,-2.9487,-3.0134,-3.0991,-3.1768,-3.2634,-3.3706,-3.4373,-3.5829,-3.8442,-3.8955,-3.9601,-4.0475,-3.9919,-4.0065,-4.111,-4.1889,-4.2998,-4.4388,-4.5172,-4.6064,-4.702,-4.7517,-4.769,-4.7605,-4.8266,-4.8556,-4.8547,-4.8832,-4.8956,-4.9018,-4.9018,-4.908,-4.9107,-4.908,-4.9385,-5.0023,-5.0578,-5.1056,-5.1529,-5.2203,-5.2606,-5.2943,-5.3078,-5.3315,-5.3416,-5.3247,-5.3041,-5.2764,-5.2131,-5.1638,-5.0904,-4.9416,-4.8072,-4.7098,-4.698,-4.6614,-4.6493,-4.7229,-4.7097,-4.6878,-4.6939,-4.671,-4.6378,-4.6013,-4.6051,-4.6121,-4.6051,-4.5453,-4.4966,-4.4887,-4.5153,-4.5636,-4.6329,-4.7045,-4.7767,-4.8605,-4.8968,-4.9915,-5.1531,-5.1864,-5.2397,-5.3232,-5.3601,-5.3994,-5.4371,-5.3873,-5.3556,-5.341,-5.4185,-5.4489,-5.4486,-5.5695,-5.6162,-5.607,-5.6328,-5.6492,-5.651,-5.5086,-5.4894,-5.5468,-5.4642,-5.4644,-5.5258,-5.6614,-5.7104,-5.7215,-3.1121,-3.2873,-3.401,-3.4601,-3.3442,-3.2017,-3.0792,-3.0358,-3.0138,-2.9944,-3.0504,-3.1275,-3.2218,-3.3155,-3.4087,-3.5086,-3.6407,-3.7739,-3.9184,-3.9675,-4.0133,-4.0572,-4.0165,-4.0343,-4.1142,-4.1976,-4.3248,-4.5008,-4.614,-4.715,-4.7909,-4.8763,-4.873,-4.7929,-4.8962,-4.9053,-4.8547,-4.8861,-4.9018,-4.9018,-4.9018,-4.9046,-4.9107,-4.8984,-4.9351,-4.9921,-5.0443,-5.0823,-5.1195,-5.1934,-5.237,-5.274,-5.3111,-5.328,-5.3212,-5.311,-5.2903,-5.2694,-5.2307,-5.2053,-5.159,-5.0617,-4.9128,-4.7829,-4.7796,-4.7485,-4.7197,-4.7357,-4.758,-4.7626,-4.7357,-4.7333,-4.7452,-4.7452,-4.7452,-4.7419,-4.7632,-4.7101,-4.6634,-4.6339,-4.6965,-4.7523,-4.8045,-4.8674,-4.9381,-5.0035,-5.0482,-5.1227,-5.2539,-5.2874,-5.3341,-5.398,-5.4303,-5.4419,-5.4391,-5.4027,-5.3903,-5.4139,-5.4768,-5.4874,-5.4562,-5.5937,-5.6421,-5.6187,-5.6616,-5.6881,-5.7015,-5.591,-5.5686,-5.5888,-5.5391,-5.5303,-5.5612,-5.6776,-5.7188,-5.7223,-3.2526,-3.39,-3.4891,-3.6008,-3.5358,-3.4289,-3.3246,-3.3464,-3.2944,-3.1016,-3.1934,-3.2994,-3.3744,-3.424,-3.533,-3.6964,-3.8532,-3.9425,-3.9091,-4.0092,-4.0572,-4.0113,-4.0062,-4.0457,-4.1029,-4.2087,-4.3468,-4.5099,-4.7161,-4.812,-4.8175,-5.0249,-5.0105,-4.8226,-4.9957,-4.9923,-4.8647,-4.8962,-4.9052,-4.9018,-4.9018,-4.9052,-4.9086,-4.9018,-4.9086,-4.9289,-4.9864,-4.9944,-4.9854,-5.069,-5.1329,-5.1899,-5.2602,-5.2803,-5.2803,-5.2803,-5.2664,-5.2524,-5.2524,-5.2164,-5.1868,-5.1908,-5.0797,-4.9523,-4.8775,-4.8583,-4.8432,-4.7782,-4.8465,-4.9011,-4.8323,-4.8784,-4.9174,-4.9174,-4.9174,-4.9141,-4.8933,-4.89,-4.861,-4.8095,-4.9295,-5.0157,-5.0224,-5.056,-5.0926,-5.142,-5.1762,-5.2371,-5.3382,-5.3783,-5.3912,-5.384,-5.4391,-5.4417,-5.3739,-5.4208,-5.4437,-5.4402,-5.537,-5.5311,-5.4597,-5.6073,-5.6428,-5.588,-5.7011,-5.7388,-5.7252,-5.6932,-5.6867,-5.6801,-5.6533,-5.6397,-5.6474,-5.6742,-5.6742,-5.6627,-3.1584,-3.3918,-3.594,-3.6764,-3.6264,-3.5717,-3.5717,-3.6148,-3.5991,-3.4682,-3.6374,-3.7318,-3.6173,-3.6684,-3.7166,-3.7108,-3.8168,-3.9517,-4.092,-4.1206,-4.1541,-4.2055,-4.1539,-4.1984,-4.3501,-4.3745,-4.4509,-4.5799,-4.837,-4.9715,-4.9923,-5.0812,-5.0839,-5.0118,-5.049,-5.0191,-4.9354,-4.9738,-4.9526,-4.9018,-4.9018,-4.9419,-5.0017,-4.9283,-4.9791,-5.0866,-5.0109,-5.0217,-5.069,-5.0726,-5.1128,-5.1627,-5.1897,-5.2033,-5.2033,-5.1827,-5.1758,-5.1758,-5.1758,-5.2051,-5.2483,-5.2624,-5.2208,-5.1375,-5.0075,-4.9531,-4.9485,-4.9693,-4.9861,-4.9977,-5.0124,-5.0072,-4.9984,-4.9984,-5.0052,-5.0189,-5.046,-5.0191,-4.9953,-4.9885,-5.0359,-5.0992,-5.1697,-5.2702,-5.301,-5.2566,-5.2806,-5.291,-5.2836,-5.3543,-5.3562,-5.2612,-5.341,-5.3704,-5.3422,-5.3535,-5.3647,-5.3792,-5.442,-5.4676,-5.4625,-5.5812,-5.6322,-5.6309,-5.7302,-5.7763,-5.7784,-5.7198,-5.7131,-5.7348,-5.733,-5.745,-5.7716,-5.8428,-5.8577,-5.8422,-3.4657,-3.6884,-3.8736,-3.9187,-3.9084,-3.8669,-3.7878,-3.8089,-3.7799,-3.6566,-3.7861,-3.8564,-3.7689,-3.8382,-3.9031,-3.9256,-3.9907,-4.0804,-4.1991,-4.2067,-4.243,-4.3079,-4.294,-4.3495,-4.4758,-4.5576,-4.6345,-4.6985,-4.9213,-5.039,-5.0493,-5.1553,-5.1578,-5.0752,-5.1057,-5.0626,-4.9622,-5.0345,-4.9999,-4.9052,-4.9763,-4.9927,-4.9718,-4.9622,-4.9859,-5.0227,-4.9632,-4.9577,-4.9819,-4.9991,-5.0159,-5.049,-5.1325,-5.1525,-5.1591,-5.1888,-5.1988,-5.2058,-5.2058,-5.2463,-5.2903,-5.3041,-5.311,-5.2769,-5.1597,-5.113,-5.1008,-5.1041,-5.1458,-5.1799,-5.1527,-5.1663,-5.1833,-5.1765,-5.19,-5.2067,-5.2431,-5.2298,-5.2099,-5.1966,-5.2198,-5.2499,-5.2707,-5.3379,-5.3651,-5.3179,-5.291,-5.2739,-5.266,-5.3014,-5.286,-5.2252,-5.3018,-5.3252,-5.2835,-5.3211,-5.3242,-5.3039,-5.4044,-5.4422,-5.4339,-5.5374,-5.5879,-5.609,-5.6997,-5.7675,-5.8179,-5.7869,-5.7857,-5.8066,-5.8231,-5.8388,-5.8653,-5.9103,-5.9215,-5.91,-3.8467,-4.0175,-4.1386,-4.1591,-4.1716,-4.1246,-3.9725,-3.9544,-3.9137,-3.7927,-3.8641,-3.9111,-3.8897,-3.965,-4.0613,-4.1965,-4.2148,-4.245,-4.2796,-4.287,-4.3201,-4.3806,-4.4174,-4.4906,-4.5858,-4.7361,-4.8102,-4.8102,-4.9908,-5.0815,-5.0755,-5.2236,-5.2221,-5.1021,-5.1691,-5.1229,-5.0024,-5.102,-5.0608,-4.9492,-5.071,-5.0473,-4.9424,-4.9898,-4.9729,-4.9187,-4.9052,-4.8798,-4.8584,-4.9057,-4.9161,-4.9359,-5.0684,-5.1082,-5.1247,-5.2047,-5.2316,-5.2424,-5.2527,-5.2941,-5.3315,-5.3382,-5.3783,-5.3946,-5.3179,-5.2974,-5.2738,-5.2236,-5.3109,-5.3611,-5.2802,-5.3341,-5.3881,-5.3715,-5.3815,-5.4011,-5.4269,-5.4397,-5.4362,-5.3909,-5.4011,-5.3915,-5.3382,-5.3549,-5.3647,-5.3483,-5.2704,-5.2391,-5.274,-5.2467,-5.22,-5.1983,-5.2783,-5.2944,-5.2377,-5.2902,-5.2965,-5.2536,-5.3784,-5.4168,-5.3908,-5.4948,-5.5522,-5.5735,-5.6742,-5.7641,-5.8437,-5.8529,-5.8656,-5.8781,-5.8982,-5.9139,-5.9215,-5.929,-5.9253,-5.9177,-3.8768,-4.0079,-4.1293,-4.1591,-4.1045,-4.0694,-4.0668,-4.0896,-4.0889,-4.0389,-4.1417,-4.1651,-4.035,-4.0941,-4.1859,-4.3125,-4.3322,-4.3258,-4.3258,-4.3684,-4.4208,-4.4995,-4.495,-4.5997,-4.8388,-4.8483,-4.8514,-4.8514,-5.0574,-5.1557,-5.1614,-5.2483,-5.2661,-5.217,-5.2561,-5.23,-5.1497,-5.1999,-5.1691,-5.0947,-5.115,-5.1082,-5.0845,-5.0304,-5.0033,-4.9864,-4.9221,-4.8798,-4.8483,-4.8584,-4.8827,-4.926,-5.0088,-5.0353,-5.0485,-5.1389,-5.1589,-5.1727,-5.2303,-5.3043,-5.3683,-5.4011,-5.4425,-5.4799,-5.4861,-5.4523,-5.4205,-5.3905,-5.4356,-5.4641,-5.4293,-5.4516,-5.4738,-5.4703,-5.4861,-5.5104,-5.5367,-5.5519,-5.5496,-5.5044,-5.4807,-5.4465,-5.3915,-5.3592,-5.3553,-5.3881,-5.2746,-5.2111,-5.2442,-5.2636,-5.2263,-5.1173,-5.2236,-5.2651,-5.2222,-5.2412,-5.2654,-5.2893,-5.3243,-5.336,-5.3366,-5.4913,-5.5662,-5.595,-5.7592,-5.8375,-5.8529,-5.8777,-5.8862,-5.8945,-5.9139,-5.9215,-5.9253,-5.9215,-5.9215,-5.9177,-4.0919,-4.2208,-4.3054,-4.2012,-4.1544,-4.1376,-4.1438,-4.1204,-4.1224,-4.1702,-4.2118,-4.2222,-4.1893,-4.2626,-4.33,-4.3868,-4.3963,-4.3927,-4.3834,-4.4088,-4.4762,-4.6147,-4.6336,-4.7494,-4.9737,-4.9968,-5.0165,-5.0542,-5.1345,-5.1762,-5.1794,-5.2412,-5.2424,-5.1885,-5.2736,-5.2404,-5.1429,-5.2471,-5.23,-5.1251,-5.1657,-5.1319,-5.0541,-5.0202,-4.983,-4.9424,-4.912,-4.8894,-4.8644,-4.8547,-4.8857,-4.9327,-4.9955,-5.0554,-5.1054,-5.1855,-5.2332,-5.2674,-5.3043,-5.3611,-5.4239,-5.4648,-5.5079,-5.5437,-5.5671,-5.5613,-5.5496,-5.5199,-5.5402,-5.5519,-5.5319,-5.5437,-5.5519,-5.5461,-5.5636,-5.5865,-5.6055,-5.6276,-5.6221,-5.5645,-5.5519,-5.5139,-5.4425,-5.4044,-5.3887,-5.3991,-5.2751,-5.2136,-5.2473,-5.2251,-5.19,-5.1449,-5.2207,-5.2582,-5.2545,-5.2725,-5.298,-5.3277,-5.3318,-5.3576,-5.4013,-5.4796,-5.5734,-5.6747,-5.7575,-5.8252,-5.8739,-5.9101,-5.9178,-5.9139,-5.9326,-5.9099,-5.8652,-5.8615,-5.8278,-5.794]},{"header":{"parameterUnit":"m.s-1","parameterCategory":1,"la1":30.6,"la2":28.766,"lo1":-90.7593,"lo2":-88.6598,"dy":0.0162,"dx":0.0183,"nx":116,"ny":114,"refTime":"2023-04-14T12:00:00:Z","depth":0,"parameterNumber":3,"parameterNumberName":"V-component_of_WINDS"},"data":[0.0,0.0,0.0,0.0,0.0,0.0,0.0,0.0,0.0,0.0,0.0,0.0,0.0,0.0,0.0,0.0,0.0,0.0,0.0,0.0,0.0,0.0,0.0,0.0,0.0,0.0,0.0,0.0,0.0,0.0,0.0,0.0,0.0,0.0,0.0,0.0,0.0,0.0,0.0,0.0,0.0,0.0,0.0,0.0,0.0,0.0,0.0,0.0,0.0,0.0,0.0,0.0,0.0,0.0,0.0,0.0,0.0,0.0,0.0,0.0,0.0,0.0,0.0,0.0,0.0,0.0,0.0,0.0,0.0,0.0,0.0,0.0,0.0,0.0,0.0,0.0,0.0,0.0,0.0,0.0,0.0,0.0,0.0,0.0,0.0,0.0,0.0,0.0,0.0,0.0,0.0,0.0,0.0,0.0,0.0,0.0,0.0,0.0,0.0,0.0,0.0,0.0,0.0,0.0,0.0,0.0,0.0,0.0,0.0,0.0,0.0,0.0,0.0,0.0,0.0,0.0,0.0,0.0,0.0,0.0,0.0,0.0,0.0,0.0,0.0,0.0,0.0,0.0,0.0,0.0,0.0,0.0,0.0,0.0,0.0,0.0,0.0,0.0,0.0,0.0,0.0,0.0,0.0,0.0,0.0,0.0,0.0,0.0,0.0,0.0,0.0,0.0,0.0,0.0,0.0,0.0,0.0,0.0,0.0,0.0,0.0,0.0,0.0,0.0,0.0,0.0,0.0,0.0,0.0,0.0,0.0,0.0,0.0,0.0,0.0,0.0,0.0,0.0,0.0,0.0,0.0,0.0,0.0,0.0,0.0,0.0,0.0,0.0,0.0,0.0,0.0,0.0,0.0,0.0,0.0,0.0,0.0,0.0,0.0,0.0,0.0,0.0,0.0,0.0,0.0,0.0,0.0,0.0,0.0,0.0,0.0,0.0,0.0,0.0,0.0,0.0,0.0,0.0,0.0,0.0,0.0,0.0,0.0,0.0,0.0,0.0,0.0,0.0,0.0,0.0,0.0,0.0,0.0,0.0,0.0,0.0,0.0,0.0,0.0,0.0,0.0,0.0,0.0,0.0,0.0,0.0,0.0,0.0,0.0,0.0,0.0,0.0,0.0,0.0,0.0,0.0,0.0,0.0,0.0,0.0,0.0,0.0,0.0,0.0,0.0,0.0,0.0,0.0,0.0,0.0,0.0,0.0,0.0,0.0,0.0,0.0,0.0,0.0,0.0,0.0,0.0,0.0,0.0,0.0,0.0,0.0,0.0,0.0,0.0,0.0,0.0,0.0,0.0,0.0,0.0,0.0,0.0,0.0,0.0,0.0,0.0,0.0,0.0,0.0,0.0,0.0,0.0,0.0,0.0,0.0,0.0,0.0,0.0,0.0,0.0,0.0,0.0,0.0,0.0,0.0,0.0,0.0,0.0,0.0,0.0,0.0,0.0,0.0,0.0,0.0,0.0,0.0,0.0,0.0,0.0,0.0,0.0,0.0,0.0,0.0,0.0,0.0,0.0,0.0,0.0,0.0,0.0,0.0,0.0,0.0,0.0,0.0,0.0,0.0,0.0,0.0,0.0,0.0,0.0,0.0,0.0,0.0,0.0,0.0,0.0,0.0,0.0,0.0,0.0,0.0,0.0,0.0,0.0,0.0,0.0,0.0,0.0,0.0,0.0,0.0,0.0,0.0,0.0,0.0,0.0,0.0,0.0,0.0,0.0,0.0,0.0,0.0,0.0,0.0,0.0,0.0,0.0,0.0,0.0,0.0,0.0,0.0,0.0,0.0,0.0,0.0,0.0,0.0,0.0,0.0,0.0,0.0,0.0,0.0,0.0,0.0,0.0,0.0,0.0,0.0,0.0,0.0,0.0,0.0,0.0,0.0,0.0,0.0,0.0,0.0,0.0,0.0,0.0,0.0,0.0,0.0,0.0,0.0,0.0,0.0,0.0,0.0,0.0,0.0,0.0,0.0,0.0,0.0,0.0,0.0,0.0,0.0,0.0,0.0,0.0,0.0,0.0,0.0,0.0,0.0,0.0,0.0,0.0,0.0,0.0,0.0,0.0,0.0,0.0,0.0,0.0,0.0,0.0,0.0,0.0,0.0,0.0,0.0,0.0,0.0,0.0,0.0,0.0,0.0,0.0,0.0,0.0,0.0,0.0,0.0,0.0,0.0,0.0,0.0,0.0,0.0,0.0,0.0,0.0,0.0,0.0,0.0,0.0,0.0,0.0,0.0,0.0,0.0,0.0,0.0,0.0,0.0,0.0,0.0,0.0,0.0,0.0,0.0,0.0,0.0,0.0,0.0,0.0,0.0,0.0,0.0,0.0,0.0,0.0,0.0,0.0,0.0,0.0,0.0,0.0,0.0,0.0,0.0,0.0,0.0,0.0,0.0,0.0,0.0,0.0,0.0,0.0,0.0,0.0,0.0,0.0,0.0,0.0,0.0,0.0,0.0,0.0,0.0,0.0,0.0,0.0,0.0,0.0,0.0,0.0,0.0,0.0,0.0,0.0,0.0,0.0,0.0,0.0,0.0,0.0,0.0,0.0,0.0,0.0,0.0,0.0,0.0,0.0,0.0,0.0,0.0,0.0,0.0,0.0,0.0,0.0,0.0,0.0,0.0,0.0,0.0,0.0,0.0,0.0,0.0,0.0,0.0,0.0,0.0,0.0,0.0,0.0,0.0,0.0,0.0,0.0,0.0,0.0,0.0,0.0,0.0,0.0,0.0,0.0,0.0,0.0,0.0,0.0,0.0,0.0,0.0,0.0,0.0,0.0,0.0,0.0,0.0,0.0,0.0,0.0,0.0,0.0,0.0,0.0,0.0,0.0,0.0,0.0,0.0,0.0,0.0,0.0,0.0,0.0,0.0,0.0,0.0,0.0,0.0,0.0,0.0,0.0,0.0,0.0,0.0,0.0,0.0,0.0,0.0,0.0,0.0,0.0,0.0,0.0,0.0,0.0,0.0,0.0,0.0,0.0,0.0,0.0,0.0,0.0,0.0,0.0,0.0,0.0,0.0,0.0,0.0,0.0,0.0,0.0,0.0,0.0,0.0,0.0,0.0,0.0,0.0,0.0,0.0,0.0,0.0,0.0,0.0,0.0,0.0,0.0,0.0,0.0,0.0,0.0,0.0,0.0,0.0,0.0,0.0,0.0,0.0,0.0,0.0,0.0,0.0,0.0,0.0,0.0,0.0,0.0,0.0,0.0,0.0,0.0,0.0,0.0,0.0,0.0,0.0,0.0,0.0,0.0,0.0,0.0,0.0,0.0,0.0,0.0,0.0,0.0,0.0,0.0,0.0,0.0,0.0,0.0,0.0,0.0,0.0,0.0,0.0,0.0,0.0,0.0,0.0,0.0,0.0,0.0,0.0,0.0,0.0,0.0,0.0,0.0,0.0,0.0,0.0,0.0,0.0,0.0,0.0,0.0,0.0,0.0,0.0,0.0,0.0,0.0,0.0,0.0,0.0,0.0,0.0,0.0,0.0,0.0,0.0,0.0,0.0,0.0,0.0,0.0,0.0,0.0,0.0,0.0,0.0,0.0,0.0,0.0,0.0,0.0,0.0,0.0,0.0,0.0,0.0,0.0,0.0,0.0,0.0,0.0,0.0,0.0,0.0,0.0,0.0,0.0,0.0,0.0,0.0,0.0,0.0,0.0,0.0,0.0,0.0,0.0,0.0,0.0,0.0,0.0,0.0,0.0,0.0,0.0,0.0,0.0,0.0,0.0,0.0,0.0,0.0,0.0,0.0,0.0,0.0,0.0,0.0,0.0,0.0,0.0,0.0,0.0,0.0,0.0,0.0,0.0,0.0,0.0,0.0,0.0,0.0,0.0,0.0,0.0,0.0,0.0,0.0,0.0,0.0,0.0,0.0,0.0,0.0,0.0,0.0,0.0,0.0,0.0,0.0,0.0,0.0,0.0,0.0,0.0,0.0,0.0,0.0,0.0,0.0,0.0,0.0,0.0,0.0,0.0,0.0,0.0,0.0,0.0,0.0,0.0,0.0,0.0,0.0,0.0,0.0,0.0,0.0,0.0,0.0,0.0,0.0,0.0,0.0,0.0,0.0,0.0,0.0,0.0,0.0,0.0,0.0,0.0,0.0,0.0,0.0,0.0,0.0,0.0,0.0,0.0,0.0,0.0,0.0,0.0,0.0,0.0,0.0,0.0,0.0,0.0,0.0,0.0,0.0,0.0,0.0,0.0,0.0,0.0,0.0,0.0,0.0,0.0,0.0,0.0,0.0,0.0,0.0,0.0,0.0,0.0,0.0,0.0,0.0,0.0,0.0,0.0,0.0,0.0,0.0,0.0,0.0,0.0,0.0,0.0,0.0,0.0,0.0,0.0,0.0,0.0,0.0,0.0,0.0,0.0,0.0,0.0,0.0,0.0,0.0,0.0,0.0,0.0,0.0,0.0,0.0,0.0,0.0,0.0,0.0,0.0,0.0,0.0,0.0,0.0,0.0,0.0,0.0,0.0,0.0,0.0,0.0,0.0,0.0,0.0,0.0,0.0,0.0,0.0,0.0,0.0,0.0,0.0,0.0,0.0,0.0,0.0,0.0,0.0,0.0,0.0,0.0,0.0,0.0,0.0,0.0,0.0,0.0,0.0,0.0,0.0,0.0,0.0,0.0,0.0,0.0,0.0,0.0,0.0,0.0,0.0,0.0,0.0,0.0,0.0,0.0,0.0,0.0,0.0,0.0,0.0,0.0,0.0,0.0,0.0,0.0,0.0,0.0,0.0,0.0,0.0,0.0,0.0,0.0,0.0,0.0,0.0,0.0,0.0,0.0,0.0,0.0,0.0,0.0,0.0,0.0,0.0,0.0,0.0,0.0,0.0,0.0,0.0,0.0,0.0,0.0,0.0,0.0,0.0,0.0,0.0,0.0,0.0,0.0,0.0,0.0,0.0,0.0,0.0,0.0,0.0,0.0,0.0,0.0,0.0,0.0,0.0,0.0,0.0,0.0,0.0,0.0,0.0,0.0,0.0,0.0,0.0,0.0,0.0,0.0,0.0,0.0,0.0,0.0,0.0,0.0,0.0,0.0,0.0,0.0,0.0,0.0,0.0,0.0,0.0,0.0,0.0,0.0,0.0,0.0,0.0,0.0,0.0,0.0,0.0,0.0,0.0,0.0,0.0,0.0,0.0,0.0,0.0,0.0,0.0,0.0,0.0,0.0,0.0,0.0,0.0,0.0,0.0,0.0,0.0,0.0,0.0,0.0,0.0,0.0,0.0,0.0,0.0,0.0,0.0,0.0,0.0,0.0,0.0,0.0,0.0,0.0,0.0,0.0,0.0,0.0,0.0,0.0,0.0,0.0,0.0,0.0,0.0,0.0,0.0,0.0,0.0,0.0,0.0,0.0,0.0,0.0,0.0,0.0,0.0,0.0,0.0,0.0,0.0,0.0,0.0,0.0,0.0,0.0,0.0,0.0,0.0,0.0,0.0,0.0,0.0,0.0,0.0,0.0,0.0,0.0,0.0,0.0,0.0,0.0,0.0,0.0,0.0,0.0,0.0,0.0,0.0,0.0,0.0,0.0,0.0,0.0,0.0,0.0,0.0,0.0,0.0,0.0,0.0,0.0,0.0,0.0,0.0,0.0,0.0,0.0,0.0,0.0,0.0,0.0,0.0,0.0,0.0,0.0,0.0,0.0,0.0,0.0,0.0,0.0,0.0,0.0,0.0,0.0,0.0,0.0,0.0,0.0,0.0,0.0,0.0,0.0,0.0,0.0,0.0,0.0,0.0,0.0,0.0,0.0,0.0,0.0,0.0,0.0,0.0,0.0,0.0,0.0,0.0,0.0,0.0,0.0,0.0,0.0,0.0,0.0,0.0,0.0,0.0,0.0,0.0,0.0,0.0,0.0,0.0,0.0,0.0,0.0,0.0,0.0,0.0,0.0,0.0,0.0,0.0,0.0,0.0,0.0,0.0,0.0,0.0,0.0,0.0,0.0,0.0,0.0,0.0,0.0,0.0,0.0,0.0,0.0,0.0,0.0,0.0,0.0,0.0,0.0,0.0,0.0,0.0,0.0,0.0,0.0,0.0,0.0,0.0,0.0,0.0,0.0,0.0,0.0,0.0,0.0,-2.974,0.0,0.0,0.0,0.0,0.0,0.0,0.0,0.0,0.0,0.0,0.0,0.0,0.0,0.0,0.0,0.0,0.0,0.0,0.0,0.0,0.0,0.0,0.0,0.0,0.0,0.0,0.0,0.0,0.0,0.0,0.0,0.0,0.0,0.0,0.0,0.0,0.0,0.0,-5.0053,-4.9257,-4.8908,-4.901,-4.7617,-4.6222,-4.4884,0.0,0.0,0.0,0.0,0.0,0.0,0.0,0.0,0.0,0.0,0.0,0.0,0.0,0.0,0.0,0.0,0.0,0.0,0.0,0.0,0.0,0.0,0.0,0.0,0.0,0.0,0.0,0.0,0.0,0.0,0.0,0.0,0.0,0.0,0.0,0.0,0.0,0.0,0.0,0.0,0.0,0.0,0.0,0.0,0.0,0.0,0.0,0.0,0.0,0.0,0.0,0.0,0.0,0.0,0.0,0.0,0.0,0.0,0.0,0.0,0.0,0.0,0.0,0.0,0.0,0.0,0.0,0.0,0.0,0.0,0.0,-3.1131,0.0,0.0,0.0,0.0,0.0,0.0,0.0,0.0,0.0,0.0,0.0,0.0,0.0,0.0,0.0,0.0,0.0,0.0,0.0,0.0,0.0,0.0,0.0,-4.2532,-4.3395,-4.5588,-4.5042,-4.529,0.0,0.0,0.0,0.0,0.0,0.0,0.0,-4.959,-5.0422,-5.1239,-5.0733,-5.0253,-4.9852,-4.9513,-4.8135,-4.592,-4.4872,0.0,0.0,0.0,0.0,0.0,0.0,0.0,0.0,0.0,0.0,0.0,0.0,0.0,0.0,0.0,0.0,0.0,0.0,0.0,0.0,0.0,0.0,0.0,0.0,0.0,0.0,0.0,0.0,0.0,0.0,0.0,0.0,0.0,0.0,0.0,0.0,0.0,0.0,0.0,0.0,0.0,0.0,0.0,0.0,0.0,0.0,0.0,0.0,0.0,0.0,0.0,0.0,0.0,0.0,0.0,0.0,0.0,0.0,0.0,0.0,0.0,0.0,0.0,-3.875,-3.8556,-3.8616,-3.7955,-3.7594,-3.7475,-3.5739,-3.3199,-3.0362,-3.1406,0.0,0.0,0.0,0.0,0.0,0.0,0.0,0.0,0.0,0.0,0.0,0.0,0.0,0.0,0.0,0.0,0.0,0.0,0.0,0.0,0.0,-4.3542,-4.4026,-4.5388,-4.6065,-4.646,-4.6673,0.0,0.0,0.0,0.0,0.0,-5.0138,-5.1008,-5.1298,-5.0926,-5.1538,-5.2005,-5.2401,-5.243,-5.1724,-5.0411,-4.7223,-4.6268,-4.6832,0.0,0.0,0.0,0.0,0.0,0.0,0.0,0.0,0.0,0.0,0.0,0.0,0.0,0.0,0.0,0.0,0.0,0.0,0.0,0.0,0.0,0.0,0.0,0.0,0.0,0.0,0.0,0.0,0.0,0.0,0.0,0.0,0.0,0.0,0.0,0.0,0.0,0.0,0.0,0.0,0.0,-3.9441,-3.9346,0.0,0.0,0.0,0.0,0.0,0.0,0.0,0.0,0.0,0.0,0.0,0.0,0.0,-4.2936,-4.3415,-4.342,-4.2856,-4.1675,-4.0992,-4.0453,-4.0033,-3.9284,-3.9098,-3.9431,-3.9166,0.0,-3.4409,-3.2136,0.0,0.0,0.0,0.0,0.0,0.0,0.0,0.0,0.0,0.0,0.0,0.0,0.0,0.0,0.0,0.0,0.0,0.0,0.0,0.0,0.0,-4.478,-4.5691,-4.7432,-4.8404,-4.8802,-4.8572,-4.8722,0.0,0.0,0.0,-4.9394,-5.0459,-5.128,-5.2158,-5.3171,-5.4399,-5.4921,-5.483,-5.4882,-5.4288,-5.3056,-5.1114,-4.9124,-4.7249,-4.6014,0.0,0.0,0.0,0.0,0.0,0.0,0.0,0.0,0.0,0.0,0.0,0.0,0.0,0.0,0.0,0.0,0.0,0.0,0.0,0.0,0.0,0.0,0.0,0.0,0.0,0.0,0.0,0.0,0.0,0.0,0.0,0.0,0.0,0.0,0.0,0.0,0.0,0.0,0.0,-4.1996,-4.2549,-4.0861,-4.2531,-4.331,0.0,0.0,0.0,0.0,0.0,0.0,0.0,0.0,0.0,-4.475,-4.4456,-4.4563,-4.5049,-4.4497,-4.4156,-4.399,-4.3387,-4.3106,-4.2973,-4.2606,-4.2604,-4.2932,-4.2419,-4.1145,-3.9193,-3.5763,-3.3849,-3.3025,0.0,0.0,0.0,0.0,-3.4491,-3.5996,0.0,0.0,0.0,0.0,0.0,0.0,0.0,0.0,0.0,0.0,0.0,0.0,-4.5336,-4.622,-4.7512,-4.9683,-5.0515,-5.0823,-5.0645,-5.0376,-4.983,-4.8934,-4.9446,-5.0235,-5.1275,-5.2215,-5.3764,-5.6002,-5.6942,-5.7493,-5.7691,-5.7311,-5.6634,-5.557,-5.4953,-5.2502,-4.8787,-4.7508,-4.6377,-4.533,0.0,0.0,0.0,0.0,0.0,0.0,0.0,0.0,0.0,0.0,0.0,0.0,0.0,0.0,0.0,0.0,0.0,0.0,0.0,0.0,0.0,0.0,0.0,0.0,0.0,0.0,0.0,0.0,0.0,0.0,0.0,0.0,0.0,0.0,0.0,0.0,0.0,-4.3856,-4.3973,-4.1712,-4.3342,-4.4278,0.0,0.0,0.0,0.0,0.0,0.0,-4.5655,-4.6908,-4.7398,-4.687,-4.6378,-4.6122,-4.6112,-4.5497,-4.5702,-4.651,-4.5754,-4.5728,-4.6253,-4.5776,-4.5626,-4.5733,-4.5011,-4.4104,-4.2968,-3.926,-3.6645,-3.5007,-3.4813,-3.5085,-3.5644,-3.6035,-3.7237,-3.8774,0.0,0.0,0.0,0.0,0.0,0.0,0.0,0.0,0.0,0.0,0.0,-4.5501,-4.7081,-4.779,-4.9137,-5.157,-5.1786,-5.1865,-5.2101,-5.1493,-5.1104,-5.1067,-5.1121,-5.1883,-5.3411,-5.4769,-5.6561,-5.8988,-5.8304,-5.9096,-6.1235,-5.9846,-5.9011,-5.8667,-5.8317,-5.6353,-5.3137,-4.9771,-4.8458,-4.8579,-4.61,0.0,0.0,0.0,0.0,0.0,0.0,0.0,0.0,0.0,0.0,0.0,0.0,0.0,0.0,0.0,0.0,0.0,0.0,0.0,0.0,0.0,0.0,0.0,0.0,0.0,0.0,0.0,0.0,0.0,0.0,0.0,0.0,0.0,0.0,0.0,0.0,0.0,0.0,-4.05,-4.312,0.0,0.0,0.0,0.0,-4.4883,-4.617,-4.7053,-4.7368,-4.8887,-4.8865,-4.6896,-4.7911,-4.8118,-4.7284,-4.767,-4.8449,-4.9662,-4.8133,-4.805,-4.9343,-4.783,-4.7056,-4.6789,-4.6592,-4.5919,-4.4891,-4.1328,-3.9242,-3.8194,-3.7419,-3.7942,-3.9073,-3.8572,-4.004,-4.2153,0.0,0.0,0.0,0.0,0.0,0.0,0.0,0.0,-4.4671,-4.6372,-4.7471,-4.8508,-4.9572,-5.1275,-5.2428,-5.2666,-5.4139,-5.4308,-5.2736,-5.2935,-5.2667,-5.1742,-5.2047,-5.2961,-5.4625,-5.6257,-5.8195,-6.0339,-6.1171,-6.2129,-6.3195,-6.2675,-6.2112,-6.153,-6.1377,-6.0297,-5.8058,-5.3318,-5.0329,-4.8487,-4.5548,-4.4522,0.0,0.0,0.0,0.0,0.0,0.0,0.0,0.0,0.0,0.0,0.0,0.0,0.0,0.0,0.0,0.0,0.0,0.0,0.0,0.0,0.0,0.0,0.0,0.0,0.0,0.0,0.0,0.0,0.0,0.0,0.0,0.0,0.0,0.0,0.0,0.0,0.0,-4.563,-4.7832,0.0,-4.7972,-4.8348,-4.8969,-4.9712,-5.0167,-5.0814,-5.1885,-5.2232,-5.2263,-5.1838,-5.1563,-5.1272,-5.0839,-5.0607,-5.0787,-5.1146,-5.0618,-5.0445,-5.0692,-5.0105,-4.972,-4.9304,-4.859,-4.7836,-4.6863,-4.5031,-4.3025,-4.1099,-4.0855,-4.0994,-4.1566,-4.235,-4.3528,-4.47,0.0,0.0,0.0,0.0,0.0,0.0,0.0,0.0,-4.5457,-4.7623,-4.899,-5.0196,-5.1405,-5.3203,-5.4513,-5.489,-5.5663,-5.5751,-5.4759,-5.3869,-5.3134,-5.2632,-5.3353,-5.4484,-5.5937,-5.8248,-6.0392,-6.2386,-6.3893,-6.4892,-6.5422,-6.5322,-6.483,-6.397,-6.4315,-6.3873,-6.2512,-5.8196,-5.3976,-5.001,-4.7482,-4.6467,-4.6052,0.0,0.0,0.0,0.0,0.0,0.0,0.0,0.0,0.0,0.0,0.0,0.0,0.0,0.0,0.0,0.0,0.0,0.0,0.0,0.0,0.0,0.0,0.0,0.0,0.0,0.0,0.0,0.0,0.0,0.0,0.0,0.0,0.0,0.0,0.0,-4.9152,-4.9819,-5.1506,-5.2487,-5.2158,-5.1927,-5.2339,-5.3653,-5.3472,-5.4025,-5.5612,-5.4885,-5.4381,-5.4183,-5.3305,-5.2611,-5.2118,-5.1591,-5.1381,-5.1429,-5.1211,-5.1041,-5.103,-5.1103,-5.0925,-5.058,-4.9861,-4.9144,-4.8516,-4.7563,-4.632,-4.4838,-4.4219,-4.4278,-4.489,-4.5936,-4.6859,-4.778,0.0,0.0,0.0,0.0,0.0,0.0,0.0,-4.4748,-4.6116,-4.759,-4.8956,-5.0541,-5.2624,-5.3471,-5.5131,-5.8275,-5.6361,-5.5774,-5.7929,-5.4235,-5.2568,-5.3882,-5.5196,-5.6397,-5.7545,-6.0701,-6.3274,-6.5238,-6.6329,-6.7249,-6.8,-6.7963,-6.7244,-6.6065,-6.7051,-6.7169,-6.6396,-6.4299,-5.9663,-5.3608,-5.2149,-5.0744,-4.9209,0.0,0.0,0.0,0.0,0.0,0.0,0.0,0.0,0.0,0.0,0.0,0.0,0.0,0.0,0.0,0.0,0.0,0.0,0.0,0.0,0.0,0.0,0.0,0.0,0.0,0.0,0.0,0.0,0.0,0.0,0.0,0.0,0.0,-4.7205,-4.9803,-5.1882,-5.2531,-5.385,-5.4344,-5.3492,-5.3266,-5.4164,-5.6492,-5.6014,-5.642,-5.8099,-5.6745,-5.5093,-5.3486,-5.3003,-5.2182,-5.0759,-5.0406,-5.036,-5.0547,-4.9914,-4.9944,-5.0547,-5.0686,-5.0641,-5.035,-5.0117,-4.9851,-4.9583,-4.8655,-4.8762,-4.9289,-4.7454,-4.7662,-4.9069,-4.9069,-5.0058,-5.1313,0.0,0.0,0.0,0.0,0.0,0.0,0.0,-4.6653,-4.8201,-4.8907,-5.1735,-5.3822,-5.3997,-5.5312,-5.6609,-5.7559,-5.6131,-5.5074,-5.4897,-5.3767,-5.3544,-5.4712,-5.5482,-5.7103,-5.9917,-6.2903,-6.5766,-6.8587,-7.0095,-7.1358,-7.228,-7.155,-7.1014,-7.0645,-7.0253,-6.9904,-6.9518,-6.8535,-6.5477,-6.0803,-5.5321,-5.2023,-5.0173,0.0,0.0,0.0,0.0,0.0,0.0,0.0,0.0,0.0,0.0,0.0,0.0,0.0,0.0,0.0,0.0,0.0,0.0,0.0,0.0,0.0,0.0,0.0,0.0,0.0,0.0,0.0,0.0,0.0,0.0,0.0,0.0,-5.0267,-4.9548,-5.1381,-5.3532,-5.5461,-5.735,-5.841,-5.831,-5.8756,-5.9324,-5.9962,-5.944,-5.9036,-5.8766,-5.7403,-5.5765,-5.3879,-5.3744,-5.3184,-5.2144,-5.1485,-5.1486,-5.2121,-5.1395,-5.1395,-5.2121,-5.2147,-5.1966,-5.1725,-5.0999,-5.0517,-5.0246,-4.8835,-4.8762,-4.9466,-4.9041,-4.9578,-5.0594,-5.1211,-5.1343,-5.1141,0.0,0.0,0.0,0.0,0.0,0.0,0.0,-4.6953,-4.8506,-4.909,-5.2392,-5.4537,-5.4259,-5.603,-5.7234,-5.733,-5.6137,-5.4984,-5.4126,-5.3644,-5.3787,-5.4675,-5.6488,-5.9108,-6.251,-6.5672,-6.8681,-7.1442,-7.3222,-7.4524,-7.5311,-7.4618,-7.4062,-7.3548,-7.2905,-7.222,-7.1487,-7.047,-6.87,-6.6154,-6.0963,-5.7217,-5.4434,-5.1443,-5.0426,-5.0294,-4.7827,-4.7531,-4.7927,-4.513,0.0,0.0,0.0,0.0,0.0,0.0,0.0,0.0,0.0,0.0,0.0,0.0,0.0,0.0,0.0,0.0,0.0,0.0,0.0,0.0,0.0,0.0,0.0,0.0,-5.1791,-5.3933,-5.4649,-5.573,-5.7222,-5.9329,-6.0656,-6.1406,-6.1501,-6.141,-6.1282,-6.1282,-6.0393,-5.9447,-5.8387,-5.6912,-5.5361,-5.3805,-5.3371,-5.2874,-5.2033,-5.1479,-5.1263,-5.1757,-5.1263,-5.1479,-5.2246,-5.2427,-5.2427,0.0,-5.1547,-5.1121,-5.0755,-4.9614,-4.9579,0.0,0.0,0.0,0.0,0.0,-5.1027,-5.0538,0.0,0.0,0.0,0.0,0.0,0.0,0.0,-4.6178,-4.7713,-4.8541,-5.1395,-5.3381,-5.3474,-5.5467,-5.6834,-5.692,-5.5797,-5.499,-5.4595,-5.3719,-5.3626,-5.4655,-5.8255,-6.18,-6.5244,-6.8676,-7.166,-7.4071,-7.5939,-7.7085,-7.7554,-7.7272,-7.6501,-7.5339,-7.5084,-7.415,-7.2724,-7.1142,-7.0302,-6.9818,-6.7494,-6.4204,-6.0186,-5.6558,-5.6029,-5.6792,-5.2999,-5.1883,-5.1862,-4.9713,0.0,0.0,0.0,0.0,0.0,0.0,0.0,0.0,0.0,0.0,0.0,0.0,0.0,0.0,0.0,0.0,0.0,0.0,0.0,0.0,0.0,0.0,0.0,0.0,-5.4969,-5.7686,-6.0899,-6.1396,-6.1918,-6.3241,-6.3311,-6.3345,-6.3345,-6.2124,-6.128,-6.1174,-5.9865,-5.8485,-5.7248,0.0,0.0,0.0,0.0,-5.2002,-5.1356,-5.0698,-5.0508,-5.0698,-5.0478,-5.0887,-5.1787,-5.2124,-5.2215,-5.2002,-5.1695,-5.1479,-5.1169,-5.0511,-5.0608,-5.1107,-4.9489,-4.9259,-4.9805,-4.9805,-4.9726,-4.9726,0.0,0.0,0.0,0.0,0.0,0.0,0.0,-4.5696,-4.7502,-4.7808,-4.9726,-5.1032,-5.0752,-5.2126,-5.3223,-5.3608,-5.3166,-5.3099,-5.3686,-5.3475,-5.4753,-5.7823,-6.0901,-6.4196,-6.773,-7.1108,-7.4189,-7.7005,-7.8202,-7.9156,-7.986,-7.948,-7.8464,-7.6943,-7.6698,-7.5686,-7.4141,-7.3116,-7.2153,-7.1235,-7.0036,-6.6654,-6.2185,-6.1359,-5.9088,-5.6289,-5.5832,-5.6006,-5.6147,-5.3604,-5.3609,-5.4204,-5.1457,-4.9265,0.0,0.0,0.0,0.0,0.0,0.0,0.0,0.0,0.0,0.0,0.0,0.0,0.0,0.0,0.0,0.0,0.0,0.0,0.0,-5.5844,-5.8724,-6.1547,-6.36,-6.4937,-6.5323,-6.4404,-6.3791,-6.3417,-6.3417,-6.2693,-6.1717,-6.0817,-5.9908,-5.8311,-5.5929,-5.5417,-5.4259,-5.2367,-5.2673,-5.2611,-5.2124,-5.0793,-5.0793,-5.2215,0.0,0.0,-5.2518,-5.2397,-5.2215,-5.2002,-5.1695,-5.1479,-5.1169,-5.0511,-5.0004,-4.9762,-5.0216,-5.0151,-4.9805,-4.9805,-4.9487,-4.9035,0.0,0.0,0.0,0.0,0.0,0.0,0.0,-4.4483,-4.6271,-4.6029,-4.8364,-4.9648,-4.886,-5.0246,-5.0923,-5.0252,-4.9915,-5.0652,-5.2803,-5.3551,-5.5738,-5.9834,-6.3093,-6.6667,-7.0468,-7.3465,-7.6235,-7.8845,-7.9972,-8.0737,-8.1248,-8.0514,-7.9381,-7.7974,-7.7216,-7.6004,-7.4379,-7.3333,-7.2571,-7.206,-7.101,-6.9242,-6.7055,-6.5897,-6.4476,-6.2876,-6.1617,-6.1137,-6.0774,-5.8796,-5.7804,-5.705,-5.4692,-5.25,-5.0581,0.0,0.0,0.0,0.0,0.0,0.0,0.0,0.0,0.0,0.0,0.0,0.0,0.0,0.0,-5.4312,-5.3649,0.0,-5.7989,-5.9415,-6.165,-6.3849,-6.5425,-6.6339,-6.6542,-6.5797,-6.4715,-6.3903,-6.3565,-6.2516,-6.1165,-5.9614,-5.884,-5.7339,-5.4812,-5.4601,-5.3775,-5.2115,-5.2842,-5.2708,-5.155,-5.1385,-5.1431,-5.1363,-5.172,-5.2017,-5.2518,-5.2917,-5.2884,-5.2518,-5.2446,-5.2282,-5.2157,-5.1498,-5.0631,-4.9794,-4.9998,-4.9382,-4.8268,-4.8218,-4.7673,-4.7073,0.0,0.0,0.0,0.0,0.0,0.0,0.0,-4.2719,-4.4397,-4.4224,-4.655,-4.7761,-4.6646,-4.812,-4.8711,-4.7494,-4.736,-4.8748,-5.217,-5.4276,-5.7276,-6.1567,-6.5478,-6.9312,-7.319,-7.564,-7.7888,-7.9862,-8.0895,-8.1332,-8.1251,-8.0455,-7.935,-7.8062,-7.7176,-7.5894,-7.4299,-7.3258,-7.2845,-7.2724,-7.1839,-7.1782,-7.2092,-7.0164,-6.9798,-6.9942,-6.7235,-6.5553,-6.4381,-6.32,-6.1134,-5.8819,-5.7619,-5.5938,-5.39,-5.1342,-5.0641,0.0,0.0,0.0,0.0,0.0,0.0,0.0,0.0,-5.322,-5.3666,-5.46,-5.6066,-5.7193,-5.7189,-5.9276,-6.1432,-6.2518,-6.4074,-6.5474,-6.644,-6.6609,-6.6508,-6.6203,-6.5256,-6.4309,-6.3599,-6.2178,-6.0348,-5.8199,-5.7527,-5.6292,-5.3867,-5.3899,-5.3497,-5.2396,-5.3368,-5.305,-5.1324,-5.2406,-5.224,-5.0842,-5.2417,-5.2893,-5.2643,-5.3584,-5.3702,-5.3216,-5.3254,-5.3211,-5.2935,-5.2426,-5.1404,-5.002,-4.9622,-4.8354,-4.6685,-4.6693,-4.613,-4.5528,0.0,0.0,0.0,0.0,0.0,0.0,0.0,0.0,-4.1844,-4.3364,-4.3595,-4.3497,-4.3077,-4.4021,-4.5156,-4.6335,-4.7067,-4.8786,-5.2203,-5.6118,-6.0011,-6.3781,-6.8605,-7.2547,-7.537,-7.7348,-7.8826,-7.9708,-8.0144,-7.9746,-7.852,-7.8785,-7.793,-7.6236,-7.6651,-7.6006,-7.4626,-7.4422,-7.4072,-7.3688,-7.3808,-7.4131,-7.456,-7.4085,-7.279,-7.1018,-6.9602,-6.7241,-6.4742,-6.4468,-6.2613,-6.0577,-6.1232,-5.9668,-5.7218,-5.5384,-5.3365,-5.1528,-5.0571,-5.0144,-5.0358,-5.1724,-5.1888,-5.2752,0.0,-5.7575,-5.7611,-5.8505,-5.9726,-6.054,-6.0212,-6.209,-6.3892,-6.4493,-6.5888,-6.6656,-6.5899,-6.5797,-6.5324,-6.4038,-6.4309,-6.4309,-6.3599,-6.2178,-6.0111,-5.7109,-5.6809,-5.5784,-5.3411,-5.3819,-5.3781,-5.3084,-5.4311,-5.45,-5.3301,-5.3347,-5.3387,-5.3507,-5.3047,-5.3181,-5.3702,-5.3884,-5.3945,-5.3884,-5.3658,-5.3068,-5.2306,-5.2217,-5.1165,-4.9659,-4.9516,-4.8211,-4.6361,-4.6677,-4.6799,-4.6774,0.0,0.0,0.0,0.0,0.0,0.0,0.0,0.0,0.0,-4.1304,-4.1909,-4.2288,-4.2497,-4.2816,-4.3357,-4.4069,-4.4941,-4.7626,-5.26,-5.5646,-6.0052,-6.6436,-6.9538,-7.2896,-7.6744,-7.7498,-7.8593,-8.0121,-7.9726,-7.9326,-7.8923,-7.8532,-7.8126,-7.7711,-7.6854,-7.637,-7.6216,-7.5379,-7.49,-7.4676,-7.4588,-7.4791,-7.5072,-7.3914,-7.2469,-7.0706,-6.8556,-6.6179,0.0,-6.2924,-6.1546,-6.0378,-6.1266,-5.9737,-5.7182,-5.4964,-5.2891,-5.1074,-5.0234,-5.1484,-5.3243,-5.4479,-5.596,-5.7842,-6.0307,-6.0493,-6.0332,-6.0831,-6.2316,-6.3545,-6.3474,-6.502,-6.6316,-6.6416,-6.6446,-6.6316,-6.5895,-6.4661,-6.3396,-6.2347,-6.1704,-6.14,-6.1501,-6.0588,-5.8897,-5.6263,-5.6093,-5.5202,-5.3338,-5.4192,-5.464,-5.4371,-5.5628,-5.5811,-5.4628,-5.5204,-5.4892,-5.3651,-5.46,-5.451,-5.3784,-5.4601,-5.4752,-5.4389,-5.4684,-5.3713,-5.1945,-5.2229,-5.1294,-4.9677,-4.9652,-4.9133,-4.8192,-4.727,-4.6395,-4.5647,0.0,0.0,0.0,0.0,0.0,0.0,0.0,0.0,0.0,0.0,-4.0752,-4.1541,-4.1866,-4.1778,-4.1853,-4.2126,-4.3202,-4.6229,-5.1925,-5.459,-5.9457,-6.7155,-6.9849,-7.3071,-7.7461,-7.7614,-7.8408,-8.0067,-7.8932,-7.8516,-7.8745,-7.7848,-7.7883,-7.8668,-7.7021,-7.6704,-7.7379,-7.6083,-7.553,-7.544,-7.513,-7.4857,-7.4442,-7.2741,-7.0621,-6.832,-6.6309,-6.3896,-6.1431,-5.9798,-5.8616,-5.7999,-5.9022,-5.8124,-5.6289,-5.42,-5.2177,-5.0615,-5.0733,-5.3137,-5.603,-5.7786,-6.0256,-6.2485,-6.3518,-6.3289,-6.3004,-6.3346,-6.4772,-6.5917,-6.5895,-6.6764,-6.7384,-6.6941,-6.6221,-6.5583,-6.5094,-6.3103,-6.1332,-6.0182,-5.8727,-5.8017,-5.8524,-5.866,-5.7763,-5.5493,-5.5623,-5.5202,-5.3511,-5.473,-5.5538,-5.5616,-5.6691,-5.6746,-5.5604,-5.664,-5.6137,-5.4282,-5.5857,-5.5801,-5.4368,-5.5219,-5.534,-5.4888,-5.504,-5.3959,-5.1991,-5.1943,-5.0938,-4.9214,-4.9348,-4.9135,-4.87,-4.7679,-4.656,-4.5567,0.0,0.0,0.0,0.0,0.0,0.0,0.0,0.0,0.0,0.0,0.0,0.0,0.0,-4.0164,-4.0351,-4.1276,-4.2199,-4.4754,-4.9502,-5.3474,-5.8411,-6.476,-6.9745,-7.3942,-7.7351,-7.8043,-7.8623,-7.9155,-7.7407,-7.6699,-7.695,-7.6167,-7.6521,-7.7779,-7.687,-7.691,-7.7516,-7.6521,-7.6013,-7.5874,-7.5652,-7.4531,-7.2808,-7.1193,-6.7525,-6.324,-6.3198,-6.0583,-5.6825,-5.5186,-5.37,-5.2925,-5.4474,-5.508,-5.4996,-5.4072,-5.199,-5.0585,-5.308,-5.5555,-5.832,-6.215,-6.4207,-6.5523,-6.6517,-6.6368,-6.6138,-6.6702,-6.7195,-6.7417,-6.6789,-6.678,-6.6555,-6.5446,-6.5289,-6.4585,-6.2764,-6.1163,-5.937,-5.7205,-5.5615,-5.4735,0.0,-5.6664,-5.703,-5.4787,-5.5783,-5.5803,-5.4231,-5.5418,-5.6332,-5.6644,-5.7327,-5.728,-5.6338,-5.6927,-5.7006,-5.6568,-5.6704,-5.6452,-5.6047,-5.5752,-5.5581,-5.5551,-5.4347,-5.3318,-5.2323,-5.1173,-4.9768,-4.8138,-4.811,-4.7344,-4.6481,-4.762,-4.8066,-4.7881,0.0,0.0,0.0,0.0,0.0,0.0,0.0,0.0,0.0,0.0,0.0,0.0,0.0,0.0,0.0,0.0,-4.2161,-4.4376,-4.8135,-5.1932,-5.6563,-6.2367,-6.6866,-7.0968,-7.4724,-7.5002,-7.5561,-7.6591,-7.5387,-7.4742,-7.4517,-7.5312,-7.621,-7.7108,-7.6749,-7.6985,-7.7654,-7.643,-7.6214,-7.645,-7.3572,-7.2095,-7.1169,-6.7003,-6.2617,-5.8424,0.0,-5.4398,-5.2429,-5.0682,-5.0221,-5.0615,-5.1741,-5.1718,-5.0952,-4.9049,-4.9517,-5.1257,-5.3959,-5.8164,-6.2797,-6.6806,-6.8136,-6.8703,-6.9548,-6.8334,-6.6738,-6.5766,-6.4776,-6.4031,-6.3511,-6.2614,-6.2336,-6.3508,-6.3193,-6.277,-6.2615,-6.0732,-5.8389,-5.5649,-5.4905,0.0,0.0,0.0,0.0,-5.4461,-5.5033,-5.5286,-5.489,-5.6318,-5.7255,-5.7387,-5.7794,-5.7892,-5.7576,-5.7782,-5.7546,-5.7035,-5.6361,-5.5827,-5.5508,-5.4803,-5.4111,-5.3727,-5.2972,-5.1818,-5.0317,-4.9497,-4.8452,-4.7172,-4.6888,-4.7236,-4.781,-4.8204,-4.9035,-4.9764,0.0,0.0,0.0,0.0,0.0,0.0,0.0,0.0,0.0,0.0,0.0,0.0,0.0,0.0,0.0,0.0,0.0,-4.3748,-4.6813,-4.9636,-5.3422,-5.8409,-6.2047,-6.5514,-6.883,-6.8944,-6.9642,-7.0971,-7.0213,-7.0159,-7.0871,-7.1924,-7.332,-7.4909,-7.4525,-7.5085,-7.6079,-7.395,-7.3121,-7.2871,-6.877,-6.6619,-6.5389,-6.0845,-5.6945,0.0,-5.1003,-4.9424,-4.8395,-4.7144,-4.7336,-4.8123,-4.8625,-4.868,-4.8359,-4.7439,-4.9472,-5.2874,-5.677,-6.1562,-6.6416,-7.018,-7.1014,-7.0799,-7.0416,-6.82,-6.5682,-6.3766,-6.2233,-6.0911,-6.0113,-5.8905,-5.8702,-6.0792,-6.022,-5.9959,-6.1531,-5.922,-5.6934,-5.5477,-5.4529,-5.382,0.0,0.0,0.0,-5.4294,-5.5277,-5.57,-5.5377,-5.6971,-5.7823,-5.7715,-5.7879,-5.7974,-5.7863,-5.7863,-5.7547,-5.6776,-5.5917,-5.5041,-5.4158,-5.3501,-5.2799,-5.2225,-5.1586,-5.0657,-4.947,-4.8584,-4.7571,-4.661,-4.6063,-4.6711,-4.7782,-4.7623,-4.8546,-4.9886,0.0,0.0,0.0,0.0,0.0,0.0,0.0,0.0,0.0,0.0,0.0,0.0,0.0,0.0,0.0,0.0,0.0,0.0,-4.5383,-4.688,-4.927,-5.308,-5.5791,-5.8159,-6.0227,-6.0585,-6.1467,-6.2866,-6.2375,-6.3424,-6.5972,-6.6195,-6.7926,-7.0868,-7.0212,-7.0961,-7.2529,-6.9104,-6.7011,-6.565,-6.172,-5.8681,-5.6251,-5.3376,-5.0919,-4.8766,-4.7286,-4.5961,-4.4852,-4.4764,-4.5154,-4.562,-4.5457,-4.6222,-4.7519,-4.9296,-5.1877,-5.5433,-6.1314,-6.5585,-6.9147,-7.2264,-7.2657,-7.1627,-6.9247,-6.6038,-6.3083,-6.0953,-5.9416,-5.8044,-5.668,-5.5694,-5.5687,-5.7339,-5.6558,-5.6736,-5.9702,-5.7087,-5.5342,-5.641,-5.469,-5.3881,-5.5113,-5.4096,0.0,-5.4337,0.0,-5.6859,-5.5842,-5.736,-5.8173,-5.7839,-5.7839,-5.7698,-5.7303,-5.7303,-5.6822,-5.582,-5.5396,-5.429,-5.248,-5.1986,-5.1655,-5.1127,-5.0126,-4.9675,-4.9616,-4.7957,-4.7066,-4.6396,-4.5327,-4.5699,-4.6534,-4.596,-4.6679,-4.8284,0.0,0.0,0.0,0.0,0.0,0.0,0.0,0.0,0.0,0.0,0.0,0.0,0.0,0.0,0.0,0.0,0.0,0.0,-4.3556,-4.5472,-4.7072,-4.8254,-5.1568,-5.4086,-5.5581,-5.6706,-5.769,-5.8508,-5.9232,-5.9711,-5.9961,-6.1322,-6.2327,-6.2949,-6.3379,-6.3645,-6.3693,-6.2109,-6.1571,-6.1507,-5.7022,-5.5039,-5.4351,-5.0895,-4.8294,-4.6513,-4.6214,-4.545,-4.4662,-4.49,-4.5595,-4.6474,-4.7065,-4.8355,-5.0028,-5.1879,-5.5627,-6.0066,-6.4248,-6.8053,-7.1377,-7.3455,-7.1743,-6.8993,-6.7126,-6.3478,-5.963,-5.7105,-5.4548,-5.2459,-5.1335,-5.0936,-5.2014,-5.6004,-5.692,-5.8255,-6.1358,-6.0353,-5.8841,-5.7673,-5.7715,-5.7557,-5.6854,-5.6918,0.0,0.0,-5.664,-5.6557,-5.7537,-5.8649,-5.9094,-5.8512,-5.8286,-5.7939,-5.7303,-5.7303,-5.6592,-5.5168,-5.4629,-5.3641,-5.2393,-5.0553,-5.0027,-5.0438,-4.816,-4.7298,-4.739,-4.5527,-4.4667,-4.4422,-4.3718,-4.4247,-4.5547,-4.5718,-4.6679,-4.8274,0.0,0.0,0.0,0.0,0.0,0.0,0.0,0.0,0.0,0.0,0.0,0.0,0.0,0.0,0.0,0.0,0.0,0.0,0.0,-4.3811,-4.4412,-4.437,-4.6504,-4.7978,-4.8501,-4.9475,-5.0507,-5.1634,-5.2553,-5.3573,-5.4719,-5.5825,-5.6844,-5.7727,-5.822,-5.8583,-5.8681,-5.6814,-5.6032,0.0,0.0,-4.9765,-4.9361,-4.6916,-4.5606,-4.5114,-4.5238,-4.5311,-4.5532,-4.6542,-4.7515,-4.8482,-4.9729,-5.1431,-5.3435,-5.5946,-5.9577,-6.3633,-6.7581,-7.0516,-7.2532,-7.2958,-7.0205,-6.6566,-6.348,-5.9582,-5.5755,-5.2974,-5.0483,-4.86,-4.7843,-4.7895,-4.9374,-5.3492,-5.4828,-5.6802,-6.0664,-6.0367,-5.9688,-5.9497,-6.0002,-5.9871,-5.8855,-5.9209,-5.9474,0.0,-5.7677,-5.7222,-5.8356,-5.9185,-5.9189,-5.8548,-5.8405,-5.7971,-5.7303,-5.6996,-5.599,-5.4296,-5.3323,-5.2171,-5.0857,-4.9771,-4.9377,-4.9193,0.0,-4.6838,-4.661,-4.4911,-4.4141,-4.395,-4.3332,-4.4094,-4.5329,-4.5013,-4.5839,-4.7272,0.0,0.0,0.0,0.0,0.0,0.0,0.0,0.0,0.0,0.0,0.0,0.0,0.0,0.0,0.0,0.0,0.0,0.0,0.0,0.0,-4.1832,-4.1502,-4.1719,-4.1724,-4.1512,-4.202,-4.3047,-4.4687,-4.5358,-4.7187,-5.0085,-5.037,-5.1608,-5.361,-5.3676,-5.4233,-5.4933,-5.2227,-5.0592,-4.9492,-4.6313,-4.4556,-4.3796,0.0,-4.348,-4.4299,-4.4493,-4.5318,-4.6631,-4.8783,-5.0128,-5.1245,-5.302,-5.5017,-5.7395,-6.067,-6.3394,-6.6321,-7.065,-7.2349,-7.2641,-7.1563,-6.8362,-6.4235,-5.9529,-5.5451,-5.1854,-4.9041,-4.7136,-4.5857,-4.5515,-4.6086,-4.7644,-5.0873,-5.2011,-5.4267,-5.908,-5.8991,-5.9176,-6.1098,-6.1434,-6.1278,-6.0972,-6.109,-6.0951,-6.0274,-5.924,-5.8761,-5.8837,-5.9306,-5.9364,-5.8696,-5.8434,-5.7942,-5.7306,-5.6617,-5.5233,-5.2998,-5.1786,-5.0153,-4.8507,-4.9065,-4.8829,-4.7835,-4.7471,0.0,-4.6276,-4.4905,-4.4206,-4.4099,-4.382,-4.4308,-4.5379,-4.4371,-4.4889,-4.5988,0.0,0.0,0.0,0.0,0.0,0.0,0.0,0.0,0.0,0.0,-3.7532,-3.7648,0.0,0.0,0.0,0.0,0.0,0.0,0.0,0.0,0.0,-4.1078,-4.0203,-4.0154,-4.1066,-4.1726,-4.2535,-4.3476,-4.4804,-4.5753,-4.6331,-4.6654,-4.7012,-4.7337,-4.7351,-4.7339,-4.7218,-4.6364,-4.5779,-4.5402,-4.4378,-4.3852,-4.3744,-4.3597,0.0,0.0,-4.4852,-4.5048,-4.5756,-4.9885,-5.2296,-5.398,-5.5866,-5.8618,-6.1719,-6.4497,-6.6331,-6.8214,-7.1544,-7.2054,-7.1413,-7.0442,-6.6678,-6.2125,-5.8047,-5.3297,-4.901,-4.659,-4.4855,-4.3743,-4.3602,-4.4926,-4.7259,-5.0873,-5.2241,-5.4539,-5.9392,-5.9471,-5.9543,-6.083,-6.1343,-6.193,-6.2522,-6.1964,0.0,0.0,0.0,-6.0671,-5.9975,-6.0704,-6.0999,-6.0703,-5.9114,-5.7878,-5.7369,-5.6477,-5.4112,-5.0535,-4.952,-4.828,-4.7021,-4.6944,-4.6934,-4.6834,-4.6217,0.0,-4.4299,-4.342,-4.3019,-4.3075,-4.3546,-4.3874,-4.4223,-4.4702,-4.5122,-4.5348,0.0,0.0,0.0,0.0,0.0,0.0,0.0,-3.7801,-3.7635,-3.7544,-3.7302,-3.7311,-3.7992,-3.8975,-4.0015,0.0,0.0,0.0,0.0,0.0,0.0,0.0,-4.0345,-4.0317,-4.0702,-4.1502,-4.2434,-4.3416,0.0,-4.4456,-4.5619,-4.526,-4.5362,-4.5828,-4.5841,-4.5703,-4.5539,-4.5168,-4.4928,-4.4751,-4.4428,-4.4213,-4.4109,-4.4109,0.0,0.0,-4.5042,-4.5437,-4.6176,-4.9384,-5.2549,-5.5538,-5.8294,-6.1085,-6.3812,-6.621,-6.7476,-6.8732,-7.1588,-7.2069,-7.1318,-6.9454,-6.516,-6.0117,-5.546,-5.0635,-4.6453,-4.4243,-4.3195,-4.2578,-4.2372,-4.4025,-4.59,-4.7512,-4.8993,-5.1583,-5.6268,-5.7204,-5.8163,-6.0027,-6.1424,-6.2035,-6.1375,-6.1535,-6.1722,-6.185,0.0,-6.1522,-6.1145,-6.0941,-6.085,-6.0642,-5.8779,-5.7426,-5.6823,-5.5388,-5.324,-5.0434,-4.9291,-4.8016,-4.6631,-4.6779,-4.6475,-4.6093,-4.5594,0.0,-4.4051,-4.3326,-4.32,-4.3326,-4.3678,-4.395,-4.4099,-4.4511,-4.49,-4.514,0.0,0.0,0.0,0.0,0.0,0.0,0.0,-3.797,-3.792,-3.811,-3.7716,-3.7901,-3.9217,-3.9077,-3.9561,0.0,0.0,0.0,0.0,0.0,0.0,0.0,0.0,0.0,0.0,0.0,0.0,-4.3853,-4.3259,0.0,0.0,0.0,0.0,0.0,-4.5596,-4.5587,-4.5565,-4.5496,-4.529,0.0,0.0,-4.4836,0.0,0.0,0.0,0.0,0.0,-4.5392,-4.6339,-4.8392,-5.1447,-5.4945,-5.8156,-6.1426,-6.4365,-6.6003,-6.7145,-6.8376,-7.0833,-7.1321,-7.0539,-6.8116,-6.3308,-5.7741,-5.2563,-4.7957,-4.4146,-4.1902,-4.1517,-4.1497,-4.1243,-4.2673,-4.3926,-4.4069,-4.5574,-4.8209,-5.2808,-5.4522,-5.6303,-5.8917,-6.0902,-6.144,-6.0074,-6.0801,0.0,-6.079,0.0,0.0,-6.1968,-6.0556,-5.9795,-6.017,-5.809,-5.6676,-5.6247,-5.4297,-5.2339,-5.0206,-4.8978,-4.7515,-4.6097,-4.6487,-4.6038,-4.5174,-4.5194,0.0,0.0,-4.3553,-4.3553,-4.3802,-4.395,-4.4147,-4.4539,-4.4635,-4.502,-4.5477,0.0,0.0,0.0,0.0,0.0,0.0,0.0,-3.9487,-3.9682,-3.9124,-3.9075,-3.9493,-4.0918,-4.0313,-4.0063,0.0,0.0,0.0,0.0,0.0,0.0,0.0,0.0,0.0,0.0,0.0,0.0,-4.4687,-4.4865,0.0,0.0,0.0,0.0,0.0,0.0,-4.4896,-4.4957,-4.5694,0.0,0.0,0.0,0.0,0.0,0.0,0.0,0.0,0.0,-4.392,-4.4793,-4.721,-4.8842,-5.0231,-5.2836,-5.8075,-6.3224,-6.2892,-6.462,-6.7057,-6.9009,-6.8607,-6.7173,-6.5604,-6.0378,-5.4387,-4.985,-4.5703,-4.2057,-3.9544,-3.9301,-3.967,-3.9921,-4.0347,-4.1251,-4.2985,-4.4053,-4.6254,-5.0815,-5.2876,-5.496,-5.7706,-5.8807,-5.9656,-6.0413,-6.0578,-6.0765,0.0,0.0,0.0,-6.1634,-5.9363,-5.8725,-6.017,-5.7167,-5.5631,-5.5539,-5.3836,-5.1268,-4.7749,-4.6741,-4.5479,-4.3963,-4.4356,-4.4313,-4.4022,-4.4774,0.0,0.0,-4.3678,-4.3802,-4.3802,-4.4099,-4.4511,-4.5116,-4.5597,-4.6102,-4.6559,0.0,0.0,0.0,0.0,0.0,0.0,-3.9075,-3.9615,-4.005,-4.0197,-4.0053,-4.0436,-4.1647,-4.1279,-4.097,-4.1037,0.0,0.0,0.0,0.0,0.0,0.0,0.0,0.0,0.0,0.0,-4.4569,-4.5033,-4.4966,0.0,0.0,0.0,0.0,0.0,0.0,-4.4697,-4.516,-4.5256,0.0,0.0,0.0,0.0,0.0,0.0,0.0,0.0,0.0,0.0,-4.5099,-4.5499,-4.6874,-4.8259,-4.7389,-5.0979,-5.6088,-5.9049,-6.1092,-6.3057,-6.6061,-6.6939,-6.6453,-6.4069,-5.8413,-5.2497,-4.8938,-4.4078,-4.0052,-3.9039,-3.8963,-3.8951,-3.8544,-3.9199,-3.9767,-3.9627,-4.015,-4.1899,-4.5678,-4.7439,-4.9936,-5.4019,-5.627,-5.8009,0.0,0.0,-6.0193,0.0,0.0,0.0,-5.9035,-5.8434,-5.8377,-5.8983,-5.6678,-5.5289,-5.4856,-5.2887,-5.0511,-4.806,-4.7077,-4.563,-4.4071,-4.4202,-4.4196,-4.4026,-4.4308,0.0,0.0,-4.4094,-4.4075,-4.4123,-4.4559,-4.4948,-4.5188,-4.5718,-4.6247,-4.6704,0.0,0.0,0.0,0.0,0.0,-3.8528,-3.8996,-3.9859,-4.0525,-4.0862,-4.0857,-4.1085,-4.1946,-4.1664,-4.1403,-4.1493,-4.1411,0.0,0.0,0.0,0.0,0.0,0.0,0.0,0.0,0.0,-4.5137,-4.5303,-4.5137,-4.5159,0.0,0.0,-4.4738,-4.4663,0.0,0.0,0.0,0.0,0.0,0.0,0.0,0.0,0.0,0.0,0.0,0.0,0.0,0.0,0.0,0.0,0.0,-4.6164,-4.3963,-4.5266,-4.8562,-5.3414,-5.6546,-5.9078,-6.204,-6.3705,-6.4023,-6.1497,-5.599,-5.0307,-4.6941,-4.2187,-3.8209,-3.7614,-3.7713,-3.7663,-3.7025,-3.7854,-3.8329,-3.7418,-3.7985,-3.9665,-4.3005,-4.4625,-4.7059,-5.1537,0.0,-5.6216,0.0,-5.8912,0.0,0.0,0.0,0.0,0.0,-5.7283,-5.734,-5.7193,-5.5323,-5.4002,-5.3506,-5.1439,-4.9643,-4.7977,-4.7173,-4.5988,-4.4356,-4.4356,-4.4466,-4.4182,-4.4081,0.0,0.0,-4.4563,-4.4567,-4.4736,-4.5122,-4.5459,-4.5773,-4.6006,-4.6391,-4.6704,0.0,0.0,0.0,0.0,0.0,0.0,-3.8802,-4.0452,-4.1517,-4.0988,-4.1244,-4.1591,-4.1852,-4.1279,-4.1135,-4.1644,-4.1705,0.0,0.0,0.0,0.0,0.0,0.0,0.0,0.0,0.0,-4.5586,-4.5586,-4.5586,-4.5303,-4.48,-4.48,-4.4318,-4.3458,0.0,0.0,0.0,0.0,0.0,0.0,0.0,0.0,-4.4702,0.0,0.0,0.0,0.0,0.0,0.0,0.0,0.0,0.0,0.0,-4.223,-4.1848,-4.5617,-5.0844,-5.5707,-5.6899,-5.8174,-5.894,-5.7314,-5.2734,-4.7485,-4.3113,-3.9622,-3.6755,-3.4708,-3.4864,-3.5441,-3.5441,-3.5907,-3.6597,-3.7367,-3.852,-4.0646,-4.4338,-4.5898,-4.7902,0.0,0.0,-5.4078,-5.5448,-5.7196,0.0,0.0,0.0,0.0,0.0,-5.5496,-5.5308,-5.4623,-5.2674,-5.1433,-5.1171,-4.9749,-4.824,-4.6917,-4.6789,-4.5895,-4.4356,-4.4747,-4.4829,0.0,0.0,0.0,0.0,-4.4936,-4.5157,-4.5619,-4.5643,-4.6275,-4.7094,-4.6834,-4.6704,-4.6704,0.0,0.0,0.0,0.0,0.0,0.0,0.0,-4.0788,-4.1432,-4.1403,-4.1355,-4.159,-4.2222,-4.22,-4.2259,-4.2625,-4.229,0.0,0.0,0.0,0.0,0.0,0.0,0.0,0.0,0.0,-4.5457,-4.5341,-4.5341,-4.5159,-4.4776,-4.4336,-4.3953,-4.3647,-4.3177,-4.3472,0.0,0.0,0.0,0.0,0.0,-4.5772,-4.6962,0.0,0.0,0.0,0.0,0.0,0.0,0.0,0.0,0.0,0.0,0.0,0.0,-4.1582,-4.5,-4.9234,-5.1674,-5.3117,-5.338,-5.1422,-4.7684,-4.3763,-4.0926,-3.7871,-3.5495,-3.5036,-3.5071,-3.5165,-3.5165,-3.5671,-3.6555,-3.8104,-3.9139,-4.063,-4.308,-4.5696,0.0,-5.1678,-5.5869,-5.8316,0.0,0.0,0.0,0.0,0.0,0.0,0.0,-5.4394,-5.4066,-5.3917,-5.32,-5.2183,-5.0732,-4.9543,-4.8608,-4.7581,-4.6526,-4.5823,-4.555,-4.5302,-4.5429,0.0,0.0,0.0,0.0,-4.5306,-4.5503,-4.6017,-4.641,-4.6743,-4.7223,-4.7094,-4.6834,-4.6655,0.0,0.0,0.0,0.0,0.0,0.0,0.0,-4.1415,-4.1822,-4.1427,-4.1258,-4.1285,-4.1614,-4.1835,-4.2246,-4.288,-4.303,0.0,0.0,0.0,0.0,0.0,0.0,0.0,-4.5179,-4.5337,-4.5342,-4.5201,-4.495,-4.4675,-4.4417,-4.416,-4.3704,-4.3173,-4.3116,-4.3337,0.0,0.0,0.0,0.0,-4.5212,-4.6052,-4.7475,0.0,0.0,0.0,0.0,0.0,0.0,0.0,0.0,0.0,0.0,0.0,0.0,0.0,-4.0412,-4.2894,-4.6605,-4.8201,-4.8572,-4.7139,-4.4269,-4.1246,-3.9065,-3.666,-3.492,-3.4873,-3.4835,-3.4883,-3.493,-3.5382,-3.6255,-3.7847,-3.8876,-4.0271,-4.2664,0.0,0.0,-5.3299,0.0,0.0,0.0,0.0,0.0,0.0,0.0,0.0,0.0,-5.4865,-5.4084,-5.2998,-5.2359,-5.1262,-4.9546,-4.8614,-4.7977,-4.7449,-4.6476,-4.6012,-4.5895,-4.6012,-4.6135,0.0,0.0,0.0,0.0,-4.5896,-4.5946,-4.6315,-4.7079,-4.7469,-4.7377,-4.7467,-4.7012,-4.6367,0.0,0.0,0.0,0.0,0.0,0.0,0.0,-4.2199,-4.244,-4.1208,-4.0929,-4.0742,-4.0392,-4.0672,-4.1442,-4.279,0.0,0.0,0.0,0.0,0.0,0.0,0.0,0.0,-4.4484,-4.4994,-4.5245,-4.518,-4.4511,-4.4034,-4.3769,-4.4154,-4.3538,-4.2251,-4.3743,-4.3802,-4.2889,-4.3215,-4.39,-4.4719,-4.5063,-4.5806,0.0,0.0,0.0,0.0,0.0,0.0,0.0,0.0,0.0,0.0,0.0,0.0,0.0,0.0,0.0,0.0,0.0,-4.3504,-4.4108,-4.3913,-4.2037,-3.965,-3.7508,-3.5951,0.0,-3.4165,-3.4252,-3.448,-3.4643,-3.5086,-3.5771,-3.6913,-3.8175,-4.0024,-4.3158,-4.6816,0.0,0.0,-5.6778,0.0,0.0,0.0,0.0,0.0,0.0,0.0,0.0,-5.6308,-5.4942,-5.2165,-5.0511,-4.8982,-4.7947,-4.734,-4.6831,-4.654,-4.676,-4.637,-4.562,-4.6674,-4.6567,0.0,0.0,0.0,0.0,-4.6439,-4.6588,-4.6737,-4.778,-4.7947,-4.7611,-4.7816,-4.6964,-4.5862,0.0,0.0,0.0,0.0,0.0,0.0,0.0,0.0,0.0,0.0,-4.0492,-4.0524,-4.1014,-4.1931,-4.3161,0.0,0.0,0.0,0.0,0.0,0.0,0.0,0.0,0.0,-4.5324,-4.5208,-4.5055,-4.4896,-4.4215,-4.3738,-4.349,-4.3607,-4.3095,-4.2251,-4.29,-4.3209,-4.3294,-4.3344,-4.4361,-4.577,-4.5263,-4.6081,0.0,0.0,0.0,0.0,-4.5113,-4.4752,0.0,0.0,0.0,0.0,0.0,0.0,0.0,0.0,-3.8397,-3.7369,-3.8704,0.0,-3.8764,-3.8205,-3.7607,-3.6841,0.0,-3.4832,-3.4133,-3.3809,-3.3725,-3.3842,-3.4447,-3.5086,-3.6364,-3.892,-4.015,-4.1824,-4.4826,0.0,0.0,-5.8659,-6.0469,0.0,0.0,0.0,0.0,0.0,0.0,0.0,0.0,-5.5664,-5.4276,-5.3148,-5.1224,-4.9439,-4.7676,-4.7425,-4.7364,-4.7208,-4.6549,-4.6367,-4.6771,-4.6197,-4.6113,0.0,0.0,0.0,-4.6259,-4.6381,-4.6631,-4.7032,-4.706,-4.7033,-4.6974,-4.6426,-4.5779,-4.5134,0.0,0.0,0.0,0.0,0.0,0.0,0.0,0.0,0.0,0.0,0.0,-4.054,-4.0368,-4.2057,0.0,0.0,0.0,0.0,0.0,0.0,0.0,0.0,0.0,-4.4825,-4.538,-4.4995,-4.4762,-4.4751,-4.3801,-4.3465,-4.3652,-4.3656,-4.3368,-4.2979,-4.3041,-4.3088,-4.3109,-4.3427,-4.438,-4.5616,-4.531,0.0,0.0,0.0,0.0,0.0,-4.5425,-4.4722,0.0,-4.3587,-4.3124,-4.2772,0.0,0.0,0.0,0.0,-3.8814,-3.7454,-3.757,-3.736,-3.7001,-3.6659,-3.6313,-3.5934,-3.5542,-3.4939,-3.4464,-3.4577,-3.4496,-3.4628,-3.5481,-3.5807,-3.6921,-3.9787,-4.0512,0.0,0.0,0.0,-5.8017,-6.1046,-6.1361,0.0,0.0,0.0,0.0,0.0,0.0,0.0,0.0,-5.5743,-5.4375,-5.2339,-5.1298,-4.99,-4.805,-4.7783,-4.7783,-4.8026,-4.6956,-4.6591,-4.7091,-4.6385,-4.6118,0.0,0.0,0.0,-4.6326,-4.6577,-4.6702,-4.6803,-4.6935,-4.6785,-4.6434,-4.6134,-4.5586,-4.4816,0.0,0.0,0.0,0.0,0.0,0.0,0.0,0.0,0.0,0.0,0.0,0.0,0.0,0.0,0.0,0.0,0.0,0.0,0.0,0.0,0.0,0.0,-4.4737,-4.4836,-4.5001,-4.46,-4.4482,-4.4624,-4.3526,-4.3387,-4.4144,-4.413,-4.4038,-4.399,-4.3571,-4.3216,-4.2996,-4.3545,-4.4265,-4.5065,-4.5298,0.0,0.0,0.0,0.0,0.0,0.0,0.0,0.0,-4.398,-4.3262,-4.215,-4.2024,0.0,0.0,0.0,0.0,0.0,-3.7854,-3.7793,-3.7669,-3.7053,-3.6538,-3.6157,-3.5876,-3.5397,-3.5084,-3.5383,-3.5497,-3.5807,-3.6551,-3.6803,-3.7731,-4.0271,0.0,0.0,-5.175,-5.5205,-5.8493,-6.2737,0.0,0.0,0.0,0.0,0.0,0.0,0.0,0.0,0.0,-5.5973,-5.466,-5.1298,-5.1068,-5.0257,-4.8608,-4.7986,-4.7986,-4.8453,-4.7346,-4.683,-4.6806,-4.6638,-4.6265,-4.5939,0.0,0.0,-4.6351,-4.6803,-4.6677,-4.6276,-4.6935,-4.6563,-4.5699,-4.5862,-4.5261,-4.4349,0.0,0.0,0.0,0.0,0.0,0.0,0.0,0.0,0.0,0.0,0.0,0.0,0.0,0.0,0.0,0.0,0.0,0.0,0.0,0.0,0.0,-4.4117,-4.4455,-4.4612,-4.4587,-4.4411,-4.4327,-4.4355,-4.3978,-4.4219,-4.4939,-4.4901,-4.4752,-4.4369,-4.3708,-4.3459,-4.3675,-4.3769,-4.4346,-4.5186,-4.5361,0.0,0.0,0.0,0.0,0.0,0.0,0.0,0.0,-4.4336,-4.3469,-4.2109,-4.165,0.0,0.0,0.0,0.0,0.0,-3.9807,-4.0259,-4.0084,-3.6658,-3.6585,-3.6898,-3.5265,-3.5235,-3.5169,-3.4021,-3.466,-3.544,-3.5589,-3.7557,-3.9764,-4.1566,0.0,-5.0167,0.0,0.0,-6.0765,0.0,0.0,0.0,0.0,0.0,0.0,0.0,0.0,0.0,0.0,-5.5894,-5.4534,-5.2376,-5.1779,-5.0558,-4.8785,-4.8046,-4.7789,-4.7863,-4.6781,-4.6389,-4.6613,-4.619,-4.6013,-4.618,0.0,-4.6301,-4.6326,-4.6401,-4.6125,-4.5673,-4.5574,-4.4962,-4.4032,-4.3941,-4.3719,-4.3009,0.0,0.0,0.0,0.0,0.0,0.0,0.0,0.0,0.0,0.0,0.0,0.0,0.0,0.0,0.0,0.0,0.0,0.0,0.0,0.0,-4.4197,-4.425,-4.425,-4.4279,-4.4221,-4.4109,-4.4109,-4.425,-4.4336,-4.4851,-4.5771,-4.6417,-4.6051,-4.4839,-4.4885,-4.4626,-4.4138,-4.4406,-4.4867,-4.5323,0.0,0.0,0.0,0.0,0.0,0.0,0.0,0.0,0.0,0.0,-4.2164,-4.087,-4.0995,0.0,0.0,0.0,0.0,0.0,-4.004,-4.0274,-3.9945,-3.7185,-3.7599,-3.8237,-3.6668,-3.6252,-3.6051,-3.5705,-3.6092,-3.6808,-3.759,-3.9447,-4.2076,-4.5603,0.0,-5.4435,-5.7047,-5.8756,0.0,0.0,0.0,0.0,0.0,0.0,0.0,0.0,0.0,0.0,0.0,0.0,-5.3795,-5.1075,-5.0409,-4.9621,-4.8786,-4.7807,-4.7532,-4.778,-4.6712,-4.6462,-4.6859,-4.6309,-4.618,-4.6301,0.0,-4.6301,-4.6301,-4.6301,-4.615,-4.5805,-4.513,-4.4569,-4.4007,-4.312,-4.2536,-4.1715,0.0,0.0,0.0,0.0,0.0,0.0,0.0,0.0,0.0,0.0,0.0,0.0,0.0,0.0,0.0,0.0,0.0,0.0,0.0,-4.4353,-4.4156,-4.4482,-4.4279,-4.4109,-4.3986,-4.3902,-4.4008,-4.4339,-4.4733,-4.5477,-4.6561,-4.7698,-4.7183,-4.5401,-4.5948,-4.5641,-4.4663,-4.5061,-4.5342,-4.5542,0.0,0.0,0.0,0.0,0.0,0.0,0.0,0.0,0.0,0.0,0.0,0.0,0.0,0.0,0.0,-4.0623,-4.0551,-4.0428,-3.9951,-3.9996,-3.9692,-3.7886,-3.8465,-3.9229,-3.8351,-3.7872,-3.7828,-3.8576,-3.8813,-3.9202,-4.0294,-4.2304,0.0,-4.9965,-5.45,-5.7681,0.0,0.0,0.0,0.0,0.0,0.0,0.0,0.0,0.0,0.0,0.0,0.0,0.0,0.0,-5.2658,-4.9341,-4.8786,-4.851,-4.8385,-4.7556,-4.733,-4.7707,-4.6627,-4.6326,-4.6728,-4.6301,-4.6125,-4.6125,-4.625,-4.6301,-4.6301,-4.6301,-4.6225,-4.6075,-4.5151,-4.4519,-4.401,-4.2784,-4.1574,-4.0479,0.0,0.0,0.0,0.0,0.0,0.0,0.0,0.0,0.0,0.0,0.0,0.0,0.0,0.0,0.0,0.0,0.0,0.0,0.0,-4.4901,-4.5159,-4.4872,-4.465,-4.4393,-4.3986,-4.3902,-4.4103,-4.4773,-4.537,-4.62,-4.7313,-4.8222,-4.7736,-4.612,-4.6186,-4.5875,-4.534,-4.5358,-4.5572,-4.588,-4.604,0.0,0.0,0.0,0.0,0.0,0.0,0.0,0.0,0.0,0.0,0.0,0.0,0.0,-4.0748,-4.007,-4.0377,-4.0792,-4.0167,-4.0477,-4.0523,-3.8469,-3.8679,-3.9408,-3.9429,-4.0043,-4.0924,-4.2161,-4.2716,-4.2944,-4.2892,-4.6421,-5.0303,-5.318,-5.6836,0.0,0.0,0.0,0.0,0.0,0.0,0.0,0.0,0.0,0.0,0.0,0.0,0.0,0.0,0.0,0.0,-4.8158,-4.7983,-4.7732,-4.7255,-4.7179,-4.7154,-4.7179,-4.6075,-4.5573,-4.5598,-4.5573,-4.5547,-4.5573,-4.6075,-4.6301,-4.6301,-4.6301,-4.5999,-4.5598,-4.5689,-4.4762,-4.326,-4.252,-4.1131,-3.9431,0.0,0.0,0.0,0.0,0.0,0.0,0.0,0.0,0.0,0.0,0.0,0.0,0.0,0.0,0.0,0.0,0.0,0.0,0.0,-4.6071,-4.6084,-4.5765,-4.5546,-4.5002,-4.414,-4.373,-4.3747,-4.4243,-4.5773,-4.6722,-4.7153,-4.8155,-4.7499,-4.5509,-4.6161,-4.6049,-4.5332,-4.5553,-4.5733,-4.588,-4.5974,-4.5883,0.0,0.0,0.0,0.0,0.0,0.0,0.0,0.0,-4.2188,-4.1099,-4.0636,-4.0258,-3.9857,-3.935,-3.9343,-3.9373,-3.8875,-3.8958,-3.8824,-3.7361,-3.7578,-3.8518,-3.9722,-4.0212,-4.0956,-4.2653,-4.3457,-4.4081,-4.5286,-4.8158,-5.1421,-5.4704,-5.8097,0.0,0.0,0.0,0.0,0.0,0.0,0.0,0.0,0.0,0.0,0.0,0.0,0.0,0.0,0.0,0.0,-4.828,-4.7828,-4.7551,-4.7129,-4.6451,-4.6125,-4.61,-4.5673,-4.5296,-4.4945,-4.4945,-4.5146,-4.5497,-4.5698,-4.5999,-4.6301,-4.6301,-4.6175,-4.5855,-4.4597,-4.3431,-4.2272,-4.0525,-3.8997,-3.7652,0.0,0.0,0.0,0.0,0.0,0.0,0.0,0.0,0.0,0.0,0.0,0.0,0.0,0.0,0.0,0.0,0.0,0.0,-4.655,-4.6626,-4.65,-4.6212,-4.5961,-4.5444,-4.4653,-4.4288,-4.423,-4.4642,-4.6579,-4.7463,-4.7277,-4.8103,-4.7423,-4.5546,-4.6301,-4.6176,-4.549,-4.5685,-4.5781,-4.5811,-4.5802,-4.5741,0.0,0.0,0.0,0.0,0.0,0.0,0.0,0.0,-4.1589,-4.0702,-4.0076,-3.9604,-3.9174,-3.8671,-3.8044,-3.7455,-3.7259,-3.7046,-3.6753,-3.6197,-3.6926,-3.8378,-4.0842,-4.1321,-4.2162,-4.5349,-4.615,-4.6585,-4.7991,-4.9922,-5.2293,0.0,0.0,0.0,0.0,0.0,0.0,0.0,0.0,0.0,0.0,0.0,0.0,0.0,0.0,0.0,0.0,0.0,0.0,0.0,-4.7299,-4.7002,-4.7274,-4.591,-4.5121,-4.4945,-4.4945,-4.4744,-4.4367,-4.4774,-4.5077,-4.5364,-4.5809,-4.6188,-4.6421,-4.6421,-4.6421,-4.613,-4.3988,-4.2891,-4.204,-3.9691,-3.7881,-3.6538,0.0,0.0,0.0,0.0,0.0,0.0,0.0,0.0,0.0,0.0,0.0,0.0,0.0,0.0,0.0,0.0,0.0,0.0,-4.6321,-4.639,-4.6297,-4.5999,-4.5772,-4.5622,-4.5585,-4.5685,-4.5883,-4.6205,-4.7937,-4.8444,-4.782,-4.8155,-4.7677,-4.6568,-4.6679,-4.6356,-4.5781,-4.5733,-4.5669,-4.5597,-4.5583,-4.5471,-4.5225,0.0,0.0,0.0,0.0,0.0,0.0,0.0,-4.2438,-4.1837,-4.0874,-3.9867,-3.8863,-3.8213,-3.6653,-3.5137,-3.5363,-3.4966,-3.4662,-3.5262,-3.6858,-3.9327,-4.3131,-4.3879,-4.5364,-5.1175,-5.1647,-5.1033,-5.1109,-5.2125,-5.3323,-5.4711,0.0,0.0,0.0,0.0,0.0,0.0,0.0,0.0,0.0,0.0,0.0,0.0,0.0,0.0,0.0,0.0,0.0,0.0,-4.614,-4.5911,-4.7661,-4.5655,-4.4342,-4.379,-4.379,-4.379,-4.3815,-4.5056,-4.5425,-4.5157,-4.6576,-4.6968,-4.6806,-4.6806,-4.6541,-4.6059,-4.4398,-4.3445,-4.2654,-4.0175,-3.8092,-3.6394,0.0,0.0,0.0,0.0,0.0,0.0,0.0,0.0,0.0,0.0,0.0,0.0,0.0,0.0,0.0,0.0,0.0,0.0,-4.719,-4.711,-4.6897,-4.6638,-4.6017,-4.5311,-4.4475,-4.5786,-4.6561,-4.6765,-4.7705,-4.7866,-4.724,-4.715,-4.6584,-4.5629,-4.5894,-4.5772,-4.5437,-4.5541,-4.5531,-4.5445,-4.5189,-4.4968,-4.4721,0.0,0.0,0.0,0.0,0.0,0.0,0.0,0.0,0.0,-3.941,-3.8449,-3.752,-3.6993,-3.6137,-3.5305,-3.5422,-3.5245,-3.5267,-3.5849,-3.6562,-3.8154,-4.1964,-4.3373,-4.5314,-5.0242,-5.1274,-5.1409,-5.1952,-5.2208,0.0,-5.4222,0.0,0.0,0.0,0.0,0.0,0.0,0.0,0.0,0.0,0.0,0.0,0.0,0.0,0.0,0.0,0.0,0.0,0.0,-4.6273,-4.5933,-4.7027,-4.5067,-4.3765,-4.3212,-4.3437,-4.3548,-4.3548,-4.395,-4.4367,-4.4888,-4.5221,-4.5809,-4.6576,-4.6747,-4.6035,-4.4719,-4.2832,-4.1331,-3.9847,-3.7571,-3.6263,-3.5469,0.0,0.0,0.0,0.0,0.0,0.0,0.0,0.0,0.0,0.0,-4.4399,-4.4718,0.0,0.0,0.0,0.0,0.0,0.0,0.0,-4.7732,-4.7537,-4.6928,-4.6411,-4.5865,-4.5193,-4.6982,-4.7634,-4.7057,-4.78,-4.7666,-4.6762,-4.666,-4.6169,-4.5411,-4.5763,-4.5626,-4.5117,-4.5688,-4.5483,-4.49,-4.4946,-4.4573,-4.4003,0.0,0.0,0.0,0.0,0.0,0.0,0.0,0.0,0.0,-3.8181,-3.7259,-3.6261,-3.586,-3.4655,-3.3498,-3.3696,-3.3581,-3.3677,-3.5215,-3.6521,-3.8422,-4.2711,-4.5295,-4.799,-5.1628,-5.2364,-5.2487,-5.3166,-5.2911,0.0,0.0,0.0,0.0,0.0,0.0,0.0,0.0,0.0,0.0,0.0,0.0,0.0,0.0,0.0,0.0,0.0,0.0,0.0,0.0,-4.5809,-4.5375,-4.5734,-4.3815,-4.266,-4.2333,-4.2528,-4.2637,-4.2772,-4.3653,-4.4386,-4.4745,-4.5063,-4.5551,-4.6103,-4.6111,-4.5122,-4.3479,-4.19,-4.0275,-3.8698,-3.6476,-3.5503,-3.528,0.0,0.0,0.0,0.0,0.0,0.0,0.0,0.0,0.0,0.0,-4.5086,-4.5521,0.0,0.0,0.0,0.0,0.0,0.0,0.0,-4.8213,-4.8018,-4.6957,-4.6778,-4.6798,-4.691,-4.8466,-4.859,-4.7143,-4.8143,-4.7851,-4.6422,-4.6481,-4.6249,-4.5728,-4.6071,-4.5706,-4.4912,-4.5848,-4.5423,-4.416,-4.4696,-4.4165,-4.3072,-4.3472,0.0,0.0,0.0,0.0,0.0,0.0,0.0,0.0,-3.7024,-3.6197,-3.5215,-3.4651,-3.2698,-3.0861,-3.1405,-3.1034,-3.1216,-3.4194,-3.6904,-3.9974,-4.4603,-4.8468,-5.1652,-5.406,-5.4127,-5.3841,-5.4535,-5.3844,-5.3384,0.0,0.0,0.0,0.0,0.0,0.0,0.0,0.0,0.0,0.0,0.0,0.0,0.0,0.0,0.0,0.0,0.0,0.0,-4.5975,-4.5045,-4.4439,-4.4308,-4.2281,-4.1304,0.0,-4.1304,-4.1411,-4.1757,-4.3932,-4.4789,-4.4755,-4.5572,-4.583,-4.5488,-4.5196,-4.4269,-4.2592,-4.115,-3.9904,-3.8494,-3.631,-3.5575,-3.5407,0.0,0.0,0.0,0.0,0.0,0.0,0.0,0.0,0.0,0.0,0.0,0.0,0.0,0.0,0.0,0.0,0.0,0.0,0.0,-4.7998,-4.7465,-4.7224,-4.5897,-4.5507,-4.6203,-4.6847,-4.6991,-4.6673,-4.8125,-4.8075,-4.6629,-4.6133,-4.5905,-4.5928,-4.5536,-4.5331,-4.5312,-4.4479,-4.4235,-4.4281,-4.3492,-4.2752,-4.2137,-4.2301,-4.1376,0.0,0.0,0.0,0.0,0.0,0.0,0.0,-3.5664,-3.521,-3.4743,-3.3488,-3.2783,-3.2539,-3.2988,-3.3007,-3.3578,-3.6523,-3.9815,-4.2846,-4.5094,-4.7249,-4.9519,-5.1678,-5.293,-5.3722,-5.3841,-5.3516,0.0,0.0,0.0,0.0,0.0,0.0,0.0,0.0,0.0,0.0,0.0,0.0,0.0,0.0,0.0,0.0,0.0,0.0,0.0,-4.4936,-4.3519,-4.3127,-4.3904,-4.2182,-4.1128,0.0,-4.1128,-4.1103,-4.0832,-4.2392,-4.3643,-4.441,-4.5337,-4.5348,-4.495,-4.5272,-4.4361,-4.252,-4.0778,-3.9408,-3.8015,-3.6102,-3.554,-3.5595,0.0,0.0,0.0,0.0,0.0,0.0,0.0,0.0,0.0,0.0,0.0,0.0,0.0,0.0,0.0,0.0,0.0,0.0,0.0,0.0,-4.7373,-4.704,-4.5757,-4.5339,-4.5859,-4.648,-4.6513,-4.5913,-4.7171,-4.7198,-4.6091,-4.5996,-4.5736,-4.5432,-4.5291,-4.4928,-4.4426,-4.4244,-4.3993,-4.3659,-4.3384,-4.2692,-4.1931,-4.201,-4.1071,-3.9745,-3.9561,0.0,0.0,0.0,0.0,0.0,0.0,0.0,-3.4081,-3.2737,-3.2152,-3.193,-3.2136,-3.2482,-3.3752,-3.7163,-4.0849,-4.397,-4.5011,-4.6452,-4.8108,-5.0011,-5.1542,-5.2464,-5.2464,0.0,0.0,0.0,0.0,0.0,0.0,0.0,0.0,0.0,0.0,0.0,0.0,0.0,0.0,0.0,0.0,0.0,0.0,-4.3797,-4.3562,-4.3296,-4.2699,-4.2207,-4.1791,-4.0927,-4.0309,-3.9928,-4.0484,-4.0631,-4.0551,-4.1727,-4.2843,-4.3924,-4.4453,-4.452,-4.4557,-4.4755,-4.3333,-4.1046,-4.0078,-3.8408,-3.6699,-3.5748,-3.5438,-3.5394,0.0,0.0,0.0,0.0,0.0,0.0,0.0,0.0,0.0,0.0,0.0,0.0,0.0,0.0,0.0,0.0,0.0,0.0,0.0,0.0,0.0,-4.6783,-4.5982,-4.5602,-4.575,-4.6484,-4.6387,-4.5346,-4.5942,-4.588,-4.5183,-4.5649,-4.5406,-4.4613,-4.4772,-4.4237,-4.3262,-4.3889,-4.3647,-4.2837,-4.3233,-4.2686,-4.1557,-4.1683,-4.0814,-3.9498,-3.9498,-3.9055,-3.8212,-3.7053,0.0,0.0,0.0,0.0,-3.3476,-3.2208,-3.1357,-3.0788,-3.0917,-3.1967,-3.3824,-3.735,-4.1019,-4.3975,-4.4902,-4.6038,-4.7252,-4.8626,-4.9972,-5.087,0.0,0.0,0.0,0.0,0.0,0.0,0.0,0.0,0.0,0.0,0.0,0.0,0.0,0.0,0.0,0.0,0.0,0.0,-4.2476,-4.3375,-4.311,-4.1594,-4.1849,-4.1195,-3.9591,-3.9492,-3.9344,-3.9045,-3.9396,-3.969,-3.9954,-4.0508,-4.1594,-4.3089,-4.3192,-4.3501,-4.3939,-4.3958,-4.2375,-3.9896,-3.9451,-3.779,-3.5665,-3.5541,-3.5418,-3.5294,0.0,0.0,0.0,0.0,0.0,0.0,0.0,0.0,0.0,0.0,-4.5048,-4.4946,0.0,0.0,0.0,0.0,0.0,0.0,0.0,0.0,0.0,-4.7047,-4.6216,-4.582,-4.5957,-4.598,-4.5813,-4.5468,-4.497,-4.4531,-4.4203,-4.4451,-4.4268,-4.3728,-4.2971,-4.2872,-4.3198,-4.1558,-4.1401,-4.2275,-4.1674,-4.067,-3.9696,-4.0227,-3.9324,-3.7824,-3.7651,-3.7535,-3.7274,-3.6516,-3.5693,0.0,0.0,0.0,-3.3003,-3.1583,-3.1135,-3.1317,-3.2146,-3.4345,-3.6849,-3.8747,-4.1404,-4.3821,-4.5389,-4.6491,-4.7285,0.0,-4.8626,0.0,0.0,0.0,0.0,0.0,0.0,0.0,0.0,0.0,0.0,0.0,0.0,0.0,0.0,0.0,0.0,0.0,0.0,0.0,-4.0491,-4.0594,-4.0642,-4.0572,-4.0369,-3.9985,-3.922,-3.9025,-3.8764,-3.8515,-3.779,-3.7548,-3.7512,-3.7129,-3.8563,-4.1297,-4.1747,-4.2133,-4.2587,-4.3449,-4.2824,-4.1167,-3.9803,-3.8268,-3.6946,-3.5767,-3.5418,-3.5294,0.0,0.0,0.0,0.0,0.0,0.0,0.0,0.0,0.0,0.0,0.0,-4.5368,0.0,0.0,0.0,0.0,0.0,0.0,0.0,0.0,0.0,-4.66,-4.617,-4.5838,-4.5739,-4.5586,-4.516,-4.4384,-4.4247,-4.3738,-4.2917,-4.3703,-4.3838,-4.3388,-4.25,-4.2157,-4.2045,-4.0684,-4.0487,-4.0963,-4.0661,-3.9978,-3.9265,-3.9343,-3.8723,-3.7883,-3.8018,-3.8062,-3.7974,-3.7157,-3.6534,-3.5884,-3.4815,0.0,0.0,0.0,-3.2132,-3.2746,-3.3642,-3.5707,-3.7865,-3.9252,-4.1539,-4.3719,-4.4792,-4.5773,-4.6539,-4.6539,0.0,0.0,0.0,0.0,0.0,0.0,0.0,0.0,0.0,0.0,0.0,0.0,0.0,0.0,0.0,0.0,0.0,0.0,0.0,-4.0516,-4.016,-3.9647,-3.9268,-3.902,-3.8617,-3.8189,-3.7635,-3.7538,-3.7518,-3.7562,-3.6909,-3.6825,-3.7096,-3.5876,-3.6818,-3.9515,-4.0276,-4.1289,-4.246,-4.3284,-4.2856,-4.1623,-4.0129,-3.8602,-3.7188,-3.589,-3.5418,-3.5294,0.0,0.0,0.0,0.0,0.0,0.0,0.0,0.0,0.0,0.0,0.0,0.0,0.0,0.0,0.0,0.0,0.0,0.0,0.0,0.0,0.0,-4.6033,-4.5932,-4.564,-4.5212,-4.508,-4.4421,-4.3249,-4.3345,-4.291,-4.1999,-4.2522,-4.2741,-4.2832,-4.2126,-4.1339,-4.0442,-3.9907,-3.9757,-3.995,-3.9918,-3.9486,-3.8779,-3.875,-3.8381,-3.787,-3.8341,-3.8501,-3.8413,-3.7725,-3.7139,-3.6642,-3.5564,-3.5013,0.0,0.0,0.0,-3.4038,-3.4836,-3.6493,-3.8286,-3.9515,-4.1372,-4.3225,-4.427,0.0,-4.5667,0.0,0.0,0.0,0.0,0.0,0.0,0.0,0.0,0.0,0.0,0.0,0.0,0.0,0.0,0.0,0.0,0.0,0.0,0.0,0.0,-3.9802,-3.9343,-3.8699,-3.8069,-3.7587,-3.7194,-3.6727,-3.6186,-3.6113,-3.6184,-3.642,-3.5991,-3.6079,-3.6473,-3.5131,-3.5535,-3.7419,-3.8503,-3.979,-4.1355,-4.1897,-4.1519,-4.0416,-3.9291,-3.7887,-3.6381,-3.5558,-3.5252,-3.5149,0.0,0.0,0.0,0.0,0.0,0.0,0.0,0.0,0.0,0.0,0.0,0.0,-4.6084,-4.6017,-4.5997,-4.6064,-4.6064,-4.6099,-4.6163,-4.6093,-4.5897,-4.5643,-4.557,0.0,-4.4362,-4.422,-4.3605,-4.2519,-4.2024,-4.1834,-4.1996,-4.0301,-4.0305,-4.1593,-4.1295,-4.0146,-3.8562,-3.8512,-3.8901,-3.9451,-3.9421,-3.8702,-3.7637,-3.8292,-3.7794,-3.6842,-3.7472,-3.7701,-3.7596,-3.7414,-3.6711,-3.5823,-3.5565,-3.4843,-3.3919,0.0,0.0,0.0,-3.5356,-3.6722,-3.8325,-3.9466,-4.0801,-4.2258,0.0,0.0,0.0,0.0,0.0,0.0,0.0,0.0,0.0,0.0,0.0,0.0,0.0,0.0,0.0,0.0,0.0,0.0,0.0,0.0,0.0,0.0,0.0,-3.8985,-3.746,-3.702,-3.6747,-3.6505,-3.6432,-3.6161,-3.562,-3.5352,-3.5218,-3.5265,-3.4849,-3.4661,-3.4769,-3.4582,-3.4602,-3.4847,-3.6254,-3.7208,-3.7833,-3.8357,-3.7868,-3.6627,-3.6324,-3.5414,-3.4295,-3.4752,-3.4797,-3.4859,0.0,0.0,0.0,0.0,0.0,0.0,0.0,0.0,0.0,0.0,0.0,0.0,0.0,-4.6035,-4.6065,-4.608,-4.6152,-4.6158,-4.6131,-4.5947,-4.5663,-4.5287,-4.5001,-4.4548,-4.3894,-4.358,-4.2917,-4.1889,-4.1681,-4.142,-4.103,-4.0652,-3.9973,-3.9219,-3.9198,-3.8993,-3.8746,-3.8297,-3.8251,-3.8427,-3.8458,-3.7916,-3.7229,-3.7901,-3.7666,-3.7139,-3.7595,-3.8189,-3.8534,-3.8225,-3.7848,-3.7366,-3.7366,-3.6476,-3.5425,-3.4597,-3.4986,-3.5655,-3.5752,-3.7037,-3.8539,-3.9606,-3.9964,-4.0307,-4.1867,-4.2259,0.0,0.0,0.0,0.0,0.0,0.0,0.0,0.0,0.0,0.0,0.0,0.0,0.0,0.0,0.0,0.0,0.0,0.0,0.0,0.0,0.0,0.0,-3.703,-3.6185,-3.5545,-3.5118,-3.4993,-3.4657,-3.4162,-3.4357,-3.4249,-3.3947,-3.4451,-3.4562,-3.4243,-3.4555,-3.4437,-3.4222,-3.4758,-3.5717,-3.6943,-3.7715,-3.7909,-3.7565,-3.656,-3.5889,-3.5275,-3.4951,-3.4755,-3.4817,0.0,0.0,0.0,0.0,0.0,0.0,0.0,0.0,0.0,-4.6157,0.0,0.0,0.0,0.0,-4.6095,-4.6119,-4.6153,-4.6131,-4.6025,-4.572,-4.5233,-4.4607,-4.4349,-4.3839,-4.2949,-4.2778,-4.2235,-4.1139,-4.1106,-4.0728,-4.0038,-3.9886,-3.9094,-3.7897,-3.7713,-3.7777,-3.8191,-3.8103,-3.8121,-3.8294,-3.8161,-3.7912,-3.7792,-3.8264,-3.8281,-3.809,-3.8376,-3.8812,-3.916,-3.8466,-3.8175,-3.8076,-3.7957,-3.7093,-3.6008,-3.5514,-3.5531,-3.599,-3.647,-3.755,-3.8738,-3.9809,-3.9636,-3.9439,-4.0239,0.0,0.0,0.0,0.0,0.0,0.0,0.0,0.0,0.0,0.0,0.0,0.0,0.0,0.0,0.0,0.0,0.0,0.0,0.0,0.0,0.0,0.0,0.0,-3.6271,-3.5435,-3.469,-3.4078,-3.3853,-3.3614,-3.3292,-3.3591,-3.3591,-3.3292,-3.4142,-3.4349,-3.4027,-3.4347,-3.4261,-3.371,-3.3391,-3.4117,-3.5358,-3.5999,-3.6294,-3.6297,-3.5523,-3.5085,-3.4825,-3.447,-3.4403,-3.459,0.0,0.0,0.0,0.0,0.0,0.0,0.0,0.0,-4.6285,-4.6192,0.0,0.0,0.0,0.0,0.0,-4.6173,-4.6171,-4.6122,-4.5905,-4.5439,-4.4696,-4.3596,-4.3615,-4.2995,-4.1639,-4.1846,-4.1455,-4.0417,-4.0204,-3.9801,-3.9146,-3.7761,-3.7437,-3.7916,-3.699,-3.6599,-3.6687,-3.7754,-3.8609,-3.9179,-3.8588,-3.8679,-3.9237,-3.946,-3.9505,-3.9466,-3.9496,-3.9496,-3.9332,-3.8141,-3.7634,-3.7565,-3.7257,-3.6439,-3.5663,-3.5873,-3.5655,-3.5682,0.0,0.0,0.0,-3.995,0.0,0.0,-3.9606,0.0,0.0,0.0,0.0,0.0,0.0,0.0,0.0,0.0,0.0,0.0,0.0,0.0,0.0,0.0,0.0,0.0,0.0,0.0,0.0,0.0,0.0,-3.6799,-3.5318,-3.4692,-3.4078,-3.3292,-3.3292,-3.3292,-3.3292,-3.3292,-3.3269,-3.3292,-3.3752,-3.3981,-3.3902,-3.3967,-3.3559,-3.3027,-3.2405,-3.2444,-3.2891,-3.2912,-3.2742,-3.2706,-3.2727,-3.2727,-3.2789,-3.3223,-3.3679,-3.4134,0.0,0.0,0.0,0.0,0.0,-4.6211,-4.6241,-4.6239,-4.6209,0.0,0.0,0.0,-4.603,-4.6073,-4.6114,-4.6126,-4.5975,-4.5777,-4.5419,-4.4648,-4.3781,-4.291,-4.233,-4.1908,-4.1543,-4.0967,-4.0672,-4.0528,-3.9919,-3.9214,-3.8405,-3.7658,-3.7093,-3.6679,-3.6713,-3.667,-3.6716,-3.8248,-3.9044,-3.9247,-4.0032,-4.01,-3.9964,-4.0646,-4.0294,-3.9554,-3.9993,-4.0013,-3.9836,-3.9487,-3.9166,-3.8671,-3.7115,-3.6002,-3.5234,-3.4795,-3.4993,-3.5278,-3.5244,0.0,0.0,0.0,0.0,0.0,0.0,0.0,0.0,0.0,0.0,0.0,0.0,0.0,0.0,0.0,0.0,0.0,0.0,0.0,0.0,0.0,0.0,0.0,0.0,0.0,0.0,0.0,-3.6604,-3.5791,-3.4966,-3.4473,-3.3907,-3.3292,-3.3292,-3.3292,-3.3292,-3.2846,-3.2622,-3.2645,-3.2374,-3.2236,-3.2236,-3.2266,-3.1919,-3.142,-3.1657,-3.1571,-3.1329,-3.1975,-3.2218,-3.2271,-3.2602,-3.2727,-3.2789,-3.3223,-3.3679,-3.4134,0.0,0.0,0.0,0.0,0.0,-4.6171,-4.6239,-4.6246,-4.62,0.0,0.0,0.0,-4.6037,-4.6009,-4.598,-4.5966,-4.5655,-4.5263,-4.4761,-4.3934,-4.2996,-4.194,-4.1498,-4.115,-4.0908,-4.048,-4.0285,-4.0285,-3.9765,-3.8865,-3.7679,-3.7413,-3.6723,-3.5842,-3.6428,-3.6816,-3.7054,-3.883,-3.9567,-3.9625,-4.0118,-4.0554,0.0,-4.1288,-4.1105,-4.0695,-4.0733,-4.0604,-4.0394,-3.9697,-3.9283,-3.876,-3.7057,-3.6376,-3.5963,-3.5146,-3.5096,-3.5381,-3.5278,-3.6263,-3.7195,-3.6978,0.0,0.0,-3.6191,-3.6379,0.0,0.0,0.0,0.0,0.0,0.0,0.0,0.0,0.0,0.0,0.0,0.0,0.0,0.0,0.0,0.0,0.0,0.0,0.0,-3.6257,-3.5673,-3.4966,-3.4221,-3.3929,-3.3539,-3.2948,-3.275,-3.2764,-3.2946,-3.2319,-3.2117,-3.2015,-3.1732,-3.1629,-3.1629,-3.1403,-3.1094,-3.0806,-3.0874,-3.0705,-3.047,-3.1381,-3.1878,-3.2064,-3.2333,-3.2561,-3.2768,-3.3016,-3.3513,-3.4113,0.0,0.0,-4.621,-4.621,-4.6234,-4.6288,-4.6339,-4.6367,-4.6335,0.0,-4.6214,-4.6114,-4.6055,-4.585,-4.5703,-4.5726,-4.5223,-4.4646,-4.4026,-4.3281,-4.2253,-4.0885,-4.0886,-4.0625,-3.9986,-4.017,-4.0086,-3.9783,-3.9592,-3.8613,-3.7055,-3.6995,-3.629,-3.5222,-3.6182,-3.6879,-3.7536,-3.9305,-4.0039,-4.006,-3.9741,-4.067,0.0,0.0,-4.1895,-4.2135,-4.1477,-4.1082,-4.0775,-3.9144,-3.8569,-3.8389,-3.7403,-3.7279,-3.7352,-3.6415,-3.5948,-3.5934,-3.6495,-3.6658,-3.6693,-3.7309,-3.7539,0.0,-3.5695,-3.607,-3.623,0.0,0.0,0.0,0.0,0.0,0.0,0.0,0.0,0.0,0.0,0.0,0.0,0.0,0.0,0.0,0.0,-3.5943,-3.559,-3.4655,-3.4655,-3.4149,-3.3194,-3.317,-3.2905,-3.2391,-3.1901,-3.1928,-3.2319,-3.1812,-3.1527,-3.1527,-3.1424,-3.1424,-3.1424,-3.0888,-3.0681,-3.0681,-3.0183,-2.9994,-3.0056,-3.0946,-3.1567,-3.1981,-3.2085,-3.2375,-3.2727,-3.2727,-3.3306,-3.4072,0.0,-4.6162,-4.6193,-4.6193,-4.6816,-4.7299,-4.7259,-4.7294,-4.7293,-4.7264,-4.6452,-4.5838,-4.5802,-4.5399,-4.5148,-4.5152,-4.4659,-4.4058,-4.3277,-4.2441,-4.1548,-4.0542,-4.007,-3.985,-4.002,-3.9401,-3.9295,-3.9662,-3.8557,-3.7589,-3.6784,-3.6352,-3.5688,-3.4823,-3.5875,-3.6592,-3.7139,-3.8867,0.0,-4.0025,-4.1604,0.0,-4.2789,-4.2756,-4.2146,-4.1337,-4.155,-4.1101,-4.0399,-3.944,-3.9013,-3.8782,-3.866,-3.8235,-3.7679,-3.8007,-3.7517,-3.6721,-3.6071,-3.6275,-3.6389,-3.5303,-3.5602,0.0,-3.5331,-3.5864,-3.6225,0.0,0.0,0.0,0.0,0.0,0.0,0.0,0.0,0.0,0.0,0.0,0.0,0.0,0.0,0.0,0.0,-3.376,-3.376,-3.3597,-3.3385,-3.3031,-3.2369,-3.2345,-3.2149,-3.1901,-3.1703,-3.1751,-3.171,-3.1197,-3.0991,-3.0991,-3.0495,-3.0308,-3.0308,-3.0203,-3.0203,-3.0203,-3.0099,-2.9994,-3.0036,-3.0594,-3.1091,-3.1588,-3.2313,-3.2644,-3.2727,-3.2727,-3.3306,-3.4072,-4.6123,-4.6176,-4.6206,-4.6245,-4.6969,-4.7522,-4.75,-4.7549,-4.7508,-4.7391,-4.638,-4.5563,-4.537,-4.4762,-4.4326,-4.427,-4.3874,-4.3397,-4.2745,-4.2105,-4.1393,-4.0646,-3.9878,-3.952,-3.9644,-3.9169,-3.881,-3.8723,-3.8051,-3.7175,-3.6165,-3.5913,-3.5365,-3.4756,-3.5805,-3.6693,-3.748,0.0,-4.0674,-4.1564,-4.1964,0.0,-4.2092,-4.2299,-4.2038,-4.1628,-4.167,-4.1251,-4.0435,-3.9972,-3.9939,0.0,-3.9536,-3.9429,-3.9555,0.0,-3.8787,-3.8194,-3.764,0.0,0.0,-3.5648,0.0,0.0,0.0,-3.5276,-3.5742,0.0,0.0,0.0,0.0,0.0,0.0,0.0,0.0,0.0,0.0,0.0,0.0,0.0,0.0,0.0,0.0,-3.234,-3.2626,-3.2864,-3.277,-3.2371,-3.1763,-3.1739,-3.1593,-3.1323,-3.1051,-3.0986,-3.1197,-3.0469,-3.016,-3.0391,-2.985,-2.9766,-2.9994,-2.9994,-2.9994,-2.9994,-3.0599,-3.0785,-3.0952,-3.2162,-3.2809,-3.3093,-3.3197,-3.3716,-3.4469,-3.4469,-3.5059,-3.5889,-4.6201,-4.6176,-4.6208,-4.6289,-4.7097,-4.7687,-4.7494,-4.7606,-4.7502,-4.6918,-4.5937,-4.5115,-4.4734,-4.398,-4.3615,-4.3823,-4.3192,-4.2785,-4.2882,-4.2078,-4.1342,-4.0816,-4.0087,-3.9528,-3.9255,-3.904,-3.8535,-3.7764,-3.7648,-3.6874,-3.5623,-3.5464,-3.5103,-3.4689,-3.5619,-3.662,-3.7796,-3.9757,0.0,-4.2481,0.0,-4.165,-4.1778,-4.1955,-4.2071,-4.2237,-4.1843,-4.1367,-4.0801,-4.0628,-4.0974,-4.1397,-4.0625,-4.09,0.0,0.0,0.0,0.0,0.0,0.0,0.0,0.0,0.0,-3.544,0.0,0.0,0.0,0.0,0.0,0.0,0.0,0.0,0.0,0.0,0.0,0.0,0.0,0.0,0.0,0.0,0.0,0.0,0.0,-3.1031,-3.1454,-3.1854,-3.1692,-3.1391,-3.102,-3.0882,-3.0787,-3.0734,-3.0339,-3.0262,-3.0508,-2.9743,-2.9497,-2.9849,-2.9477,-2.9559,-2.9994,-2.9994,-3.0099,-3.0391,-3.1176,-3.1732,-3.2192,-3.3993,-3.4947,-3.519,-3.4549,-3.5084,-3.6208,-3.63,-3.692,-3.7724,-4.6253,-4.6115,-4.6119,-4.621,-4.7603,-4.8451,-4.755,-4.7987,-4.7647,-4.5551,-4.4786,-4.4225,-4.3652,-4.3137,-4.3451,-4.5058,-4.2926,-4.2439,-4.4577,-4.2638,-4.1136,-4.0654,-4.0392,-3.9896,-3.904,-3.8931,-3.8423,-3.7648,-3.6935,-3.6197,-3.54,-3.4839,-3.4467,-3.4457,-3.4975,-3.5769,-3.6892,0.0,-4.0006,0.0,-4.1705,-4.319,0.0,-4.3197,-4.2876,-4.2818,-4.1987,-4.1535,-4.1312,0.0,-4.182,-4.2278,0.0,-4.2636,-4.228,-4.2735,0.0,0.0,0.0,0.0,0.0,0.0,-3.5969,0.0,0.0,0.0,-3.5817,-3.628,0.0,0.0,0.0,0.0,0.0,0.0,0.0,0.0,0.0,0.0,0.0,0.0,0.0,0.0,0.0,0.0,-2.9605,-2.9502,-2.876,-2.8654,-2.9642,-2.8903,-2.9054,-3.0197,-3.0163,-2.9937,-2.9572,-2.9429,-2.9332,-2.9373,-2.9332,-2.9559,-2.9994,-2.9994,-3.0495,-3.1381,-3.1586,-3.2441,-3.381,-3.444,-3.5572,-3.6924,-3.6233,-3.6031,-3.6231,-3.6691,-3.7219,-3.777,-4.6795,-4.6802,-4.6839,-4.6925,-4.7434,-4.7714,-4.725,-4.7558,-4.6984,-4.4501,-4.466,-4.4821,-4.4587,-4.3993,-4.3863,-4.4509,-4.32,-4.2602,-4.3166,-4.2159,-4.164,-4.1866,-4.1266,-4.0591,-3.9809,-3.9186,-3.8296,-3.7144,-3.6259,-3.5464,-3.4839,-3.4534,-3.4399,-3.4457,-3.5027,-3.5597,-3.6265,0.0,-4.0179,0.0,0.0,0.0,0.0,-4.2568,-4.2273,-4.2578,-4.2233,-4.2117,-4.2117,0.0,-4.2363,0.0,0.0,0.0,0.0,-4.2767,0.0,0.0,0.0,0.0,0.0,0.0,0.0,0.0,-3.4695,0.0,-3.5872,0.0,0.0,0.0,0.0,0.0,0.0,0.0,-3.2116,0.0,0.0,0.0,0.0,0.0,0.0,0.0,0.0,0.0,0.0,0.0,0.0,-2.8248,-2.832,-2.8678,-2.9173,-2.9684,-2.9986,-3.0,-2.9796,-2.9515,-2.9446,-2.9719,-2.9413,-2.9559,-2.9994,-2.9994,-3.0599,-3.1688,-3.2297,-3.3315,-3.4544,-3.5665,-3.6822,-3.789,-3.8025,-3.8185,-3.8526,-3.9275,-3.9707,-4.0135,-4.7279,-4.712,-4.6973,-4.7332,-4.7216,-4.6989,-4.6784,-4.6432,-4.5559,-4.3834,-4.415,-4.4659,-4.4882,-4.464,-4.4593,-4.5158,-4.4238,-4.3585,0.0,-4.2599,-4.2209,-4.2142,-4.1863,-4.1309,-4.0326,-3.9437,-3.8324,-3.7063,-3.5973,-3.5103,-3.4399,-3.4399,-3.4516,-3.469,-3.5154,-3.561,-3.627,0.0,-4.0063,-4.0435,-4.2185,-4.2951,-4.2927,-4.211,-4.1926,-4.2158,-4.2333,-4.2438,-4.2393,-4.1887,-4.2708,0.0,-4.2047,0.0,0.0,0.0,0.0,0.0,-4.0603,0.0,0.0,0.0,0.0,0.0,0.0,0.0,0.0,0.0,0.0,0.0,0.0,0.0,-3.4134,-3.325,0.0,-3.0257,0.0,0.0,0.0,0.0,0.0,0.0,0.0,0.0,0.0,-2.7409,-2.7689,-2.782,-2.7544,-2.8474,-2.9059,-2.9375,-2.9911,-3.0147,-2.9965,-2.9764,-2.9693,-2.9934,-2.9635,-2.9642,-2.9994,-2.9994,-3.0599,-3.1688,-3.27,-3.3866,-3.5137,-3.6721,-3.7808,-3.8713,-3.9471,-4.0032,-4.0696,-4.1362,-4.1715,-4.2062,-4.7559,-4.654,-4.6032,-4.6952,-4.7012,-4.6755,-4.6194,-4.4438,-4.325,-4.3559,-4.2987,0.0,0.0,0.0,0.0,-4.8145,0.0,-4.5463,-4.6924,-4.4843,-4.2634,-4.0547,-4.174,-4.1692,-4.016,-3.9527,-3.8699,-3.7654,-3.6344,-3.5234,-3.4399,-3.4399,-3.4748,-3.5328,-3.5427,-3.6012,-3.7065,-3.813,-3.8837,-3.9357,-4.0379,-4.0943,-4.1227,0.0,-4.2154,-4.1544,-4.2158,0.0,0.0,-4.2401,-4.2666,0.0,0.0,0.0,0.0,0.0,0.0,0.0,0.0,0.0,0.0,-3.5989,0.0,0.0,0.0,0.0,-3.616,0.0,0.0,0.0,0.0,-3.5678,-3.3969,-3.3007,-3.1366,0.0,0.0,0.0,0.0,0.0,0.0,0.0,0.0,0.0,0.0,-2.7241,-2.6407,-2.6501,-2.7882,-2.7674,-2.8077,-2.9415,-2.9917,-3.0001,-2.953,-2.9921,-2.9916,-2.9444,-2.987,-3.0032,-2.9994,-2.9994,-3.0599,-3.1688,-3.27,-3.4076,-3.5644,-3.7064,-3.8256,-3.9422,-4.0436,-4.1232,-4.1802,-4.2057,-4.2302,-4.2645,-4.7694,-4.6163,-4.5024,-4.6063,-4.5609,-4.4934,-4.4369,-4.3833,-4.37,0.0,-4.5107,0.0,0.0,-4.8596,-4.8979,0.0,0.0,-4.6866,-4.6304,-4.5081,-4.3992,-4.3264,-4.278,-4.2081,-4.1075,-3.985,-3.8769,-3.7916,-3.6454,-3.5722,-3.5816,-3.531,-3.5317,-3.5754,-3.5754,-3.587,0.0,0.0,0.0,0.0,0.0,-4.1029,-4.1283,0.0,0.0,-4.1397,-4.1351,-4.1429,0.0,-4.1245,-4.1751,-4.2317,-4.1299,-4.09,-4.0718,-4.0043,-3.8781,0.0,0.0,0.0,-3.7325,-3.6161,0.0,0.0,0.0,0.0,0.0,0.0,0.0,0.0,0.0,-3.5383,-3.3994,-3.3068,-3.1656,-3.0514,0.0,0.0,0.0,0.0,0.0,0.0,0.0,0.0,0.0,-2.6385,-2.6528,-2.6678,-2.6585,-2.733,-2.8191,-2.8953,-2.9463,-2.9806,-2.9943,-3.0158,-3.0267,-3.0405,-3.0192,-3.0257,-3.0495,-3.0203,-3.0599,-3.1688,-3.27,-3.3889,-3.5137,-3.6513,-3.7769,-3.9035,-3.9995,-4.123,-4.2606,-4.2941,-4.2956,-4.2888,-4.652,-4.5504,-4.4772,-4.5522,0.0,-4.3812,-4.3456,-4.3743,0.0,0.0,-4.6515,0.0,-5.0589,0.0,-5.066,0.0,-4.9892,-4.843,-4.6311,-4.598,0.0,-4.3959,-4.3088,-4.2323,-4.1517,-3.9844,-3.8678,-3.8152,-3.6782,-3.6172,-3.6277,-3.57,-3.5491,-3.5683,-3.6144,-3.6127,-3.5975,-3.777,-3.8484,0.0,0.0,-4.1056,0.0,0.0,-4.0498,-4.0908,0.0,-4.0022,-4.0147,-3.9963,-4.03,-4.0705,-3.9959,-3.9526,-3.9191,-3.8552,-3.7427,-3.6465,-3.6788,-3.6619,0.0,-3.5865,-3.6582,0.0,-3.6463,0.0,0.0,0.0,0.0,0.0,0.0,-3.4553,-3.3583,-3.2661,-3.1737,-3.0861,0.0,-2.871,0.0,0.0,0.0,0.0,0.0,0.0,-2.769,-2.6135,-2.661,-2.6798,0.0,0.0,-2.8026,-2.8677,-2.9228,-2.9734,-3.0216,-3.0532,-3.0768,-3.0599,-3.0665,-3.0611,-3.0495,-3.0203,-3.0391,-3.1073,-3.2196,-3.3101,-3.4091,-3.555,-3.7039,-3.8681,-3.995,-4.144,-4.2892,-4.3226,-4.3347,-4.3008,0.0,-4.4584,0.0,0.0,-4.4304,0.0,0.0,0.0,-4.5297,0.0,-4.7418,-4.8517,-5.0726,-5.076,-5.0892,-5.1558,-5.1486,-5.0121,-4.7305,-4.7671,0.0,-4.2874,-4.27,-4.2359,-4.1646,-3.9595,-3.8407,-3.8274,-3.7327,-3.6546,-3.5878,-3.5583,-3.5375,-3.5309,-3.6445,0.0,-3.6939,-3.853,-3.9187,-3.9244,-4.0462,-4.0772,-4.0339,-3.925,-3.9445,-4.0199,-3.8671,-3.7975,-3.7952,-3.8736,-3.8531,-3.8009,-3.8716,-3.8088,-3.7071,-3.7043,-3.6026,-3.4908,-3.5362,-3.4585,-3.4015,-3.523,0.0,0.0,0.0,0.0,-3.7146,0.0,0.0,0.0,0.0,0.0,-3.2885,-3.1882,-3.1496,-3.095,-2.9927,-2.9192,-2.8722,0.0,0.0,0.0,0.0,-2.8418,-2.7986,-2.6595,-2.6445,-2.6715,0.0,0.0,-2.764,-2.8677,-2.9183,-2.9711,-3.0148,-3.1226,-3.1157,-3.0133,-3.1149,-3.0991,-2.9994,-2.9994,-2.9994,-3.0099,-3.1176,-3.1891,-3.2589,-3.4434,-3.6281,-3.829,-4.0132,-4.1591,-4.2654,-4.317,-4.3361,-4.3169,-4.5437,-4.4859,-4.4375,0.0,-4.4163,-4.379,0.0,0.0,0.0,0.0,-5.0498,-5.2201,-5.4018,-5.4045,-5.3737,-5.3402,-5.2657,0.0,0.0,0.0,0.0,-4.5798,-4.3654,-4.2178,-4.146,-3.9947,-3.9184,-3.9083,-3.7634,-3.7293,-3.7958,-3.6489,-3.6445,-3.7596,-3.7756,-3.7997,-3.8347,-3.8827,-3.8771,-3.8592,-4.0003,-4.0761,0.0,0.0,-3.8839,-3.9479,-3.7641,-3.7051,-3.7197,-3.7353,-3.7614,-3.785,-3.8088,-3.7673,-3.7034,-3.6865,-3.5948,-3.4971,-3.447,-3.4569,-3.4848,-3.4957,-3.5622,-3.653,0.0,0.0,0.0,0.0,0.0,0.0,0.0,0.0,0.0,-3.2461,-3.1579,-3.0824,-3.0212,-2.9278,0.0,-2.9274,0.0,0.0,0.0,-2.7275,-2.686,-2.6096,-2.6052,-2.6135,-2.624,0.0,0.0,-2.8181,-2.8426,-2.8992,-3.021,-3.048,-3.0593,-3.0712,-3.0974,-3.0874,-3.0578,-3.0578,-3.0391,-3.0099,-3.1607,-3.252,-3.3163,-3.4899,-3.6824,-3.8743,-4.0077,-4.1625,-4.322,-4.3347,-4.2891,-4.2113,-4.5088,0.0,0.0,-4.4621,0.0,0.0,-4.492,0.0,0.0,-4.9026,-5.1186,0.0,-5.3539,-5.4313,-5.4485,-5.3746,-5.3068,0.0,-5.0714,0.0,0.0,-4.6474,-4.4122,-4.2479,-4.1494,-3.9839,-3.8889,-3.8847,-3.8014,-3.7944,-3.8472,-3.7543,-3.7368,-3.8012,-3.7966,-3.7839,-3.7703,-3.7806,-3.797,-3.8196,-3.9676,0.0,0.0,-3.8671,-3.8478,-3.8727,-3.6089,-3.5438,-3.5924,-3.6491,-3.6741,-3.6825,-3.7759,-3.7497,-3.6814,-3.6551,-3.5955,-3.5168,-3.4552,-3.4681,-3.5071,-3.5104,-3.5889,-3.6775,-3.749,-3.7392,-3.727,0.0,0.0,0.0,0.0,0.0,0.0,-3.2496,-3.1494,-3.0691,-3.0397,0.0,0.0,0.0,-2.8046,0.0,0.0,-2.6755,-2.6301,-2.5676,-2.5633,-2.5717,0.0,0.0,0.0,-2.7722,-2.8188,-2.8807,-2.9825,-3.0489,-3.068,-3.0507,-3.0803,-3.0734,-3.0495,-3.0495,-3.0391,-3.0412,-3.1538,-3.2502,-3.3308,-3.516,-3.6807,-3.8435,-4.03,-4.203,-4.3406,-4.3073,-4.2499,-4.1558,0.0,0.0,0.0,0.0,0.0,0.0,0.0,-4.7194,0.0,-4.9154,0.0,-5.2437,-5.1827,-5.3274,-5.3986,-5.3177,0.0,-5.1918,-4.9823,-4.9856,-4.8836,-4.6117,-4.4421,-4.2855,-4.1607,-3.9556,-3.843,-3.8233,-3.8253,-3.8202,-3.8207,-3.8232,-3.7947,-3.7372,-3.7593,0.0,0.0,-3.6698,-3.717,-3.7911,-3.9156,-3.9726,-3.9592,-3.8422,-3.8117,-3.7896,-3.4571,-3.3814,-3.4533,-3.5678,-3.5721,-3.5641,-3.7477,-3.7299,-3.6522,-3.6328,-3.5989,-3.5529,-3.4922,-3.4809,-3.5006,-3.5424,-3.6084,-3.6796,-3.7161,-3.7563,-3.7789,-3.7387,-3.6945,-3.6403,0.0,0.0,0.0,-3.234,0.0,0.0,0.0,0.0,0.0,0.0,0.0,0.0,0.0,0.0,-2.598,-2.5147,-2.5126,-2.5295,0.0,0.0,0.0,-2.7194,-2.8109,0.0,-2.9449,0.0,-3.0982,-3.0215,-3.0636,-3.0599,-3.0099,-3.0308,-3.0537,-3.1016,-3.1758,-3.2498,-3.3546,-3.5503,-3.6916,-3.8142,-4.0626,-4.2207,-4.3058,-4.2526,-4.1954,-4.1323,0.0,0.0,0.0,0.0,0.0,-4.7753,-4.8967,-5.1206,-5.2746,-5.267,-5.4634,-5.5477,-5.4158,-5.4362,-5.3986,-5.2587,-5.2307,0.0,0.0,0.0,0.0,-4.678,-4.4539,-4.2784,-4.146,-3.9815,-3.8959,-3.8859,-3.748,-3.7337,-3.8277,-3.7508,-3.7206,-3.751,0.0,0.0,-3.7584,-3.799,0.0,-3.7448,-3.8399,-3.8654,-3.8378,-3.7236,-3.6909,-3.6833,-3.4491,-3.3985,-3.4345,-3.3953,-3.4502,-3.5417,-3.6218,-3.6341,-3.6181,-3.6315,-3.6263,-3.5887,-3.4819,-3.509,-3.5685,-3.5407,-3.573,-3.6372,-3.7086,-3.7262,-3.734,-3.7518,-3.6924,-3.6358,-3.5868,0.0,0.0,0.0,0.0,0.0,0.0,0.0,0.0,0.0,0.0,-2.7651,0.0,0.0,0.0,0.0,0.0,-2.4615,0.0,0.0,0.0,0.0,-2.7308,0.0,0.0,0.0,-3.049,-3.0641,-3.1163,-3.1219,-3.0681,-3.1607,-3.2031,-3.2219,-3.3424,-3.4314,-3.4958,-3.6892,-3.8417,-3.9699,-4.042,-4.1222,-4.1953,-4.1286,-4.0721,-4.0257,0.0,0.0,0.0,0.0,0.0,0.0,0.0,-5.3134,0.0,-5.1453,-5.3109,-5.3888,-5.2436,-5.3271,-5.3532,-5.2373,-5.1842,-5.1057,-4.9873,-4.8828,-4.7542,-4.6001,-4.4648,-4.3139,-4.1414,-4.0531,-3.9799,-3.9208,-3.8302,-3.8154,-3.8866,-3.7935,-3.7784,-3.8432,0.0,-3.7202,0.0,0.0,0.0,-3.659,-3.7091,-3.7569,-3.7794,-3.6392,-3.6214,-3.6492,-3.4366,-3.393,-3.4477,-3.4192,-3.4769,-3.5583,-3.6018,-3.6305,-3.6478,-3.6032,-3.6032,-3.612,-3.5044,-3.5475,-3.6118,-3.5749,-3.6098,-3.6618,-3.6593,-3.7017,-3.7244,-3.6652,-3.6407,-3.5915,-3.497,-3.386,0.0,0.0,0.0,0.0,0.0,0.0,-3.072,0.0,0.0,0.0,0.0,0.0,0.0,0.0,0.0,0.0,0.0,0.0,0.0,0.0,0.0,0.0,0.0,0.0,0.0,-3.0325,-3.0912,-3.1094,-3.0785,-3.1607,-3.2148,-3.2494,-3.3843,-3.4731,-3.5317,-3.7331,-3.9059,-4.0315,-4.0614,-4.0997,-4.1386,-4.0804,-4.0522,-4.039,0.0,-4.8856,0.0,0.0,-5.1137,0.0,-5.2785,-5.3753,-5.331,-5.0561,-5.1695,-5.2303,-5.1061,-5.225,-5.2831,-5.2125,-5.1164,-4.9981,-4.867,-4.8122,-4.695,-4.5099,-4.4599,-4.3476,-4.152,-4.1113,-4.0377,-3.939,-3.911,-3.9032,-3.8999,-3.8854,-3.8872,0.0,0.0,0.0,0.0,0.0,-3.5722,-3.6113,-3.6024,-3.6442,-3.7039,-3.5548,-3.5495,-3.593,-3.4126,-3.3954,-3.4535,-3.4812,-3.5321,-3.5859,-3.6035,-3.6358,-3.6452,-3.548,-3.5647,-3.5993,-3.5286,-3.5594,-3.6232,-3.6073,-3.6343,-3.6488,-3.5998,-3.6403,-3.6702,-3.5671,-3.5623,-3.536,-3.4198,-3.3073,0.0,0.0,0.0,0.0,0.0,0.0,0.0,0.0,0.0,0.0,-2.9232,0.0,0.0,0.0,0.0,-2.474,-2.4615,-2.5225,0.0,0.0,0.0,-2.9035,-2.9252,0.0,-3.0727,-3.0454,-3.0952,-3.1094,-3.1197,-3.1913,-3.2431,-3.296,-3.4544,-3.5657,-3.6548,-3.7989,-3.9318,-4.0375,-4.0376,-4.0681,-4.082,-4.0265,-4.013,-4.0304,0.0,0.0,0.0,0.0,0.0,0.0,-5.2394,-5.3041,-5.3687,-5.4057,-5.4261,-5.4093,-5.3281,-5.2731,-5.2086,-5.1294,-4.9853,-4.8624,-4.775,-4.637,-4.5397,-4.4989,-4.4255,-4.3133,-4.1746,-4.0711,-3.9904,0.0,-3.911,-3.8561,0.0,-3.9806,-3.9974,0.0,0.0,0.0,0.0,-3.6284,-3.6284,-3.6333,-3.563,-3.5301,-3.5319,-3.4413,-3.4098,-3.4123,-3.3935,-3.3935,-3.406,-3.4857,-3.5417,-3.5797,-3.6035,-3.5809,-3.5357,-3.4873,-3.5084,-3.5341,-3.4891,-3.5203,-3.573,-3.6232,-3.5469,-3.4803,-3.5133,-3.5238,-3.5129,-3.5234,-3.4993,-3.4728,-3.4728,-3.3176,-3.2115,0.0,0.0,0.0,0.0,0.0,-3.2204,-3.081,0.0,0.0,0.0,-2.9265,0.0,0.0,-2.6214,-2.5679,-2.5147,-2.6065,-2.678,-2.7172,0.0,-3.0413,-3.1295,-3.1451,-3.1759,-3.2075,-3.2236,-3.2218,-3.2319,-3.3598,-3.4333,-3.4751,-3.6971,-3.8865,-4.031,-3.9499,-3.9398,-3.9772,-3.9198,-3.912,-3.9369,-3.9068,-3.896,-3.896,0.0,0.0,0.0,0.0,0.0,0.0,0.0,-5.355,-5.345,-5.3235,-5.3198,-5.3065,-5.2797,-5.1623,-5.0691,-5.0416,-4.9347,-4.8239,-4.7034,-4.6401,-4.5598,-4.4647,-4.4139,-4.3408,-4.2319,-4.1713,-4.1181,0.0,0.0,0.0,0.0,0.0,0.0,0.0,0.0,-3.6923,-3.6628,-3.6798,-3.6624,-3.6059,-3.5158,-3.491,-3.5034,-3.3682,-3.3508,-3.3947,-3.4274,-3.4399,-3.4525,-3.5679,-3.6029,-3.6006,-3.5574,-3.5505,-3.5392,-3.435,-3.4638,-3.5099,-3.4413,-3.4785,-3.5319,-3.5219,-3.4686,-3.4139,-3.4268,-3.4715,-3.5064,-3.4993,-3.431,-3.3321,-3.2401,-3.1699,-3.127,0.0,0.0,0.0,0.0,0.0,0.0,-3.1798,0.0,-3.0612,0.0,0.0,0.0,0.0,0.0,-2.6301,-2.5654,-2.6841,-2.7587,-2.77,0.0,-3.1103,-3.1233,-3.1815,-3.2028,-3.1913,-3.2205,-3.242,-3.242,-3.3623,-3.4785,-3.6081,-3.7147,-3.8536,-3.9853,-3.9347,-3.917,-3.9203,-3.921,-3.9136,-3.8924,-3.8707,-3.8707,-3.8659,-5.3868,0.0,-5.42,0.0,-5.5144,-5.4566,-5.4871,-5.4296,-5.3448,-5.2412,-5.2059,-5.1915,-5.1915,-5.0723,-4.9868,-4.9868,-4.8724,-4.77,-4.6824,-4.6391,-4.5665,-4.4557,-4.4159,0.0,-4.2604,-4.1876,-4.137,-4.1075,-4.1366,0.0,0.0,0.0,0.0,0.0,-3.7588,-3.7196,-3.6895,-3.6914,-3.6639,-3.5998,-3.4902,-3.4703,-3.4877,-3.3383,-3.3246,-3.3972,-3.4525,-3.4726,-3.4901,-3.6168,-3.6548,-3.6223,-3.5362,-3.5373,-3.5362,-3.4059,-3.4285,-3.4894,-3.4136,-3.4395,-3.4835,-3.4163,-3.3637,-3.3399,-3.3256,-3.3811,-3.4366,-3.4338,-3.3253,-3.1934,-3.0891,-3.035,-3.0106,-3.0227,0.0,0.0,0.0,-3.1956,0.0,-3.2027,-3.1209,-3.0802,-3.1384,-3.0533,0.0,0.0,0.0,0.0,-2.6598,-2.7775,0.0,0.0,0.0,0.0,0.0,-3.2256,-3.2487,-3.2139,-3.2443,-3.2622,-3.2667,-3.3731,-3.5207,-3.6909,-3.7294,-3.8041,-3.8968,-3.9196,-3.9013,-3.889,-3.9153,-3.898,-3.8575,-3.8359,-3.8359,-3.8311,-5.5109,-5.5444,-5.5878,-5.7428,-5.7191,-5.6528,-5.5818,-5.5074,-5.402,-5.2478,-5.1623,-5.1145,-5.1145,-5.0416,-4.9868,-4.9868,-4.7933,-4.6762,-4.7154,-4.5953,-4.5098,0.0,0.0,-4.3346,-4.2312,-4.0465,-3.947,-3.9635,0.0,0.0,-3.8916,0.0,-3.8673,-3.9677,-3.7667,-3.692,-3.7136,-3.6609,-3.6358,-3.6257,-3.5152,-3.4726,-3.4625,-3.3495,-3.342,-3.3972,-3.4525,-3.4726,-3.4876,-3.5981,-3.6546,-3.6506,-3.5686,-3.5442,-3.5123,-3.3827,-3.4197,-3.4894,-3.4136,-3.4145,-3.4206,-3.3212,-3.2442,-3.2051,-3.216,-3.2391,-3.2671,-3.3099,-3.1853,-3.0615,-3.0701,-2.9413,-2.8759,-3.0125,0.0,0.0,0.0,0.0,0.0,-3.1347,-3.1974,-3.2058,-3.0999,-3.1161,0.0,0.0,0.0,0.0,0.0,0.0,0.0,-3.0237,-3.2333,0.0,-3.3144,-3.3168,-3.3254,-3.3292,-3.3292,-3.3292,-3.3315,-3.4326,-3.5642,-3.7028,-3.7709,-3.8137,-3.8323,-3.9025,-3.905,-3.8736,-3.8526,-3.821,-3.7998,-3.7998,-3.7785,-3.7619,-5.5835,-5.6629,-5.7325,-5.7735,-5.684,-5.5987,-5.575,-5.4668,-5.3481,-5.2412,-5.1623,-5.0919,-5.0338,-4.955,-4.9015,0.0,-4.7966,-4.7256,0.0,-4.6358,-4.5528,-4.4809,-4.4133,-4.3642,-4.3302,-4.1472,-4.0575,-4.0858,0.0,0.0,0.0,-4.0233,-3.9861,-3.9571,-3.8032,-3.7081,-3.6609,-3.6433,-3.6132,-3.5755,-3.5209,-3.4816,-3.4675,-3.4527,-3.4502,-3.4525,-3.5077,-3.5052,-3.4901,-3.5818,-3.6038,-3.5823,-3.5403,-3.5209,-3.5099,-3.4654,-3.4464,-3.4312,-3.4399,-3.3942,-3.314,-3.2456,-3.139,-3.0512,-3.0526,-3.1173,-3.1739,-3.1068,-3.1064,-3.0694,-2.8946,-2.8502,-2.8251,-2.8093,-2.8776,0.0,0.0,0.0,-3.1896,-3.1745,-3.1592,-3.1496,0.0,-3.124,0.0,0.0,0.0,0.0,0.0,0.0,0.0,0.0,-3.24,0.0,-3.3168,-3.352,-3.3604,-3.3292,-3.3292,-3.3637,-3.4326,-3.4705,-3.591,-3.7685,-3.7702,-3.8136,-3.9,-3.886,-3.86,-3.8477,-3.8007,-3.7871,-3.7974,-3.7785,-3.7702,-3.7489,-5.586,-5.6543,-5.7192,-5.7679,-5.7137,-5.6532,-5.6227,-5.5177,-5.3919,-5.281,-5.1786,-5.0767,-5.0026,-4.9097,0.0,-4.8604,-4.7773,-4.7194,-4.7154,-4.6479,-4.5667,-4.4749,-4.422,-4.3706,-4.3198,0.0,0.0,-4.0239,-3.9824,-4.0199,-4.1226,-4.0503,-3.9741,-3.9094,-3.7816,-3.6969,-3.6521,-3.6225,-3.5855,-3.5504,-3.5133,-3.4942,-3.5002,-3.4981,-3.4942,-3.5077,-3.5429,-3.5328,-3.5086,-3.5893,-3.566,-3.508,-3.508,-3.4499,-3.3918,-3.4297,-3.385,-3.332,-3.3441,-3.2959,-3.2322,-3.1412,-3.0638,-3.023,-3.0193,-3.06,-3.0742,-3.0245,-3.0052,-2.954,-2.8232,-2.7721,-2.7461,-2.7172,-2.7702,-2.8418,-2.9159,0.0,-3.1085,0.0,0.0,0.0,0.0,-3.136,-3.0906,0.0,0.0,0.0,0.0,0.0,0.0,-3.1227,-3.2697,0.0,-3.3278,-3.3702,-3.3668,-3.3292,-3.3476,-3.3981,-3.4808,-3.505,-3.5769,-3.6642,-3.6932,-3.7426,-3.7926,-3.7709,-3.791,-3.8348,-3.7387,-3.7348,-3.7761,-3.7038,-3.6871,-3.6688,-5.5277,-5.5437,0.0,0.0,-5.7814,0.0,-5.7219,-5.6331,-5.5131,-5.3684,-5.2155,-5.0908,-5.0104,-4.9147,-4.8604,-4.8604,0.0,0.0,0.0,-4.6328,-4.5412,-4.4685,-4.4368,-4.3542,-4.2169,-4.0425,-3.9164,-3.8309,-3.8304,-3.8933,-4.009,-3.9299,-3.8792,-3.8522,-3.7268,-3.6709,-3.6684,-3.5823,-3.5504,-3.5504,-3.4951,-3.5052,-3.5479,-3.5027,-3.5152,-3.5604,-3.5604,-3.5487,-3.5444,-3.6088,-3.5355,-3.4338,-3.4581,-3.3422,-3.2036,-3.2795,-3.2699,-3.2208,-3.175,-3.1689,-3.1547,-3.0122,-3.0209,-3.0732,-3.0954,-3.0381,-2.9891,-3.0203,-2.8938,-2.7826,-2.8304,-2.732,-2.6604,-2.724,-2.6448,-2.6617,-2.8838,0.0,-2.951,0.0,0.0,0.0,0.0,-3.152,-3.1431,0.0,0.0,0.0,0.0,0.0,-3.0937,-3.1803,-3.3078,-3.3596,-3.3269,-3.3568,-3.3492,-3.3292,-3.3673,-3.4177,-3.4703,-3.5078,-3.5016,-3.458,-3.564,-3.5968,-3.5813,-3.6121,-3.7059,-3.8097,-3.6542,-3.6597,-3.7263,-3.5978,-3.558,-3.5443,0.0,0.0,-5.6017,-5.6679,-5.6673,-5.6785,-5.7046,-5.6331,-5.5376,-5.446,-5.291,-5.1685,-5.0908,-4.939,-4.8385,-4.8385,-4.7292,-4.6762,-4.7123,-4.5997,-4.4934,-4.399,-4.356,-4.3005,-4.2093,-4.0769,-3.9252,-3.7473,-3.7621,-3.7888,-3.8136,-3.8803,-3.906,-3.8792,-3.7756,-3.7108,-3.6658,-3.5603,-3.536,-3.5504,-3.5133,-3.5234,-3.5579,-3.6042,-3.6243,-3.6182,-3.6182,-3.5412,-3.4362,-3.48,-3.4027,-3.2892,-3.3185,-3.2509,-3.1806,-3.2494,-3.2149,-3.1819,-3.2167,-3.1667,-3.1042,-3.0712,-2.9812,-2.9064,-2.9147,-2.8652,-2.8316,-2.8836,-2.8164,-2.7459,-2.7422,-2.7202,-2.6784,-2.6447,-2.7002,-2.7547,-2.7936,-2.9231,0.0,0.0,-3.1985,-3.2463,-3.225,-3.2592,-3.2463,0.0,0.0,0.0,0.0,-3.0924,-3.1344,-3.1708,-3.2406,-3.2938,-3.3269,-3.3392,-3.317,-3.2645,-3.3141,-3.3451,-3.352,-3.3465,-3.4142,-3.5113,-3.4625,-3.5097,-3.6121,-3.5395,-3.5758,-3.6494,-3.5747,-3.5639,-3.5848,-3.5024,-3.4746,-3.4648,-5.4155,-5.4434,-5.4808,-5.5362,-5.5682,-5.5934,-5.6292,-5.5683,-5.504,-5.4634,-5.2924,-5.1567,-5.1102,-4.9439,-4.8301,-4.8218,-4.7079,-4.6444,-4.6683,-4.5308,-4.4206,-4.3286,-4.3012,-4.2667,-4.2084,-4.1155,-3.9698,-3.7737,-3.6933,-3.6743,-3.7277,-3.7918,-3.8282,-3.8395,-3.7782,-3.7294,-3.6845,-3.5912,-3.5587,-3.5881,-3.5328,-3.5429,-3.5956,-3.6257,-3.6358,-3.6358,-3.5858,-3.5088,-3.4294,-3.3997,-3.2918,-3.194,-3.2208,-3.1483,-3.0781,-3.1018,-3.0789,-3.0537,-3.0899,-3.0413,-2.9764,-2.9842,-2.9081,-2.8451,-2.8654,-2.8384,-2.8237,-2.8834,-2.8428,-2.7883,-2.7821,-2.7479,-2.7019,-2.6577,-2.6955,-2.7431,-2.7694,-2.9073,0.0,-3.1129,-3.225,-3.3073,-3.3113,-3.3383,-3.322,-3.2236,-3.2075,0.0,-3.129,-3.1763,-3.1993,-3.1754,-3.2563,-3.3093,-3.3292,-3.3292,-3.3083,-3.2757,-3.3294,-3.3471,-3.3399,-3.355,-3.3788,-3.4009,-3.3418,-3.3943,-3.4932,-3.4051,-3.4565,-3.5907,-3.4645,-3.4462,-3.4812,-3.2986,-3.2703,-3.3008,-5.3394,-5.3268,-5.3165,-5.3748,-5.4616,-5.5329,-5.5471,-5.5072,-5.477,-5.4669,-5.2732,-5.1424,-5.122,-4.9584,-4.8368,-4.8034,-4.6732,-4.589,-4.5809,-4.445,-4.3333,-4.2561,-4.256,-4.2416,-4.1945,-4.1229,-3.9959,-3.8117,-3.6342,-3.5913,-3.6881,-3.6959,-3.7325,-3.79,-3.769,-3.7413,-3.7083,-3.6125,-3.583,-3.6023,-3.5194,-3.5318,-3.6073,-3.6003,-3.6098,-3.6168,-3.5066,-3.4678,-3.4288,-3.33,-3.1993,-3.097,-3.1176,-3.0453,-2.9493,-2.9497,-2.9353,-2.9291,-2.9332,-2.9021,-2.8711,-2.8711,-2.8531,-2.8431,-2.8819,-2.8695,-2.8692,-2.937,-2.9001,-2.8451,-2.8487,-2.7798,-2.7215,-2.6962,-2.6688,-2.688,-2.7715,0.0,-3.0057,-3.1504,-3.2786,-3.3662,-3.4107,-3.4206,-3.3991,-3.3162,-3.3228,-3.2999,-3.234,-3.2723,-3.2619,-3.1892,-3.2984,-3.3469,-3.317,-3.3069,-3.2994,-3.2849,-3.3293,-3.346,-3.3442,-3.3853,-3.3364,-3.2225,-3.2142,-3.2529,-3.3068,-3.2206,-3.3131,-3.5039,-3.3152,-3.2886,-3.32,-3.0469,-3.0234,-3.0863,-5.1855,-5.2137,-5.2248,-5.2203,-5.37,-5.508,-5.5612,-5.5755,-5.5518,-5.4839,-5.377,-5.2752,-5.198,-5.0263,-4.8842,-4.7954,-4.648,-4.5397,-4.4871,-4.3775,-4.2589,-4.134,-4.1924,-4.2068,-4.1413,-4.0317,-3.8757,-3.7044,-3.6359,-3.607,-3.6253,-3.675,-3.7325,-3.79,-3.79,-3.7598,-3.6964,-3.5307,-3.4627,-3.463,-3.3791,-3.3813,-3.4483,-3.5307,-3.5716,-3.5596,-3.4799,-3.3895,-3.2901,-3.1891,-3.0764,-2.9869,-2.9533,-2.9343,-2.9298,-2.9921,-2.9843,-2.9475,-2.9312,-2.9249,-2.9187,-2.9187,-2.9003,-2.8819,-2.9188,-2.8901,-2.8715,-2.9188,-2.8737,-2.8166,-2.8012,-2.7868,-2.7585,-2.6982,-2.7071,-2.7167,-2.7092,0.0,-3.0445,-3.132,-3.344,-3.4894,-3.4906,-3.531,-3.5261,-3.4563,-3.4127,-3.3776,-3.3482,-3.329,-3.2878,-3.2082,-3.2872,-3.3069,-3.2521,-3.2139,-3.187,-3.1698,-3.1784,-3.1846,-3.1911,-3.1973,-3.1615,-3.097,-3.0589,-3.0701,-3.1106,-3.0069,-3.0491,-3.1716,-3.0743,-3.0207,-2.9695,-2.854,-2.7998,-2.7551,-5.1059,-5.093,-5.0767,-5.0274,-5.135,-5.2362,-5.2769,-5.3619,-5.4057,-5.3683,-5.3104,-5.2506,-5.1602,-5.031,-4.8879,-4.7559,-4.647,-4.5295,-4.4097,-4.2968,-4.2047,-4.1412,-4.1134,-4.0849,-4.0263,-3.9715,-3.8698,-3.7206,-3.6167,-3.5992,-3.6593,-3.6096,-3.6379,-3.7201,-3.6521,-3.5928,-3.5522,-3.4246,-3.3613,-3.3453,-3.2803,-3.275,-3.3155,-3.3476,-3.3674,-3.3674,-3.2755,-3.205,-3.1462,-3.0453,-2.9743,-2.9343,-2.9132,-2.9293,-2.9534,-2.9843,-3.0084,-3.0096,-2.9497,-2.9311,-2.9249,-2.9001,-2.8837,-2.8798,-2.9249,-2.9106,-2.9065,-2.9518,-2.9394,-2.9106,-2.8752,-2.8462,-2.8136,-2.7832,-2.7497,0.0,0.0,-2.9377,-3.1135,-3.174,-3.4023,-3.5618,-3.5948,-3.6109,-3.5762,-3.4834,-3.4588,-3.4259,-3.3744,-3.3168,-3.2701,-3.2483,-3.2431,-3.2374,-3.231,-3.1897,-3.1741,-3.1927,-3.1818,-3.1622,-3.1486,-3.1486,-3.1003,-3.0176,-2.998,-3.0102,-3.0489,-2.965,-2.9779,-3.0409,-2.9549,-2.8706,-2.7911,-2.6545,-2.6101,-2.6184,-5.0353,-4.9833,-4.9316,-4.8388,-4.918,-5.0039,-5.0226,-5.1324,-5.2217,-5.2388,-5.2236,-5.1788,-5.119,-5.0227,-4.8932,-4.7195,-4.6617,-4.5663,-4.42,-4.2801,-4.1881,-4.1475,-4.0558,-3.9832,-3.9275,-3.9311,-3.8748,-3.7349,-3.6061,-3.5859,-3.6715,-3.5531,-3.5403,-3.6213,-3.5138,-3.4459,-3.4068,-3.3032,-3.2431,-3.2151,-3.1666,-3.1644,-3.1724,-3.1869,-3.1949,-3.205,-3.103,-3.0618,-3.0411,-2.9323,-2.9106,-2.9186,-2.908,-2.9379,-2.9759,-2.9968,-3.0526,-3.0946,-3.014,-2.9912,-2.9703,-2.9446,-2.9321,-2.9384,-2.9635,-2.968,-2.9786,-3.0266,-3.0161,-2.9891,-2.9724,-2.9185,-2.8711,-2.8703,0.0,0.0,0.0,-3.0063,-3.1692,-3.263,-3.4675,-3.6192,-3.6564,-3.6452,-3.5993,-3.4841,-3.4817,-3.4413,-3.3646,-3.2845,-3.2316,-3.2174,-3.1717,-3.1603,-3.1758,-3.1551,-3.1587,-3.1857,-3.1625,-3.1459,-3.1092,-3.0976,-3.0393,-2.9508,-2.9278,-2.9431,-2.9668,-2.8895,-2.884,-2.9144,-2.7955,-2.7079,-2.6347,-2.4515,-2.4264,-2.4537,-4.9286,-4.9038,-4.8357,-4.6885,-4.8239,-4.959,-4.9655,-5.0299,-5.098,-5.1663,-5.1481,-5.1223,-5.1058,-5.0322,-4.916,-4.7429,-4.7148,-4.6676,-4.5542,-4.3856,-4.2264,-4.0842,-4.0453,-3.9808,-3.8778,-3.9212,-3.8654,-3.7022,-3.6251,-3.5887,-3.5963,-3.5108,-3.4817,-3.4848,-3.4751,-3.4142,-3.3132,-3.1803,-3.0906,-3.0411,-3.012,-3.0016,-3.0224,-3.1257,-3.1688,-3.1564,-3.0764,-3.0453,-3.0245,-2.9132,-2.9005,-2.9342,-2.8996,-2.929,-2.9721,-3.0472,-3.1325,-3.2128,-3.199,-3.1742,-3.1422,-3.1424,-3.1498,-3.1389,-3.0895,-3.0729,-3.087,-3.1233,-3.0706,-3.0183,-3.0639,-2.9848,-2.9182,-2.8815,0.0,0.0,-2.9254,-3.0532,-3.2087,-3.4096,-3.5479,-3.631,-3.6402,-3.6452,-3.5953,-3.4872,-3.4775,-3.4362,-3.3254,-3.2655,-3.1768,-3.0266,-3.079,-3.0726,-3.0224,-3.0411,-3.0439,-3.0187,-3.0472,-3.0659,-3.0509,-3.0157,-2.9578,-2.8816,-2.8253,-2.8002,-2.8028,-2.6601,-2.636,-2.6764,-2.5225,-2.442,-2.3777,-2.3062,-2.2187,-2.1447,-4.8748,-4.8961,-4.8922,-4.7185,-4.8216,-4.9327,-4.9367,-5.0403,-5.1173,-5.107,-5.1508,-5.1548,-5.0574,-4.9787,-4.886,-4.7723,-4.7365,-4.6792,-4.5825,-4.5132,-4.326,-3.9955,-3.9923,-3.9448,-3.8281,-3.8749,-3.8166,-3.6689,-3.6146,-3.5865,-3.563,-3.4126,-3.3669,-3.397,-3.2678,-3.1768,-3.1359,-3.0141,-2.9533,-2.9323,-2.9006,-2.89,-2.9006,-2.9428,-2.9513,-2.9554,-2.952,-2.9514,-2.9447,-2.9312,-2.942,-2.9447,-2.9336,-2.9609,-3.0152,-3.0833,-3.1552,-3.2166,-3.3035,-3.2617,-3.2041,-3.2093,-3.1826,-3.1462,-3.0982,-3.0863,-3.0849,-3.1019,-3.0704,-3.0703,-3.1219,-3.0708,-3.0385,-3.0521,0.0,-2.9623,-3.0297,-3.175,-3.3125,-3.3933,-3.5431,-3.6413,-3.6427,-3.5978,-3.5404,-3.4823,-3.4311,-3.3697,-3.3001,-3.2075,-3.1021,-2.9699,-3.0269,-3.0289,-2.9957,-2.9948,-2.9931,-2.9867,-2.9565,-2.9373,-2.9212,-2.9083,-2.8765,-2.8264,-2.8027,-2.7789,-2.726,-2.6385,-2.5611,-2.4964,-2.3754,-2.2886,-2.2047,-2.163,-2.1078,-2.048,-4.9076,-4.9266,-4.9342,-4.7877,-4.8486,-4.9193,-4.9209,-5.0204,-5.0783,-5.0317,-5.102,-5.107,-4.9607,-4.8992,-4.8228,-4.7258,-4.7237,-4.6949,-4.6192,-4.5737,-4.382,-3.9947,-3.9675,-3.9089,-3.7915,-3.8132,-3.773,-3.6585,-3.5848,-3.5392,-3.5162,-3.3586,-3.2918,-3.2901,-3.1348,-3.0433,-2.9973,-2.9046,-2.8621,-2.8514,-2.8408,-2.8301,-2.8301,-2.8301,-2.8301,-2.834,-2.8769,-2.8926,-2.9094,-2.9525,-2.978,-2.9898,-2.9766,-3.0059,-3.0584,-3.1129,-3.1556,-3.2133,-3.3346,-3.3219,-3.275,-3.3121,-3.2849,-3.2413,-3.1695,-3.1403,-3.1343,-3.1495,-3.1305,-3.124,-3.1907,-3.1556,-3.1293,-3.157,-3.1042,-3.0712,-3.1515,-3.2734,-3.3768,-3.4318,-3.5255,-3.5667,-3.5451,-3.4896,-3.4311,-3.372,-3.3561,-3.3095,-3.2229,-3.1084,-3.0118,-2.9439,-2.9773,-2.9756,-2.9447,-2.9563,-2.9412,-2.9222,-2.889,-2.8363,-2.7804,-2.7842,-2.7762,-2.7642,-2.728,-2.7039,-2.6745,-2.5794,-2.4707,-2.3687,-2.2513,-2.1589,-2.086,-2.0454,-2.0028,-1.9807,-5.0434,-4.9945,-4.9383,-4.8739,-4.8962,-4.9229,-4.929,-4.9445,-4.9539,-4.9505,-4.9814,-4.9544,-4.8033,-4.7901,-4.7272,-4.5841,-4.6725,-4.713,-4.6621,-4.5297,-4.3452,-4.0801,-4.0069,-3.9057,-3.7784,-3.7508,-3.715,-3.6734,-3.5162,-3.4385,-3.4409,-3.3526,-3.2605,-3.1549,-3.119,-3.0302,-2.9132,-2.8834,-2.8514,-2.8301,-2.8301,-2.8301,-2.8301,-2.8301,-2.8301,-2.8359,-2.8769,-2.9144,-2.9421,-2.9545,-3.0108,-3.069,-3.0329,-3.0527,-3.0995,-3.1208,-3.1556,-3.2018,-3.2892,-3.3343,-3.3878,-3.4607,-3.4808,-3.4532,-3.3522,-3.2846,-3.2555,-3.2945,-3.2266,-3.1863,-3.2967,-3.2244,-3.168,-3.1771,-3.1307,-3.1483,-3.3025,-3.3313,-3.4007,-3.5738,-3.4993,-3.4068,-3.3254,-3.3201,-3.26,-3.13,-3.2377,-3.242,-3.084,-2.9996,-2.9327,-2.9141,-2.9203,-2.8969,-2.8253,-2.8991,-2.8904,-2.7783,-2.8219,-2.7789,-2.6491,-2.6523,-2.6675,-2.69,-2.57,-2.5717,-2.6399,-2.446,-2.3411,-2.3051,-2.1327,-2.0571,-2.0241,-1.9498,-1.9145,-1.8778,-5.0292,-5.0156,-5.0042,-4.9498,-5.0281,-5.0888,-5.0798,-5.0878,-5.0639,-4.9603,-4.9318,-4.8696,-4.727,-4.6657,-4.639,-4.6392,-4.6241,-4.6066,-4.5813,-4.403,-4.2653,-4.2097,-4.0622,-3.9371,-3.8336,-3.7717,-3.7049,-3.6428,-3.5451,-3.4869,-3.4634,-3.3272,-3.2471,-3.211,-3.0453,-2.9465,-2.9026,-2.8621,-2.8408,-2.8301,-2.8301,-2.8194,-2.8067,-2.8194,-2.8369,-2.8591,-2.9349,-2.9925,-3.0353,-3.0903,-3.1142,-3.1031,-3.0799,-3.0781,-3.0995,-3.1208,-3.1556,-3.2018,-3.2892,-3.3374,-3.3853,-3.4441,-3.4448,-3.4062,-3.3356,-3.2791,-3.2555,-3.307,-3.2369,-3.2068,-3.3481,-3.2858,-3.2174,-3.2219,-3.2096,-3.1995,-3.2096,-3.2872,-3.373,-3.4288,-3.3871,-3.3615,-3.366,-3.2788,-3.2219,-3.2018,-3.2105,-3.1646,-3.0658,-3.0246,-2.9947,-2.9659,-2.9559,-2.9164,-2.8455,-2.8645,-2.8327,-2.7508,-2.7016,-2.6576,-2.6135,-2.5676,-2.5594,-2.57,-2.5226,-2.4857,-2.4425,-2.3383,-2.2318,-2.1292,-2.0159,-1.935,-1.8892,-1.8532,-1.8416,-1.8452,-5.029,-5.038,-5.0422,-4.9876,-5.0286,-5.0744,-5.0995,-5.1027,-5.0658,-4.959,-4.9294,-4.839,-4.6442,-4.5634,-4.5235,-4.511,-4.4959,-4.4975,-4.5076,-4.3488,-4.2477,-4.2382,-4.0872,-3.9645,-3.8872,-3.7795,-3.6937,-3.6284,-3.4769,-3.4257,-3.4808,-3.3046,-3.2254,-3.2328,-3.0446,-2.9474,-2.9026,-2.8495,-2.8301,-2.8301,-2.8301,-2.8174,-2.8067,-2.8281,-2.8349,-2.8532,-2.927,-2.9937,-3.0458,-3.0897,-3.1157,-3.1222,-3.1285,-3.1228,-3.1344,-3.1441,-3.1787,-3.2133,-3.2685,-3.3161,-3.3663,-3.4141,-3.424,-3.4116,-3.3623,-3.3249,-3.3048,-3.316,-3.2701,-3.2427,-3.316,-3.2989,-3.2613,-3.2613,-3.2613,-3.259,-3.2279,-3.2981,-3.3571,-3.3977,-3.3038,-3.2509,-3.2713,-3.1912,-3.1611,-3.2184,-3.1698,-3.1238,-3.0794,-3.0373,-3.0025,-2.9922,-2.9331,-2.8783,-2.8163,-2.7677,-2.7317,-2.6845,-2.627,-2.5588,-2.4865,-2.4759,-2.4532,-2.4285,-2.4178,-2.3852,-2.3325,-2.2306,-2.1376,-2.0618,-1.9344,-1.8638,-1.8204,-1.7901,-1.7894,-1.8042,-5.0326,-5.0496,-5.053,-4.9789,-4.9342,-4.9427,-5.0228,-5.0083,-4.9772,-4.9158,-4.9173,-4.8232,-4.5395,-4.4825,-4.4021,-4.271,-4.3361,-4.3978,-4.4379,-4.3371,-4.2382,-4.1903,-4.059,-3.9584,-3.9105,-3.773,-3.6799,-3.6358,-3.364,-3.3226,-3.4841,-3.2788,-3.2074,-3.2376,-3.1065,-2.9997,-2.9086,-2.8554,-2.832,-2.8301,-2.8301,-2.832,-2.834,-2.8301,-2.834,-2.8457,-2.8789,-2.9273,-2.9808,-3.0008,-3.0538,-3.1184,-3.1606,-3.1727,-3.1727,-3.1727,-3.1957,-3.2187,-3.2187,-3.2913,-3.3523,-3.3388,-3.3942,-3.4356,-3.3994,-3.386,-3.3599,-3.3302,-3.2999,-3.2748,-3.2441,-3.2596,-3.2857,-3.2857,-3.2857,-3.2835,-3.3005,-3.2984,-3.3409,-3.4147,-3.2319,-3.1038,-3.1079,-3.0831,-3.1055,-3.1819,-3.141,-3.1003,-3.082,-3.0274,-2.9884,-2.9691,-2.892,-2.8027,-2.7381,-2.6439,-2.5965,-2.5948,-2.5819,-2.4916,-2.3035,-2.3657,-2.3518,-2.3004,-2.2601,-2.2606,-2.2841,-2.1286,-2.0557,-2.0394,-1.8779,-1.8189,-1.8077,-1.7483,-1.7483,-1.7854,-4.9816,-4.9351,-4.9017,-4.9233,-4.9458,-4.9614,-4.9614,-4.93,-4.864,-4.7517,-4.6978,-4.5879,-4.3687,-4.3718,-4.3515,-4.2688,-4.2952,-4.3315,-4.3881,-4.1931,-4.0822,-4.0968,-3.9419,-3.8136,-3.7483,-3.7197,-3.7017,-3.6922,-3.4502,-3.4009,-3.5282,-3.2997,-3.2232,-3.2703,-3.1244,-3.0158,-2.9655,-2.9006,-2.8594,-2.8301,-2.8301,-2.8388,-2.8443,-2.831,-2.8602,-2.8925,-2.9223,-2.958,-3.0008,-3.0329,-3.0873,-3.1482,-3.1337,-3.1264,-3.1264,-3.1604,-3.1717,-3.1717,-3.1717,-3.221,-3.2477,-3.2248,-3.2623,-3.3205,-3.3617,-3.3095,-3.2599,-3.3204,-3.238,-3.1839,-3.2551,-3.2053,-3.1537,-3.1537,-3.1428,-3.121,-3.077,-3.1059,-3.1366,-3.1475,-3.0709,-3.0187,-3.03,-3.0122,-3.0605,-3.1741,-3.1416,-3.0856,-3.0045,-2.9985,-2.9385,-2.827,-2.8101,-2.7364,-2.5912,-2.5678,-2.5445,-2.5227,-2.4229,-2.3349,-2.2766,-2.255,-2.2328,-2.2039,-2.1853,-2.174,-2.1461,-2.0677,-1.9811,-1.905,-1.8351,-1.7839,-1.7371,-1.7169,-1.749,-1.8001,-4.7921,-4.7423,-4.6991,-4.7327,-4.7413,-4.7752,-4.8481,-4.8315,-4.7947,-4.7225,-4.6546,-4.5352,-4.3166,-4.2815,-4.2595,-4.2281,-4.2796,-4.3186,-4.3294,-4.2067,-4.0974,-4.0348,-3.9175,-3.8144,-3.739,-3.7072,-3.6864,-3.6874,-3.4459,-3.3988,-3.5356,-3.3001,-3.223,-3.2802,-3.1441,-3.0419,-2.9816,-2.9361,-2.8867,-2.832,-2.873,-2.868,-2.8416,-2.8505,-2.8641,-2.8707,-2.88,-2.9203,-2.9639,-3.0186,-3.0738,-3.1244,-3.1452,-3.1574,-3.1615,-3.1953,-3.2014,-3.1901,-3.1901,-3.1836,-3.1787,-3.1556,-3.1441,-3.1707,-3.2713,-3.2574,-3.2184,-3.2204,-3.1534,-3.097,-3.1421,-3.1196,-3.0837,-3.095,-3.0724,-3.0517,-2.9967,-3.0042,-3.0231,-3.0458,-3.0137,-3.0006,-3.0584,-3.0354,-3.0509,-3.1325,-3.1011,-3.0449,-2.9642,-2.9085,-2.8551,-2.7783,-2.716,-2.6261,-2.506,-2.425,-2.3705,-2.32,-2.294,-2.2542,-2.1816,-2.1534,-2.131,-2.0971,-2.0886,-2.085,-2.0602,-2.0067,-1.9499,-1.8867,-1.8221,-1.7712,-1.7235,-1.7087,-1.726,-1.7787,-4.6047,-4.561,-4.5364,-4.5389,-4.5326,-4.5808,-4.7133,-4.7336,-4.7267,-4.7045,-4.6461,-4.5191,-4.2823,-4.1966,-4.1691,-4.1782,-4.2703,-4.3009,-4.2609,-4.2312,-4.1356,-3.9616,-3.891,-3.8184,-3.7468,-3.6836,-3.6578,-3.6578,-3.4141,-3.3634,-3.5046,-3.2799,-3.2158,-3.2818,-3.1676,-3.0782,-3.0057,-2.9754,-2.9219,-2.8574,-2.9277,-2.9141,-2.8535,-2.8809,-2.8711,-2.8398,-2.832,-2.8601,-2.9192,-2.9769,-3.0273,-3.0843,-3.1671,-3.1919,-3.2023,-3.2365,-3.2374,-3.2125,-3.2031,-3.1496,-3.1092,-3.0976,-3.0274,-2.9903,-3.1169,-3.1516,-3.1532,-3.0923,-3.0354,-3.0023,-3.0026,-3.0025,-3.002,-3.0236,-3.0138,-2.9785,-2.9313,-2.9076,-2.9057,-2.9728,-2.9785,-3.0039,-3.0976,-3.0451,-3.0198,-3.0723,-3.0276,-2.9642,-2.8934,-2.8044,-2.7464,-2.7205,-2.5887,-2.4829,-2.4008,-2.2729,-2.1669,-2.096,-2.173,-2.1611,-2.0559,-2.0681,-2.0483,-2.0011,-2.0094,-2.0129,-1.9979,-1.9584,-1.92,-1.8816,-1.8173,-1.7658,-1.74,-1.7141,-1.7271,-1.7529,-4.5998,-4.5903,-4.566,-4.5389,-4.5987,-4.6403,-4.6373,-4.6225,-4.5812,-4.5054,-4.4805,-4.3891,-4.1783,-4.0763,-4.0777,-4.1828,-4.2018,-4.214,-4.214,-4.0558,-3.9284,-3.826,-3.7219,-3.6424,-3.5805,-3.5875,-3.5898,-3.5898,-3.4274,-3.3642,-3.384,-3.2477,-3.2113,-3.2758,-3.2052,-3.1425,-3.0942,-3.0325,-2.9844,-2.9414,-2.9531,-2.9492,-2.9355,-2.9043,-2.8887,-2.8789,-2.8418,-2.8601,-2.9132,-2.9192,-2.9921,-3.0781,-3.1298,-3.1464,-3.1547,-3.1646,-3.1769,-3.1543,-3.0655,-3.047,-3.0372,-2.9785,-2.8938,-2.8224,-2.8104,-2.8838,-2.9431,-2.9573,-2.8902,-2.8444,-2.902,-2.8683,-2.8343,-2.8325,-2.8104,-2.7624,-2.7004,-2.6779,-2.6918,-2.7744,-2.8379,-2.9112,-3.0039,-2.925,-2.9077,-3.002,-2.9087,-2.8294,-2.7591,-2.6964,-2.6057,-2.4821,-2.422,-2.3304,-2.2033,-2.1576,-2.0874,-2.004,-1.9775,-1.9685,-1.9555,-1.9987,-1.9985,-1.9402,-1.955,-1.9674,-1.9584,-1.8956,-1.8559,-1.8162,-1.7658,-1.74,-1.713,-1.74,-1.74,-1.7529,-4.6048,-4.4869,-4.4003,-4.5052,-4.5537,-4.5953,-4.6632,-4.6369,-4.5985,-4.571,-4.4578,-4.3342,-4.2076,-4.1164,-4.0911,-4.1448,-4.2085,-4.2235,-4.1597,-4.0754,-3.9602,-3.804,-3.7189,-3.6279,-3.5477,-3.5151,-3.4801,-3.4252,-3.3823,-3.3614,-3.3636,-3.2592,-3.2125,-3.2107,-3.1687,-3.1177,-3.0446,-3.06,-3.0195,-2.959,-2.9824,-2.9629,-2.918,-2.8984,-2.8769,-2.8535,-2.8359,-2.8514,-2.894,-2.9026,-2.9647,-3.0524,-3.1215,-3.1436,-3.1593,-3.1932,-3.16,-3.1027,-3.047,-3.0023,-2.945,-2.86,-2.7762,-2.7039,-2.6554,-2.6675,-2.6918,-2.7521,-2.7021,-2.6779,-2.728,-2.7039,-2.6779,-2.69,-2.6537,-2.605,-2.5546,-2.5056,-2.5178,-2.6244,-2.6779,-2.7642,-2.8938,-2.7984,-2.7605,-2.8256,-2.7168,-2.6136,-2.5451,-2.4922,-2.4201,-2.3311,-2.2565,-2.178,-2.0831,-2.0371,-1.9809,-1.8997,-1.8881,-1.8972,-1.926,-1.927,-1.9191,-1.9125,-1.8986,-1.8927,-1.8944,-1.7647,-1.7389,-1.7658,-1.6732,-1.6529,-1.6818,-1.6946,-1.6986,-1.6751]}]]